Wetterdaten: Sonntag, 25.08.2024
Datum Zeit Temp. I. Temp. A. Feuchte I. Feuchte A. Luftdruck Regen Wind Richtung Richtung Sonnenschein Solar Taupunkt Windchill Windböen
25.08.2024 00:00 23,8 °C 27,2 °C 56 % 50 % 1006,2 hPa 0,0 l/m² 8,7 km/h (2 Bft) S-SO 150 ° 0 min 0 W/m² 15,9 °C 26,8 °C 12,9 km/h (3 Bft)
25.08.2024 00:02 23,8 °C 27,2 °C 56 % 50 % 1006,3 hPa 0,0 l/m² 8,0 km/h (2 Bft) S-SO 150 ° 0 min 0 W/m² 15,9 °C 26,9 °C 8,0 km/h (2 Bft)
25.08.2024 00:03 23,8 °C 27,1 °C 56 % 50 % 1006,3 hPa 0,0 l/m² 6,4 km/h (2 Bft) S-SO 155 ° 0 min 0 W/m² 15,8 °C 27,1 °C 11,3 km/h (2 Bft)
25.08.2024 00:05 23,8 °C 27,1 °C 56 % 51 % 1006,2 hPa 0,0 l/m² 6,3 km/h (2 Bft) S-SO 153 ° 0 min 0 W/m² 16,1 °C 27,1 °C 11,3 km/h (2 Bft)
25.08.2024 00:07 23,8 °C 27,0 °C 56 % 51 % 1006,3 hPa 0,0 l/m² 7,4 km/h (2 Bft) S 175 ° 0 min 0 W/m² 16,0 °C 26,8 °C 12,9 km/h (3 Bft)
25.08.2024 00:09 23,8 °C 26,9 °C 56 % 51 % 1006,3 hPa 0,0 l/m² 6,2 km/h (2 Bft) SO 140 ° 0 min 0 W/m² 15,9 °C 26,9 °C 14,5 km/h (3 Bft)
25.08.2024 00:11 23,8 °C 26,8 °C 56 % 51 % 1006,3 hPa 0,0 l/m² 5,6 km/h (2 Bft) S 178 ° 0 min 0 W/m² 15,8 °C 26,8 °C 8,0 km/h (2 Bft)
25.08.2024 00:12 23,8 °C 26,8 °C 56 % 51 % 1006,4 hPa 0,0 l/m² 5,4 km/h (2 Bft) S-SW 192 ° 0 min 0 W/m² 15,8 °C 26,8 °C 8,0 km/h (2 Bft)
25.08.2024 00:13 23,8 °C 26,8 °C 56 % 51 % 1006,4 hPa 0,0 l/m² 2,8 km/h (1 Bft) S-SW 192 ° 0 min 0 W/m² 15,8 °C 26,8 °C 4,8 km/h (1 Bft)
25.08.2024 00:15 23,8 °C 26,7 °C 57 % 52 % 1006,3 hPa 0,0 l/m² 2,9 km/h (1 Bft) S-SW 193 ° 0 min 0 W/m² 16,0 °C 26,7 °C 4,8 km/h (1 Bft)
25.08.2024 00:17 23,8 °C 26,5 °C 57 % 52 % 1006,4 hPa 0,0 l/m² 4,9 km/h (1 Bft) S-SW 198 ° 0 min 0 W/m² 15,8 °C 26,5 °C 8,0 km/h (2 Bft)
25.08.2024 00:19 23,7 °C 26,4 °C 57 % 53 % 1006,4 hPa 0,0 l/m² 4,3 km/h (1 Bft) W-SW 238 ° 0 min 0 W/m² 16,0 °C 26,4 °C 6,4 km/h (2 Bft)
25.08.2024 00:21 23,7 °C 26,2 °C 57 % 53 % 1006,4 hPa 0,0 l/m² 2,7 km/h (1 Bft) W-SW 240 ° 0 min 0 W/m² 15,8 °C 26,2 °C 4,8 km/h (1 Bft)
25.08.2024 00:22 23,7 °C 26,1 °C 57 % 53 % 1006,4 hPa 0,0 l/m² 0,0 km/h (0 Bft) W-SW 240 ° 0 min 0 W/m² 15,8 °C 26,1 °C 0,0 km/h (0 Bft)
25.08.2024 00:23 23,7 °C 26,1 °C 57 % 54 % 1006,4 hPa 0,0 l/m² 0,8 km/h (0 Bft) W-SW 240 ° 0 min 0 W/m² 16,0 °C 26,1 °C 1,6 km/h (1 Bft)
25.08.2024 00:25 23,7 °C 25,9 °C 57 % 54 % 1006,4 hPa 0,0 l/m² 1,0 km/h (0 Bft) W-SW 240 ° 0 min 0 W/m² 15,9 °C 25,9 °C 3,2 km/h (1 Bft)
25.08.2024 00:27 23,7 °C 25,7 °C 57 % 55 % 1006,4 hPa 0,0 l/m² 0,6 km/h (0 Bft) W-SW 240 ° 0 min 0 W/m² 16,0 °C 25,7 °C 1,6 km/h (1 Bft)
25.08.2024 00:29 23,7 °C 25,6 °C 57 % 55 % 1006,4 hPa 0,0 l/m² 0,7 km/h (0 Bft) W-SW 240 ° 0 min 0 W/m² 15,9 °C 25,6 °C 3,2 km/h (1 Bft)
25.08.2024 00:31 23,7 °C 25,4 °C 57 % 55 % 1006,4 hPa 0,0 l/m² 0,8 km/h (0 Bft) W-SW 240 ° 0 min 0 W/m² 15,7 °C 25,4 °C 3,2 km/h (1 Bft)
25.08.2024 00:32 23,7 °C 25,3 °C 57 % 56 % 1006,4 hPa 0,0 l/m² 2,1 km/h (1 Bft) W-SW 240 ° 0 min 0 W/m² 15,9 °C 25,3 °C 3,2 km/h (1 Bft)
25.08.2024 00:33 23,7 °C 25,3 °C 57 % 56 % 1006,4 hPa 0,0 l/m² 1,2 km/h (1 Bft) W-SW 240 ° 0 min 0 W/m² 15,9 °C 25,3 °C 1,6 km/h (1 Bft)
25.08.2024 00:35 23,7 °C 25,2 °C 57 % 56 % 1006,5 hPa 0,0 l/m² 2,9 km/h (1 Bft) W-SW 243 ° 0 min 0 W/m² 15,8 °C 25,2 °C 4,8 km/h (1 Bft)
25.08.2024 00:37 23,6 °C 25,2 °C 57 % 56 % 1006,5 hPa 0,0 l/m² 2,6 km/h (1 Bft) W-SW 243 ° 0 min 0 W/m² 15,8 °C 25,2 °C 4,8 km/h (1 Bft)
25.08.2024 00:39 23,7 °C 25,1 °C 57 % 56 % 1006,5 hPa 0,0 l/m² 1,8 km/h (1 Bft) W-SW 243 ° 0 min 0 W/m² 15,7 °C 25,1 °C 3,2 km/h (1 Bft)
25.08.2024 00:41 23,6 °C 25,0 °C 57 % 57 % 1006,6 hPa 0,0 l/m² 1,7 km/h (1 Bft) W-SW 243 ° 0 min 0 W/m² 15,9 °C 25,0 °C 3,2 km/h (1 Bft)
25.08.2024 00:42 23,6 °C 24,9 °C 57 % 57 % 1006,6 hPa 0,0 l/m² 2,3 km/h (1 Bft) W-SW 243 ° 0 min 0 W/m² 15,8 °C 24,9 °C 4,8 km/h (1 Bft)
25.08.2024 00:43 23,6 °C 24,9 °C 57 % 57 % 1006,6 hPa 0,0 l/m² 2,4 km/h (1 Bft) W-SW 243 ° 0 min 0 W/m² 15,8 °C 24,9 °C 4,8 km/h (1 Bft)
25.08.2024 00:47 23,6 °C 25,0 °C 57 % 56 % 1006,6 hPa 0,0 l/m² 4,0 km/h (1 Bft) W-SW 257 ° 0 min 0 W/m² 15,6 °C 25,0 °C 6,4 km/h (2 Bft)
25.08.2024 00:49 23,6 °C 25,2 °C 57 % 56 % 1006,7 hPa 0,0 l/m² 6,8 km/h (2 Bft) W-SW 257 ° 0 min 0 W/m² 15,8 °C 25,1 °C 12,9 km/h (3 Bft)
25.08.2024 00:51 23,6 °C 25,3 °C 57 % 55 % 1007,0 hPa 0,0 l/m² 10,3 km/h (2 Bft) SW 236 ° 0 min 0 W/m² 15,6 °C 24,4 °C 14,5 km/h (3 Bft)
25.08.2024 00:52 23,6 °C 25,4 °C 57 % 55 % 1007,1 hPa 0,0 l/m² 10,7 km/h (2 Bft) SW 231 ° 0 min 0 W/m² 15,7 °C 24,5 °C 14,5 km/h (3 Bft)
25.08.2024 00:53 23,6 °C 25,5 °C 57 % 55 % 1007,1 hPa 0,0 l/m² 13,4 km/h (3 Bft) W-SW 239 ° 0 min 0 W/m² 15,8 °C 24,1 °C 16,1 km/h (3 Bft)
25.08.2024 00:55 23,6 °C 25,6 °C 57 % 56 % 1007,1 hPa 0,0 l/m² 10,3 km/h (2 Bft) W 262 ° 0 min 0 W/m² 16,2 °C 24,8 °C 14,5 km/h (3 Bft)
25.08.2024 00:57 23,6 °C 25,5 °C 57 % 56 % 1007,1 hPa 0,0 l/m² 6,8 km/h (2 Bft) W-SW 245 ° 0 min 0 W/m² 16,1 °C 25,4 °C 11,3 km/h (2 Bft)
25.08.2024 00:59 23,6 °C 25,2 °C 57 % 57 % 1007,3 hPa 0,0 l/m² 6,3 km/h (2 Bft) W-SW 256 ° 0 min 0 W/m² 16,1 °C 25,2 °C 12,9 km/h (3 Bft)
25.08.2024 01:01 23,6 °C 25,1 °C 57 % 57 % 1007,3 hPa 0,0 l/m² 8,2 km/h (2 Bft) W-SW 246 ° 0 min 0 W/m² 16,0 °C 24,7 °C 14,5 km/h (3 Bft)
25.08.2024 01:02 23,6 °C 25,1 °C 57 % 57 % 1007,3 hPa 0,0 l/m² 7,9 km/h (2 Bft) W-SW 241 ° 0 min 0 W/m² 16,0 °C 24,7 °C 11,3 km/h (2 Bft)
25.08.2024 01:04 23,6 °C 25,1 °C 57 % 57 % 1007,4 hPa 0,0 l/m² 9,0 km/h (2 Bft) SW 227 ° 0 min 0 W/m² 16,0 °C 24,5 °C 12,9 km/h (3 Bft)
25.08.2024 01:06 23,6 °C 25,1 °C 57 % 58 % 1007,4 hPa 0,0 l/m² 8,7 km/h (2 Bft) SW 227 ° 0 min 0 W/m² 16,2 °C 24,5 °C 12,9 km/h (3 Bft)
25.08.2024 01:08 23,6 °C 25,2 °C 57 % 58 % 1007,5 hPa 0,0 l/m² 9,3 km/h (2 Bft) SW 234 ° 0 min 0 W/m² 16,3 °C 24,5 °C 14,5 km/h (3 Bft)
25.08.2024 01:10 23,6 °C 25,3 °C 57 % 58 % 1007,5 hPa 0,0 l/m² 10,0 km/h (2 Bft) SW 217 ° 0 min 0 W/m² 16,4 °C 24,5 °C 14,5 km/h (3 Bft)
25.08.2024 01:12 23,6 °C 25,5 °C 57 % 57 % 1007,5 hPa 0,0 l/m² 12,3 km/h (2 Bft) SW 223 ° 0 min 0 W/m² 16,3 °C 24,3 °C 17,7 km/h (3 Bft)
25.08.2024 01:13 23,6 °C 25,5 °C 57 % 58 % 1007,4 hPa 0,0 l/m² 15,1 km/h (3 Bft) S-SW 211 ° 0 min 0 W/m² 16,6 °C 23,9 °C 17,7 km/h (3 Bft)
25.08.2024 01:14 23,6 °C 25,6 °C 57 % 57 % 1007,4 hPa 0,0 l/m² 14,7 km/h (3 Bft) S-SW 209 ° 0 min 0 W/m² 16,4 °C 24,1 °C 19,3 km/h (3 Bft)
25.08.2024 01:16 23,6 °C 25,8 °C 57 % 57 % 1007,5 hPa 0,0 l/m² 15,0 km/h (3 Bft) S-SW 209 ° 0 min 0 W/m² 16,6 °C 24,3 °C 22,5 km/h (4 Bft)
25.08.2024 01:18 23,6 °C 26,0 °C 57 % 56 % 1007,5 hPa 0,0 l/m² 13,2 km/h (3 Bft) SW 221 ° 0 min 0 W/m² 16,5 °C 24,8 °C 16,1 km/h (3 Bft)
25.08.2024 01:20 23,6 °C 26,2 °C 57 % 56 % 1007,8 hPa 0,0 l/m² 17,5 km/h (3 Bft) W-SW 240 ° 0 min 0 W/m² 16,7 °C 24,5 °C 25,7 km/h (4 Bft)
25.08.2024 01:22 23,6 °C 26,4 °C 57 % 56 % 1007,9 hPa 0,0 l/m² 21,0 km/h (4 Bft) SW 228 ° 0 min 0 W/m² 16,9 °C 24,4 °C 32,2 km/h (5 Bft)
25.08.2024 01:23 23,6 °C 26,4 °C 57 % 56 % 1008,0 hPa 0,0 l/m² 21,8 km/h (4 Bft) SW 221 ° 0 min 0 W/m² 16,9 °C 24,3 °C 27,4 km/h (5 Bft)
25.08.2024 01:24 23,6 °C 26,6 °C 57 % 55 % 1008,1 hPa 0,0 l/m² 20,7 km/h (4 Bft) SW 217 ° 0 min 0 W/m² 16,8 °C 24,7 °C 32,2 km/h (5 Bft)
25.08.2024 01:26 23,7 °C 26,7 °C 57 % 55 % 1008,1 hPa 0,0 l/m² 28,5 km/h (5 Bft) W-SW 237 ° 0 min 0 W/m² 16,9 °C 24,2 °C 46,7 km/h (6 Bft)
25.08.2024 01:28 23,7 °C 27,0 °C 56 % 54 % 1008,2 hPa 0,0 l/m² 34,1 km/h (5 Bft) W-SW 250 ° 0 min 0 W/m² 16,9 °C 24,4 °C 49,9 km/h (7 Bft)
25.08.2024 01:30 23,7 °C 27,2 °C 56 % 54 % 1008,4 hPa 0,0 l/m² 34,3 km/h (5 Bft) SW 236 ° 0 min 0 W/m² 17,1 °C 24,6 °C 46,7 km/h (6 Bft)
25.08.2024 01:32 23,7 °C 27,3 °C 56 % 54 % 1008,4 hPa 0,0 l/m² 29,6 km/h (5 Bft) W-SW 258 ° 0 min 0 W/m² 17,2 °C 25,0 °C 45,1 km/h (6 Bft)
25.08.2024 01:33 23,7 °C 27,4 °C 57 % 55 % 1008,6 hPa 0,0 l/m² 37,8 km/h (5 Bft) W-SW 254 ° 0 min 0 W/m² 17,5 °C 24,8 °C 48,3 km/h (6 Bft)
25.08.2024 01:34 23,7 °C 27,3 °C 57 % 56 % 1008,7 hPa 0,0 l/m² 37,6 km/h (5 Bft) W-SW 257 ° 0 min 0 W/m² 17,7 °C 24,6 °C 49,9 km/h (7 Bft)
25.08.2024 01:36 23,7 °C 27,2 °C 57 % 57 % 1008,7 hPa 0,0 l/m² 33,8 km/h (5 Bft) W 271 ° 0 min 0 W/m² 17,9 °C 24,7 °C 49,9 km/h (7 Bft)
25.08.2024 01:38 23,7 °C 26,8 °C 58 % 59 % 1008,7 hPa 0,0 l/m² 32,2 km/h (5 Bft) W-SW 245 ° 0 min 0 W/m² 18,1 °C 24,2 °C 43,5 km/h (6 Bft)
25.08.2024 01:40 23,7 °C 26,6 °C 58 % 60 % 1008,8 hPa 0,0 l/m² 30,1 km/h (5 Bft) W 270 ° 0 min 0 W/m² 18,2 °C 24,0 °C 40,2 km/h (6 Bft)
25.08.2024 01:42 23,7 °C 26,3 °C 58 % 61 % 1008,8 hPa 0,0 l/m² 36,7 km/h (5 Bft) W-SW 253 ° 0 min 0 W/m² 18,2 °C 23,2 °C 59,5 km/h (7 Bft)
25.08.2024 01:43 23,8 °C 26,2 °C 58 % 61 % 1008,8 hPa 0,0 l/m² 34,9 km/h (5 Bft) W-SW 250 ° 0 min 0 W/m² 18,1 °C 23,2 °C 45,1 km/h (6 Bft)
25.08.2024 01:44 23,8 °C 26,2 °C 59 % 62 % 1008,8 hPa 0,0 l/m² 38,5 km/h (6 Bft) SW 229 ° 0 min 0 W/m² 18,3 °C 23,0 °C 49,9 km/h (7 Bft)
25.08.2024 01:46 23,8 °C 25,9 °C 59 % 63 % 1008,8 hPa 0,0 l/m² 36,5 km/h (5 Bft) W-SW 240 ° 0 min 0 W/m² 18,3 °C 22,6 °C 53,1 km/h (7 Bft)
25.08.2024 01:48 23,8 °C 25,7 °C 59 % 64 % 1008,8 hPa 0,0 l/m² 34,3 km/h (5 Bft) SW 229 ° 0 min 0 W/m² 18,4 °C 22,5 °C 43,5 km/h (6 Bft)
25.08.2024 01:50 23,8 °C 25,4 °C 59 % 65 % 1008,9 hPa 0,0 l/m² 28,8 km/h (5 Bft) W-SW 254 ° 0 min 0 W/m² 18,3 °C 22,4 °C 40,2 km/h (6 Bft)
25.08.2024 01:52 23,8 °C 25,2 °C 60 % 65 % 1008,9 hPa 0,0 l/m² 31,6 km/h (5 Bft) W-SW 237 ° 0 min 0 W/m² 18,1 °C 21,9 °C 46,7 km/h (6 Bft)
25.08.2024 01:53 23,8 °C 25,2 °C 60 % 65 % 1008,9 hPa 0,0 l/m² 34,9 km/h (5 Bft) W 268 ° 0 min 0 W/m² 18,1 °C 21,7 °C 41,8 km/h (6 Bft)
25.08.2024 01:54 23,8 °C 25,1 °C 60 % 65 % 1008,9 hPa 0,0 l/m² 31,4 km/h (5 Bft) W-SW 240 ° 0 min 0 W/m² 18,0 °C 21,8 °C 37,0 km/h (5 Bft)
25.08.2024 01:56 23,8 °C 25,0 °C 60 % 65 % 1008,9 hPa 0,0 l/m² 34,9 km/h (5 Bft) SW 224 ° 0 min 0 W/m² 17,9 °C 21,4 °C 45,1 km/h (6 Bft)
25.08.2024 01:58 23,8 °C 24,8 °C 60 % 65 % 1008,8 hPa 0,0 l/m² 30,2 km/h (5 Bft) W 272 ° 0 min 0 W/m² 17,8 °C 21,5 °C 48,3 km/h (6 Bft)
25.08.2024 02:00 23,8 °C 24,7 °C 60 % 65 % 1008,9 hPa 0,0 l/m² 28,2 km/h (5 Bft) W 269 ° 0 min 0 W/m² 17,7 °C 21,5 °C 40,2 km/h (6 Bft)
25.08.2024 02:02 23,8 °C 24,5 °C 60 % 66 % 1008,8 hPa 0,0 l/m² 26,5 km/h (4 Bft) SW 236 ° 0 min 0 W/m² 17,7 °C 21,3 °C 35,4 km/h (5 Bft)
25.08.2024 02:03 23,8 °C 24,4 °C 60 % 66 % 1008,7 hPa 0,0 l/m² 25,7 km/h (4 Bft) W-SW 246 ° 0 min 0 W/m² 17,6 °C 21,3 °C 40,2 km/h (6 Bft)
25.08.2024 02:04 23,8 °C 24,4 °C 60 % 66 % 1008,7 hPa 0,0 l/m² 32,7 km/h (5 Bft) W-SW 250 ° 0 min 0 W/m² 17,6 °C 20,7 °C 41,8 km/h (6 Bft)
25.08.2024 02:06 23,8 °C 24,2 °C 60 % 67 % 1008,7 hPa 0,0 l/m² 27,1 km/h (5 Bft) W-SW 251 ° 0 min 0 W/m² 17,7 °C 20,9 °C 40,2 km/h (6 Bft)
25.08.2024 02:08 23,7 °C 24,1 °C 60 % 68 % 1008,7 hPa 0,0 l/m² 20,0 km/h (4 Bft) W-SW 253 ° 0 min 0 W/m² 17,8 °C 21,5 °C 30,6 km/h (5 Bft)
25.08.2024 02:10 23,7 °C 24,0 °C 60 % 68 % 1008,7 hPa 0,0 l/m² 21,0 km/h (4 Bft) W-SW 243 ° 0 min 0 W/m² 17,7 °C 21,2 °C 30,6 km/h (5 Bft)
25.08.2024 02:12 23,7 °C 23,9 °C 60 % 69 % 1008,7 hPa 0,0 l/m² 22,4 km/h (4 Bft) W 261 ° 0 min 0 W/m² 17,9 °C 21,0 °C 37,0 km/h (5 Bft)
25.08.2024 02:13 23,7 °C 23,9 °C 60 % 69 % 1008,7 hPa 0,0 l/m² 19,8 km/h (3 Bft) W 273 ° 0 min 0 W/m² 17,9 °C 21,3 °C 25,7 km/h (4 Bft)
25.08.2024 02:14 23,7 °C 23,9 °C 60 % 69 % 1008,7 hPa 0,0 l/m² 19,8 km/h (3 Bft) W-SW 242 ° 0 min 0 W/m² 17,9 °C 21,3 °C 27,4 km/h (5 Bft)
25.08.2024 02:16 23,7 °C 23,9 °C 60 % 68 % 1008,7 hPa 0,0 l/m² 18,5 km/h (3 Bft) W-SW 248 ° 0 min 0 W/m² 17,6 °C 21,4 °C 30,6 km/h (5 Bft)
25.08.2024 02:18 23,7 °C 23,8 °C 60 % 69 % 1008,7 hPa 0,0 l/m² 16,5 km/h (3 Bft) W-SW 248 ° 0 min 0 W/m² 17,8 °C 21,6 °C 24,1 km/h (4 Bft)
25.08.2024 02:20 23,7 °C 23,8 °C 60 % 68 % 1008,8 hPa 0,0 l/m² 17,0 km/h (3 Bft) W-SW 243 ° 0 min 0 W/m² 17,5 °C 21,5 °C 25,7 km/h (4 Bft)
25.08.2024 02:22 23,7 °C 23,7 °C 60 % 69 % 1008,8 hPa 0,0 l/m² 16,0 km/h (3 Bft) W-SW 256 ° 0 min 0 W/m² 17,7 °C 21,6 °C 24,1 km/h (4 Bft)
25.08.2024 02:23 23,7 °C 23,7 °C 60 % 69 % 1008,7 hPa 0,0 l/m² 16,7 km/h (3 Bft) W-SW 238 ° 0 min 0 W/m² 17,7 °C 21,5 °C 20,9 km/h (4 Bft)
25.08.2024 02:24 23,7 °C 23,7 °C 60 % 69 % 1008,8 hPa 0,0 l/m² 17,5 km/h (3 Bft) SW 233 ° 0 min 0 W/m² 17,7 °C 21,3 °C 24,1 km/h (4 Bft)
25.08.2024 02:26 23,7 °C 23,6 °C 60 % 69 % 1008,8 hPa 0,0 l/m² 21,3 km/h (4 Bft) W 259 ° 0 min 0 W/m² 17,6 °C 20,7 °C 30,6 km/h (5 Bft)
25.08.2024 02:28 23,7 °C 23,6 °C 60 % 69 % 1008,9 hPa 0,0 l/m² 19,1 km/h (3 Bft) SW 228 ° 0 min 0 W/m² 17,6 °C 21,0 °C 25,7 km/h (4 Bft)
25.08.2024 02:30 23,7 °C 23,5 °C 60 % 69 % 1008,9 hPa 0,0 l/m² 17,1 km/h (3 Bft) SW 229 ° 0 min 0 W/m² 17,5 °C 21,1 °C 24,1 km/h (4 Bft)
25.08.2024 02:32 23,7 °C 23,4 °C 60 % 69 % 1008,9 hPa 0,0 l/m² 17,1 km/h (3 Bft) W-SW 252 ° 0 min 0 W/m² 17,4 °C 21,0 °C 24,1 km/h (4 Bft)
25.08.2024 02:33 23,6 °C 23,4 °C 60 % 69 % 1009,0 hPa 0,0 l/m² 13,5 km/h (3 Bft) W-SW 257 ° 0 min 0 W/m² 17,4 °C 21,6 °C 20,9 km/h (4 Bft)
25.08.2024 02:34 23,7 °C 23,4 °C 60 % 69 % 1009,1 hPa 0,0 l/m² 12,5 km/h (2 Bft) W-SW 242 ° 0 min 0 W/m² 17,4 °C 21,8 °C 16,1 km/h (3 Bft)
25.08.2024 02:36 23,6 °C 23,3 °C 60 % 69 % 1009,1 hPa 0,0 l/m² 14,9 km/h (3 Bft) SW 232 ° 0 min 0 W/m² 17,3 °C 21,3 °C 19,3 km/h (3 Bft)
25.08.2024 02:38 23,6 °C 23,2 °C 60 % 70 % 1009,2 hPa 0,0 l/m² 11,7 km/h (2 Bft) W-SW 244 ° 0 min 0 W/m² 17,4 °C 21,8 °C 16,1 km/h (3 Bft)
25.08.2024 02:40 23,6 °C 23,1 °C 60 % 70 % 1009,2 hPa 0,0 l/m² 12,5 km/h (2 Bft) W-SW 238 ° 0 min 0 W/m² 17,3 °C 21,5 °C 16,1 km/h (3 Bft)
25.08.2024 02:41 23,6 °C 23,1 °C 60 % 70 % 1009,1 hPa 0,0 l/m² 12,6 km/h (3 Bft) W-SW 244 ° 0 min 0 W/m² 17,3 °C 21,5 °C 16,1 km/h (3 Bft)
25.08.2024 02:42 23,6 °C 23,0 °C 60 % 71 % 1009,2 hPa 0,0 l/m² 10,6 km/h (2 Bft) W-SW 238 ° 0 min 0 W/m² 17,4 °C 21,8 °C 14,5 km/h (3 Bft)
25.08.2024 02:44 23,6 °C 22,9 °C 60 % 71 % 1009,2 hPa 0,0 l/m² 9,1 km/h (2 Bft) W-SW 243 ° 0 min 0 W/m² 17,4 °C 22,1 °C 14,5 km/h (3 Bft)
25.08.2024 02:46 23,6 °C 22,8 °C 60 % 71 % 1009,3 hPa 0,0 l/m² 9,5 km/h (2 Bft) SW 232 ° 0 min 0 W/m² 17,3 °C 21,9 °C 14,5 km/h (3 Bft)
25.08.2024 02:48 23,6 °C 22,8 °C 60 % 71 % 1009,3 hPa 0,0 l/m² 10,9 km/h (2 Bft) SW 215 ° 0 min 0 W/m² 17,3 °C 21,5 °C 16,1 km/h (3 Bft)
25.08.2024 02:50 23,6 °C 22,8 °C 60 % 72 % 1009,2 hPa 0,0 l/m² 14,4 km/h (3 Bft) S-SW 211 ° 0 min 0 W/m² 17,5 °C 20,8 °C 24,1 km/h (4 Bft)
25.08.2024 02:51 23,6 °C 22,8 °C 60 % 72 % 1009,2 hPa 0,0 l/m² 11,1 km/h (2 Bft) SW 229 ° 0 min 0 W/m² 17,5 °C 21,5 °C 17,7 km/h (3 Bft)
25.08.2024 02:52 23,6 °C 22,8 °C 60 % 72 % 1009,2 hPa 0,0 l/m² 13,0 km/h (3 Bft) SW 219 ° 0 min 0 W/m² 17,5 °C 21,0 °C 17,7 km/h (3 Bft)
25.08.2024 02:54 23,6 °C 22,7 °C 60 % 72 % 1009,2 hPa 0,0 l/m² 9,9 km/h (2 Bft) SW 223 ° 0 min 0 W/m² 17,4 °C 21,6 °C 14,5 km/h (3 Bft)
25.08.2024 02:56 23,6 °C 22,7 °C 60 % 72 % 1009,2 hPa 0,0 l/m² 12,8 km/h (3 Bft) S-SW 208 ° 0 min 0 W/m² 17,4 °C 21,0 °C 16,1 km/h (3 Bft)
25.08.2024 02:58 23,6 °C 22,6 °C 60 % 73 % 1009,1 hPa 0,0 l/m² 9,2 km/h (2 Bft) S-SW 200 ° 0 min 0 W/m² 17,5 °C 21,7 °C 12,9 km/h (3 Bft)
25.08.2024 03:00 23,6 °C 22,5 °C 60 % 73 % 1009,0 hPa 0,0 l/m² 10,5 km/h (2 Bft) SW 229 ° 0 min 0 W/m² 17,4 °C 21,3 °C 16,1 km/h (3 Bft)
25.08.2024 03:01 23,6 °C 22,6 °C 60 % 73 % 1009,0 hPa 0,0 l/m² 9,7 km/h (2 Bft) SW 225 ° 0 min 0 W/m² 17,5 °C 21,6 °C 12,9 km/h (3 Bft)
25.08.2024 03:07 23,5 °C 22,3 °C 61 % 74 % 1008,8 hPa 0,0 l/m² 12,4 km/h (2 Bft) S-SW 213 ° 0 min 0 W/m² 17,4 °C 20,6 °C 14,5 km/h (3 Bft)
25.08.2024 03:09 23,5 °C 22,3 °C 61 % 75 % 1008,6 hPa 0,0 l/m² 8,8 km/h (2 Bft) S-SW 193 ° 0 min 0 W/m² 17,6 °C 21,5 °C 11,3 km/h (2 Bft)
25.08.2024 03:10 23,5 °C 22,3 °C 61 % 75 % 1008,6 hPa 0,0 l/m² 7,2 km/h (2 Bft) S-SW 199 ° 0 min 0 W/m² 17,6 °C 22,0 °C 9,7 km/h (2 Bft)
25.08.2024 03:12 23,5 °C 22,2 °C 61 % 75 % 1008,6 hPa 0,0 l/m² 5,2 km/h (1 Bft) S-SW 210 ° 0 min 0 W/m² 17,5 °C 22,2 °C 6,4 km/h (2 Bft)
25.08.2024 03:13 23,5 °C 22,2 °C 61 % 75 % 1008,6 hPa 0,0 l/m² 2,4 km/h (1 Bft) S-SW 210 ° 0 min 0 W/m² 17,5 °C 22,2 °C 4,8 km/h (1 Bft)
25.08.2024 03:15 23,5 °C 22,2 °C 61 % 75 % 1008,8 hPa 0,0 l/m² 6,8 km/h (2 Bft) S 175 ° 0 min 0 W/m² 17,5 °C 22,1 °C 9,7 km/h (2 Bft)
25.08.2024 03:17 23,5 °C 22,1 °C 61 % 76 % 1008,9 hPa 0,0 l/m² 9,6 km/h (2 Bft) S 171 ° 0 min 0 W/m² 17,7 °C 21,1 °C 12,9 km/h (3 Bft)
25.08.2024 03:19 23,5 °C 22,1 °C 61 % 76 % 1008,9 hPa 0,0 l/m² 4,6 km/h (1 Bft) S 185 ° 0 min 0 W/m² 17,7 °C 22,1 °C 8,0 km/h (2 Bft)
25.08.2024 03:20 23,5 °C 22,1 °C 61 % 76 % 1008,8 hPa 0,0 l/m² 4,8 km/h (1 Bft) S 175 ° 0 min 0 W/m² 17,7 °C 22,1 °C 8,0 km/h (2 Bft)
25.08.2024 03:22 23,5 °C 22,1 °C 61 % 76 % 1009,1 hPa 0,0 l/m² 11,4 km/h (2 Bft) S-SO 163 ° 0 min 0 W/m² 17,7 °C 20,6 °C 17,7 km/h (3 Bft)
25.08.2024 03:23 23,5 °C 22,1 °C 61 % 77 % 1009,1 hPa 0,0 l/m² 14,0 km/h (3 Bft) S-SW 204 ° 0 min 0 W/m² 17,9 °C 20,0 °C 17,7 km/h (3 Bft)
25.08.2024 03:25 23,5 °C 22,1 °C 61 % 77 % 1009,1 hPa 0,0 l/m² 16,5 km/h (3 Bft) S 184 ° 0 min 0 W/m² 17,9 °C 19,5 °C 22,5 km/h (4 Bft)
25.08.2024 03:27 23,5 °C 22,1 °C 61 % 78 % 1009,0 hPa 0,0 l/m² 12,0 km/h (2 Bft) S-SW 199 ° 0 min 0 W/m² 18,1 °C 20,4 °C 17,7 km/h (3 Bft)
25.08.2024 03:29 23,5 °C 22,0 °C 61 % 78 % 1009,2 hPa 0,0 l/m² 10,0 km/h (2 Bft) S-SW 200 ° 0 min 0 W/m² 18,0 °C 20,8 °C 14,5 km/h (3 Bft)
25.08.2024 03:30 23,5 °C 21,9 °C 61 % 78 % 1009,1 hPa 0,0 l/m² 9,3 km/h (2 Bft) S 186 ° 0 min 0 W/m² 17,9 °C 20,9 °C 14,5 km/h (3 Bft)
25.08.2024 03:32 23,5 °C 21,9 °C 61 % 79 % 1009,2 hPa 0,0 l/m² 9,7 km/h (2 Bft) SW 220 ° 0 min 0 W/m² 18,1 °C 20,8 °C 16,1 km/h (3 Bft)
25.08.2024 03:34 23,5 °C 21,8 °C 61 % 79 % 1009,2 hPa 0,0 l/m² 7,0 km/h (2 Bft) SW 233 ° 0 min 0 W/m² 18,0 °C 21,6 °C 9,7 km/h (2 Bft)
25.08.2024 03:36 23,5 °C 21,7 °C 61 % 80 % 1009,1 hPa 0,0 l/m² 2,0 km/h (1 Bft) S-SW 202 ° 0 min 0 W/m² 18,1 °C 21,7 °C 8,0 km/h (2 Bft)
25.08.2024 03:38 23,5 °C 21,7 °C 62 % 80 % 1009,1 hPa 0,0 l/m² 7,7 km/h (2 Bft) S-SW 197 ° 0 min 0 W/m² 18,1 °C 21,2 °C 11,3 km/h (2 Bft)
25.08.2024 03:40 23,5 °C 21,6 °C 61 % 80 % 1009,0 hPa 0,0 l/m² 5,4 km/h (2 Bft) S 187 ° 0 min 0 W/m² 18,0 °C 21,6 °C 9,7 km/h (2 Bft)
25.08.2024 03:41 23,5 °C 21,6 °C 61 % 80 % 1009,0 hPa 0,0 l/m² 11,0 km/h (2 Bft) S-SW 196 ° 0 min 0 W/m² 18,0 °C 20,1 °C 14,5 km/h (3 Bft)
25.08.2024 03:42 23,5 °C 21,6 °C 62 % 80 % 1009,1 hPa 0,0 l/m² 9,1 km/h (2 Bft) SW 215 ° 0 min 0 W/m² 18,0 °C 20,7 °C 12,9 km/h (3 Bft)
25.08.2024 03:44 23,4 °C 21,6 °C 62 % 80 % 1009,2 hPa 0,0 l/m² 9,6 km/h (2 Bft) S-SW 212 ° 0 min 0 W/m² 18,0 °C 20,5 °C 11,3 km/h (2 Bft)
25.08.2024 03:46 23,4 °C 21,6 °C 62 % 81 % 1009,2 hPa 0,0 l/m² 6,2 km/h (2 Bft) SW 223 ° 0 min 0 W/m² 18,2 °C 21,6 °C 14,5 km/h (3 Bft)
25.08.2024 03:47 23,4 °C 21,6 °C 62 % 81 % 1009,1 hPa 0,0 l/m² 5,4 km/h (2 Bft) S-SW 212 ° 0 min 0 W/m² 18,2 °C 21,6 °C 6,4 km/h (2 Bft)
25.08.2024 03:49 23,5 °C 21,5 °C 62 % 81 % 1009,3 hPa 0,0 l/m² 5,0 km/h (1 Bft) W-SW 248 ° 0 min 0 W/m² 18,1 °C 21,5 °C 8,0 km/h (2 Bft)
25.08.2024 03:50 23,4 °C 21,4 °C 62 % 81 % 1009,2 hPa 0,0 l/m² 3,8 km/h (1 Bft) SW 236 ° 0 min 0 W/m² 18,0 °C 21,4 °C 4,8 km/h (1 Bft)
25.08.2024 03:52 23,4 °C 21,4 °C 62 % 82 % 1009,4 hPa 0,0 l/m² 3,4 km/h (1 Bft) S 186 ° 0 min 0 W/m² 18,2 °C 21,4 °C 4,8 km/h (1 Bft)
25.08.2024 03:53 23,4 °C 21,3 °C 62 % 82 % 1009,5 hPa 0,0 l/m² 3,4 km/h (1 Bft) S-SW 200 ° 0 min 0 W/m² 18,1 °C 21,3 °C 6,4 km/h (2 Bft)
25.08.2024 03:55 23,5 °C 21,3 °C 62 % 82 % 1009,7 hPa 0,0 l/m² 5,0 km/h (1 Bft) S-SW 204 ° 0 min 0 W/m² 18,1 °C 21,3 °C 8,0 km/h (2 Bft)
25.08.2024 03:57 23,4 °C 21,2 °C 62 % 82 % 1009,7 hPa 0,0 l/m² 1,6 km/h (1 Bft) S-SW 205 ° 0 min 0 W/m² 18,0 °C 21,2 °C 4,8 km/h (1 Bft)
25.08.2024 03:59 23,4 °C 21,2 °C 62 % 83 % 1009,8 hPa 0,0 l/m² 1,8 km/h (1 Bft) S-SW 205 ° 0 min 0 W/m² 18,2 °C 21,2 °C 3,2 km/h (1 Bft)
25.08.2024 04:00 23,5 °C 21,2 °C 62 % 83 % 1009,8 hPa 0,0 l/m² 1,1 km/h (1 Bft) S-SW 209 ° 0 min 0 W/m² 18,2 °C 21,2 °C 4,8 km/h (1 Bft)
25.08.2024 04:02 23,5 °C 21,1 °C 62 % 83 % 1009,8 hPa 0,0 l/m² 1,4 km/h (1 Bft) S-SW 209 ° 0 min 0 W/m² 18,1 °C 21,1 °C 3,2 km/h (1 Bft)
25.08.2024 04:03 23,5 °C 21,1 °C 62 % 83 % 1009,9 hPa 0,0 l/m² 0,2 km/h (0 Bft) S-SW 209 ° 0 min 0 W/m² 18,1 °C 21,1 °C 1,6 km/h (1 Bft)
25.08.2024 04:05 23,4 °C 21,0 °C 62 % 83 % 1009,8 hPa 0,0 l/m² 0,2 km/h (0 Bft) S-SW 209 ° 0 min 0 W/m² 18,0 °C 21,0 °C 3,2 km/h (1 Bft)
25.08.2024 04:07 23,4 °C 21,0 °C 62 % 84 % 1009,9 hPa 0,0 l/m² 5,2 km/h (1 Bft) S-SW 207 ° 0 min 0 W/m² 18,2 °C 21,0 °C 9,7 km/h (2 Bft)
25.08.2024 04:09 23,4 °C 21,0 °C 62 % 83 % 1009,9 hPa 0,0 l/m² 7,9 km/h (2 Bft) SW 233 ° 0 min 0 W/m² 18,0 °C 20,4 °C 9,7 km/h (2 Bft)
25.08.2024 04:10 23,5 °C 21,1 °C 62 % 84 % 1009,9 hPa 0,0 l/m² 6,3 km/h (2 Bft) S-SW 208 ° 0 min 0 W/m² 18,3 °C 21,1 °C 9,7 km/h (2 Bft)
25.08.2024 04:12 23,4 °C 21,1 °C 62 % 84 % 1009,8 hPa 0,0 l/m² 4,8 km/h (1 Bft) S-SW 209 ° 0 min 0 W/m² 18,3 °C 21,1 °C 8,0 km/h (2 Bft)
25.08.2024 04:13 23,4 °C 21,1 °C 62 % 84 % 1009,9 hPa 0,0 l/m² 4,4 km/h (1 Bft) S-SW 209 ° 0 min 0 W/m² 18,3 °C 21,1 °C 6,4 km/h (2 Bft)
25.08.2024 04:15 23,4 °C 21,1 °C 62 % 84 % 1009,8 hPa 0,0 l/m² 9,4 km/h (2 Bft) SW 227 ° 0 min 0 W/m² 18,3 °C 20,0 °C 12,9 km/h (3 Bft)
25.08.2024 04:17 23,4 °C 21,1 °C 62 % 83 % 1009,9 hPa 0,0 l/m² 4,7 km/h (1 Bft) SW 229 ° 0 min 0 W/m² 18,1 °C 21,1 °C 9,7 km/h (2 Bft)
25.08.2024 04:19 23,4 °C 21,2 °C 62 % 83 % 1009,8 hPa 0,0 l/m² 6,5 km/h (2 Bft) SW 223 ° 0 min 0 W/m² 18,2 °C 21,2 °C 11,3 km/h (2 Bft)
25.08.2024 04:20 23,5 °C 21,2 °C 62 % 83 % 1009,8 hPa 0,0 l/m² 6,7 km/h (2 Bft) S-SW 205 ° 0 min 0 W/m² 18,2 °C 21,1 °C 11,3 km/h (2 Bft)
25.08.2024 04:22 23,4 °C 21,2 °C 62 % 83 % 1009,8 hPa 0,0 l/m² 10,8 km/h (2 Bft) SW 215 ° 0 min 0 W/m² 18,2 °C 19,7 °C 16,1 km/h (3 Bft)
25.08.2024 04:23 23,4 °C 21,2 °C 62 % 83 % 1009,8 hPa 0,0 l/m² 10,7 km/h (2 Bft) SW 219 ° 0 min 0 W/m² 18,2 °C 19,8 °C 16,1 km/h (3 Bft)
25.08.2024 04:25 23,5 °C 21,2 °C 62 % 83 % 1009,8 hPa 0,0 l/m² 8,7 km/h (2 Bft) SW 215 ° 0 min 0 W/m² 18,2 °C 20,4 °C 12,9 km/h (3 Bft)
25.08.2024 04:27 23,4 °C 21,2 °C 62 % 83 % 1009,9 hPa 0,0 l/m² 9,5 km/h (2 Bft) SW 227 ° 0 min 0 W/m² 18,2 °C 20,1 °C 14,5 km/h (3 Bft)
25.08.2024 04:29 23,4 °C 21,2 °C 62 % 83 % 1009,9 hPa 0,0 l/m² 8,5 km/h (2 Bft) S-SW 203 ° 0 min 0 W/m² 18,2 °C 20,4 °C 14,5 km/h (3 Bft)
25.08.2024 04:30 23,4 °C 21,3 °C 62 % 83 % 1009,9 hPa 0,0 l/m² 9,0 km/h (2 Bft) SW 223 ° 0 min 0 W/m² 18,3 °C 20,4 °C 12,9 km/h (3 Bft)
25.08.2024 04:32 23,4 °C 21,3 °C 63 % 83 % 1009,9 hPa 0,0 l/m² 9,4 km/h (2 Bft) SW 221 ° 0 min 0 W/m² 18,3 °C 20,3 °C 17,7 km/h (3 Bft)
25.08.2024 04:33 23,4 °C 21,3 °C 63 % 83 % 1009,9 hPa 0,0 l/m² 4,2 km/h (1 Bft) SW 232 ° 0 min 0 W/m² 18,3 °C 21,3 °C 6,4 km/h (2 Bft)
25.08.2024 04:35 23,4 °C 21,3 °C 63 % 83 % 1010,0 hPa 0,0 l/m² 11,5 km/h (2 Bft) SW 217 ° 0 min 0 W/m² 18,3 °C 19,7 °C 16,1 km/h (3 Bft)
25.08.2024 04:37 23,4 °C 21,3 °C 63 % 83 % 1009,9 hPa 0,0 l/m² 8,4 km/h (2 Bft) W 273 ° 0 min 0 W/m² 18,3 °C 20,6 °C 12,9 km/h (3 Bft)
25.08.2024 04:39 23,4 °C 21,3 °C 63 % 83 % 1010,0 hPa 0,0 l/m² 10,6 km/h (2 Bft) SW 227 ° 0 min 0 W/m² 18,3 °C 19,9 °C 17,7 km/h (3 Bft)
25.08.2024 04:40 23,4 °C 21,3 °C 63 % 83 % 1010,0 hPa 0,0 l/m² 11,8 km/h (2 Bft) SW 231 ° 0 min 0 W/m² 18,3 °C 19,6 °C 16,1 km/h (3 Bft)
25.08.2024 04:42 23,4 °C 21,3 °C 63 % 83 % 1010,0 hPa 0,0 l/m² 7,7 km/h (2 Bft) W-SW 251 ° 0 min 0 W/m² 18,3 °C 20,8 °C 11,3 km/h (2 Bft)
25.08.2024 04:43 23,4 °C 21,3 °C 63 % 83 % 1010,1 hPa 0,0 l/m² 9,6 km/h (2 Bft) SW 234 ° 0 min 0 W/m² 18,3 °C 20,2 °C 12,9 km/h (3 Bft)
25.08.2024 04:45 23,4 °C 21,3 °C 63 % 83 % 1010,1 hPa 0,0 l/m² 8,3 km/h (2 Bft) SW 236 ° 0 min 0 W/m² 18,3 °C 20,6 °C 12,9 km/h (3 Bft)
25.08.2024 04:47 23,4 °C 21,3 °C 63 % 83 % 1010,2 hPa 0,0 l/m² 8,8 km/h (2 Bft) SW 232 ° 0 min 0 W/m² 18,3 °C 20,4 °C 12,9 km/h (3 Bft)
25.08.2024 04:49 23,4 °C 21,3 °C 63 % 83 % 1010,4 hPa 0,0 l/m² 7,4 km/h (2 Bft) SW 232 ° 0 min 0 W/m² 18,3 °C 20,9 °C 9,7 km/h (2 Bft)
25.08.2024 04:51 23,4 °C 21,3 °C 63 % 83 % 1010,5 hPa 0,0 l/m² 9,2 km/h (2 Bft) SW 232 ° 0 min 0 W/m² 18,3 °C 20,3 °C 16,1 km/h (3 Bft)
25.08.2024 04:52 23,4 °C 21,3 °C 63 % 84 % 1010,5 hPa 0,0 l/m² 9,9 km/h (2 Bft) W-SW 242 ° 0 min 0 W/m² 18,5 °C 20,1 °C 16,1 km/h (3 Bft)
25.08.2024 04:53 23,4 °C 21,3 °C 63 % 84 % 1010,5 hPa 0,0 l/m² 8,6 km/h (2 Bft) W-SW 248 ° 0 min 0 W/m² 18,5 °C 20,5 °C 11,3 km/h (2 Bft)
25.08.2024 04:55 23,4 °C 21,3 °C 63 % 84 % 1010,5 hPa 0,0 l/m² 6,8 km/h (2 Bft) SW 236 ° 0 min 0 W/m² 18,5 °C 21,2 °C 14,5 km/h (3 Bft)
25.08.2024 04:57 23,4 °C 21,3 °C 63 % 84 % 1010,5 hPa 0,0 l/m² 9,3 km/h (2 Bft) W-SW 249 ° 0 min 0 W/m² 18,5 °C 20,3 °C 17,7 km/h (3 Bft)
25.08.2024 04:59 23,4 °C 21,3 °C 63 % 84 % 1010,5 hPa 0,0 l/m² 7,3 km/h (2 Bft) W-SW 250 ° 0 min 0 W/m² 18,5 °C 21,0 °C 14,5 km/h (3 Bft)
25.08.2024 05:00 23,4 °C 21,3 °C 63 % 84 % 1010,5 hPa 0,0 l/m² 12,3 km/h (2 Bft) W-SW 257 ° 0 min 0 W/m² 18,5 °C 19,5 °C 17,7 km/h (3 Bft)
25.08.2024 05:01 23,4 °C 21,3 °C 63 % 84 % 1010,6 hPa 0,0 l/m² 9,2 km/h (2 Bft) W-SW 258 ° 0 min 0 W/m² 18,5 °C 20,3 °C 12,9 km/h (3 Bft)
25.08.2024 05:03 23,4 °C 21,3 °C 63 % 84 % 1010,6 hPa 0,0 l/m² 9,6 km/h (2 Bft) W-SW 242 ° 0 min 0 W/m² 18,5 °C 20,2 °C 14,5 km/h (3 Bft)
25.08.2024 05:05 23,4 °C 21,3 °C 63 % 84 % 1010,5 hPa 0,0 l/m² 10,4 km/h (2 Bft) W-SW 240 ° 0 min 0 W/m² 18,5 °C 20,0 °C 17,7 km/h (3 Bft)
25.08.2024 05:07 23,4 °C 21,3 °C 63 % 84 % 1010,6 hPa 0,0 l/m² 8,9 km/h (2 Bft) W-SW 240 ° 0 min 0 W/m² 18,5 °C 20,4 °C 16,1 km/h (3 Bft)
25.08.2024 05:09 23,4 °C 21,3 °C 63 % 84 % 1010,5 hPa 0,0 l/m² 7,8 km/h (2 Bft) W-SW 245 ° 0 min 0 W/m² 18,5 °C 20,8 °C 14,5 km/h (3 Bft)
25.08.2024 05:11 23,4 °C 21,3 °C 63 % 84 % 1010,4 hPa 0,0 l/m² 9,0 km/h (2 Bft) W-SW 244 ° 0 min 0 W/m² 18,5 °C 20,4 °C 17,7 km/h (3 Bft)
25.08.2024 05:12 23,4 °C 21,3 °C 63 % 84 % 1010,5 hPa 0,0 l/m² 4,2 km/h (1 Bft) W 275 ° 0 min 0 W/m² 18,5 °C 21,3 °C 11,3 km/h (2 Bft)
25.08.2024 05:13 23,4 °C 21,3 °C 63 % 84 % 1010,5 hPa 0,0 l/m² 7,1 km/h (2 Bft) W-SW 247 ° 0 min 0 W/m² 18,5 °C 21,0 °C 11,3 km/h (2 Bft)
25.08.2024 05:15 23,4 °C 21,3 °C 63 % 84 % 1010,6 hPa 0,0 l/m² 4,0 km/h (1 Bft) SW 233 ° 0 min 0 W/m² 18,5 °C 21,3 °C 11,3 km/h (2 Bft)
25.08.2024 05:17 23,4 °C 21,3 °C 63 % 84 % 1010,6 hPa 0,0 l/m² 6,7 km/h (2 Bft) W 263 ° 0 min 0 W/m² 18,5 °C 21,2 °C 12,9 km/h (3 Bft)
25.08.2024 05:19 23,4 °C 21,3 °C 63 % 84 % 1010,5 hPa 0,0 l/m² 5,4 km/h (2 Bft) W-SW 257 ° 0 min 0 W/m² 18,5 °C 21,3 °C 12,9 km/h (3 Bft)
25.08.2024 05:20 23,4 °C 21,3 °C 63 % 84 % 1010,5 hPa 0,0 l/m² 5,7 km/h (2 Bft) W-SW 248 ° 0 min 0 W/m² 18,5 °C 21,3 °C 9,7 km/h (2 Bft)
25.08.2024 05:21 23,4 °C 21,3 °C 63 % 84 % 1010,6 hPa 0,0 l/m² 11,1 km/h (2 Bft) W-SW 248 ° 0 min 0 W/m² 18,5 °C 19,8 °C 16,1 km/h (3 Bft)
25.08.2024 05:22 23,4 °C 21,3 °C 63 % 84 % 1010,6 hPa 0,0 l/m² 8,5 km/h (2 Bft) W 264 ° 0 min 0 W/m² 18,5 °C 20,5 °C 14,5 km/h (3 Bft)
25.08.2024 05:24 23,4 °C 21,3 °C 63 % 84 % 1010,6 hPa 0,0 l/m² 6,9 km/h (2 Bft) W 260 ° 0 min 0 W/m² 18,5 °C 21,1 °C 14,5 km/h (3 Bft)
25.08.2024 05:26 23,4 °C 21,4 °C 63 % 84 % 1010,7 hPa 0,0 l/m² 5,0 km/h (1 Bft) W 266 ° 0 min 0 W/m² 18,6 °C 21,4 °C 11,3 km/h (2 Bft)
25.08.2024 05:28 23,4 °C 21,4 °C 63 % 84 % 1010,8 hPa 0,0 l/m² 4,6 km/h (1 Bft) W-SW 257 ° 0 min 0 W/m² 18,6 °C 21,4 °C 9,7 km/h (2 Bft)
25.08.2024 05:30 23,4 °C 21,4 °C 63 % 84 % 1010,8 hPa 0,0 l/m² 6,5 km/h (2 Bft) W-NW 286 ° 0 min 0 W/m² 18,6 °C 21,4 °C 12,9 km/h (3 Bft)
25.08.2024 05:31 23,4 °C 21,3 °C 63 % 84 % 1010,8 hPa 0,0 l/m² 4,0 km/h (1 Bft) W-NW 289 ° 0 min 0 W/m² 18,5 °C 21,3 °C 6,4 km/h (2 Bft)
25.08.2024 05:32 23,4 °C 21,4 °C 63 % 84 % 1010,9 hPa 0,0 l/m² 2,7 km/h (1 Bft) W-NW 292 ° 0 min 0 W/m² 18,6 °C 21,4 °C 6,4 km/h (2 Bft)
25.08.2024 05:34 23,4 °C 21,3 °C 63 % 84 % 1010,9 hPa 0,0 l/m² 2,2 km/h (1 Bft) W 274 ° 0 min 0 W/m² 18,5 °C 21,3 °C 6,4 km/h (2 Bft)
25.08.2024 05:36 23,4 °C 21,3 °C 63 % 84 % 1011,0 hPa 0,0 l/m² 2,0 km/h (1 Bft) W 274 ° 0 min 0 W/m² 18,5 °C 21,3 °C 4,8 km/h (1 Bft)
25.08.2024 05:38 23,4 °C 21,3 °C 63 % 84 % 1011,0 hPa 0,0 l/m² 4,0 km/h (1 Bft) W-NW 282 ° 0 min 0 W/m² 18,5 °C 21,3 °C 6,4 km/h (2 Bft)
25.08.2024 05:40 23,4 °C 21,4 °C 63 % 84 % 1011,0 hPa 0,0 l/m² 2,2 km/h (1 Bft) W-NW 284 ° 0 min 0 W/m² 18,6 °C 21,4 °C 4,8 km/h (1 Bft)
25.08.2024 05:41 23,4 °C 21,4 °C 63 % 84 % 1011,1 hPa 0,0 l/m² 0,5 km/h (0 Bft) W-NW 284 ° 0 min 0 W/m² 18,6 °C 21,4 °C 1,6 km/h (1 Bft)
25.08.2024 05:42 23,4 °C 21,3 °C 63 % 84 % 1011,3 hPa 0,0 l/m² 1,5 km/h (1 Bft) W-NW 288 ° 0 min 0 W/m² 18,5 °C 21,3 °C 4,8 km/h (1 Bft)
25.08.2024 05:43 23,4 °C 21,3 °C 63 % 84 % 1011,4 hPa 0,0 l/m² 1,6 km/h (1 Bft) W-NW 287 ° 0 min 0 W/m² 18,5 °C 21,3 °C 4,8 km/h (1 Bft)
25.08.2024 05:45 23,4 °C 21,4 °C 63 % 84 % 1011,6 hPa 0,0 l/m² 3,3 km/h (1 Bft) W-SW 244 ° 0 min 0 W/m² 18,6 °C 21,4 °C 4,8 km/h (1 Bft)
25.08.2024 05:46 23,4 °C 21,4 °C 63 % 84 % 1011,6 hPa 0,0 l/m² 5,5 km/h (2 Bft) W-SW 244 ° 0 min 0 W/m² 18,6 °C 21,4 °C 6,4 km/h (2 Bft)
25.08.2024 05:48 23,4 °C 21,3 °C 63 % 84 % 1011,6 hPa 0,0 l/m² 2,7 km/h (1 Bft) W-SW 247 ° 0 min 0 W/m² 18,5 °C 21,3 °C 6,4 km/h (2 Bft)
25.08.2024 05:50 23,4 °C 21,3 °C 63 % 84 % 1011,6 hPa 0,0 l/m² 0,7 km/h (0 Bft) W-SW 248 ° 0 min 0 W/m² 18,5 °C 21,3 °C 3,2 km/h (1 Bft)
25.08.2024 05:51 23,4 °C 21,3 °C 63 % 84 % 1011,6 hPa 0,0 l/m² 1,4 km/h (1 Bft) W-SW 248 ° 0 min 0 W/m² 18,5 °C 21,3 °C 3,2 km/h (1 Bft)
25.08.2024 05:53 23,4 °C 21,3 °C 63 % 84 % 1011,7 hPa 0,0 l/m² 4,0 km/h (1 Bft) W 274 ° 0 min 0 W/m² 18,5 °C 21,3 °C 9,7 km/h (2 Bft)
25.08.2024 05:54 23,4 °C 21,3 °C 63 % 84 % 1011,7 hPa 0,0 l/m² 5,0 km/h (1 Bft) W-SW 257 ° 0 min 0 W/m² 18,5 °C 21,3 °C 6,4 km/h (2 Bft)
25.08.2024 05:56 23,4 °C 21,4 °C 63 % 84 % 1011,8 hPa 0,0 l/m² 4,8 km/h (1 Bft) W-SW 252 ° 0 min 0 W/m² 18,6 °C 21,4 °C 11,3 km/h (2 Bft)
25.08.2024 05:58 23,4 °C 21,4 °C 63 % 84 % 1012,0 hPa 0,0 l/m² 7,1 km/h (2 Bft) W 260 ° 0 min 0 W/m² 18,6 °C 21,1 °C 16,1 km/h (3 Bft)
25.08.2024 06:00 23,4 °C 21,4 °C 63 % 84 % 1012,1 hPa 0,0 l/m² 10,5 km/h (2 Bft) W-SW 240 ° 0 min 0 W/m² 18,6 °C 20,0 °C 16,1 km/h (3 Bft)
25.08.2024 06:01 23,4 °C 21,4 °C 63 % 84 % 1012,1 hPa 0,0 l/m² 8,5 km/h (2 Bft) W-SW 250 ° 0 min 0 W/m² 18,6 °C 20,7 °C 14,5 km/h (3 Bft)
25.08.2024 06:03 23,4 °C 21,4 °C 63 % 84 % 1012,1 hPa 0,0 l/m² 7,4 km/h (2 Bft) W 262 ° 0 min 0 W/m² 18,6 °C 21,0 °C 14,5 km/h (3 Bft)
25.08.2024 06:04 23,4 °C 21,4 °C 63 % 84 % 1012,1 hPa 0,0 l/m² 8,4 km/h (2 Bft) W 270 ° 0 min 0 W/m² 18,6 °C 20,7 °C 14,5 km/h (3 Bft)
25.08.2024 06:06 23,4 °C 21,4 °C 63 % 84 % 1012,5 hPa 0,0 l/m² 6,5 km/h (2 Bft) W 263 ° 0 min 0 W/m² 18,6 °C 21,4 °C 12,9 km/h (3 Bft)
25.08.2024 06:08 23,4 °C 21,4 °C 63 % 84 % 1012,4 hPa 0,0 l/m² 10,3 km/h (2 Bft) W-SW 253 ° 0 min 0 W/m² 18,6 °C 20,1 °C 16,1 km/h (3 Bft)
25.08.2024 06:10 23,4 °C 21,4 °C 63 % 84 % 1012,4 hPa 0,0 l/m² 7,8 km/h (2 Bft) W-SW 252 ° 0 min 0 W/m² 18,6 °C 20,9 °C 12,9 km/h (3 Bft)
25.08.2024 06:11 23,4 °C 21,4 °C 63 % 84 % 1012,5 hPa 0,0 l/m² 7,6 km/h (2 Bft) W-NW 284 ° 0 min 0 W/m² 18,6 °C 21,0 °C 11,3 km/h (2 Bft)
25.08.2024 06:13 23,4 °C 21,4 °C 63 % 84 % 1012,5 hPa 0,0 l/m² 9,4 km/h (2 Bft) W 261 ° 0 min 0 W/m² 18,6 °C 20,4 °C 12,9 km/h (3 Bft)
25.08.2024 06:14 23,4 °C 21,3 °C 63 % 84 % 1012,4 hPa 0,0 l/m² 8,8 km/h (2 Bft) W-SW 246 ° 0 min 0 W/m² 18,5 °C 20,4 °C 12,9 km/h (3 Bft)
25.08.2024 06:16 23,4 °C 21,3 °C 63 % 84 % 1012,6 hPa 0,0 l/m² 10,4 km/h (2 Bft) W-SW 244 ° 0 min 0 W/m² 18,5 °C 20,0 °C 17,7 km/h (3 Bft)
25.08.2024 06:18 23,4 °C 21,2 °C 64 % 84 % 1012,6 hPa 0,0 l/m² 11,9 km/h (2 Bft) W-SW 240 ° 0 min 0 W/m² 18,4 °C 19,4 °C 17,7 km/h (3 Bft)
25.08.2024 06:20 23,4 °C 21,2 °C 64 % 83 % 1012,7 hPa 0,0 l/m² 10,2 km/h (2 Bft) W-SW 248 ° 0 min 0 W/m² 18,2 °C 19,9 °C 20,9 km/h (4 Bft)
25.08.2024 06:21 23,4 °C 21,2 °C 64 % 82 % 1012,7 hPa 0,0 l/m² 9,2 km/h (2 Bft) W 261 ° 0 min 0 W/m² 18,0 °C 20,2 °C 17,7 km/h (3 Bft)
25.08.2024 06:23 23,4 °C 21,2 °C 64 % 82 % 1012,8 hPa 0,0 l/m² 11,9 km/h (2 Bft) W-SW 240 ° 0 min 0 W/m² 18,0 °C 19,4 °C 19,3 km/h (3 Bft)
25.08.2024 06:24 23,4 °C 21,2 °C 64 % 82 % 1012,8 hPa 0,0 l/m² 14,4 km/h (3 Bft) W-SW 252 ° 0 min 0 W/m² 18,0 °C 18,8 °C 19,3 km/h (3 Bft)
25.08.2024 06:26 23,4 °C 21,2 °C 64 % 81 % 1012,8 hPa 0,0 l/m² 16,5 km/h (3 Bft) W-SW 240 ° 0 min 0 W/m² 17,8 °C 18,4 °C 25,7 km/h (4 Bft)
25.08.2024 06:28 23,4 °C 21,2 °C 63 % 80 % 1012,9 hPa 0,0 l/m² 15,7 km/h (3 Bft) SW 221 ° 0 min 0 W/m² 17,6 °C 18,6 °C 24,1 km/h (4 Bft)
25.08.2024 06:30 23,4 °C 21,2 °C 63 % 80 % 1013,0 hPa 0,0 l/m² 17,5 km/h (3 Bft) W-SW 248 ° 0 min 0 W/m² 17,6 °C 18,2 °C 27,4 km/h (5 Bft)
25.08.2024 06:31 23,4 °C 21,2 °C 63 % 79 % 1013,1 hPa 0,0 l/m² 16,4 km/h (3 Bft) W-SW 254 ° 0 min 0 W/m² 17,4 °C 18,4 °C 22,5 km/h (4 Bft)
25.08.2024 06:33 23,4 °C 21,2 °C 63 % 79 % 1013,1 hPa 0,0 l/m² 15,2 km/h (3 Bft) W-SW 250 ° 0 min 0 W/m² 17,4 °C 18,7 °C 27,4 km/h (5 Bft)
25.08.2024 06:35 23,4 °C 21,2 °C 63 % 79 % 1013,1 hPa 0,0 l/m² 14,8 km/h (3 Bft) W-NW 297 ° 0 min 0 W/m² 17,4 °C 18,7 °C 20,9 km/h (4 Bft)
25.08.2024 06:37 23,4 °C 21,2 °C 63 % 79 % 1013,0 hPa 0,0 l/m² 13,7 km/h (3 Bft) W-SW 257 ° 0 min 0 W/m² 17,4 °C 19,0 °C 20,9 km/h (4 Bft)
25.08.2024 06:39 23,4 °C 21,2 °C 63 % 79 % 1013,1 hPa 0,0 l/m² 15,6 km/h (3 Bft) W-SW 257 ° 0 min 0 W/m² 17,4 °C 18,6 °C 22,5 km/h (4 Bft)
25.08.2024 06:41 23,3 °C 21,2 °C 63 % 79 % 1013,1 hPa 0,0 l/m² 13,9 km/h (3 Bft) W-SW 239 ° 0 min 0 W/m² 17,4 °C 18,9 °C 22,5 km/h (4 Bft)
25.08.2024 06:42 23,4 °C 21,2 °C 63 % 79 % 1013,2 hPa 0,0 l/m² 17,0 km/h (3 Bft) W-SW 242 ° 0 min 0 W/m² 17,4 °C 18,3 °C 22,5 km/h (4 Bft)
25.08.2024 06:43 23,4 °C 21,2 °C 63 % 78 % 1013,2 hPa 0,0 l/m² 15,6 km/h (3 Bft) W-SW 246 ° 0 min 0 W/m² 17,2 °C 18,6 °C 24,1 km/h (4 Bft)
25.08.2024 06:45 23,4 °C 21,2 °C 63 % 79 % 1013,2 hPa 0,0 l/m² 15,0 km/h (3 Bft) SW 236 ° 0 min 0 W/m² 17,4 °C 18,7 °C 20,9 km/h (4 Bft)
25.08.2024 06:47 23,3 °C 21,1 °C 63 % 79 % 1013,3 hPa 0,0 l/m² 13,9 km/h (3 Bft) W-SW 254 ° 0 min 0 W/m² 17,3 °C 18,8 °C 20,9 km/h (4 Bft)
25.08.2024 06:48 23,3 °C 21,2 °C 63 % 79 % 1013,3 hPa 0,0 l/m² 12,5 km/h (2 Bft) W 259 ° 0 min 0 W/m² 17,4 °C 19,3 °C 17,7 km/h (3 Bft)
25.08.2024 06:50 23,3 °C 21,1 °C 63 % 79 % 1013,3 hPa 0,0 l/m² 13,1 km/h (3 Bft) W 261 ° 0 min 0 W/m² 17,3 °C 19,0 °C 17,7 km/h (3 Bft)
25.08.2024 06:51 23,3 °C 21,1 °C 63 % 79 % 1013,5 hPa 0,0 l/m² 13,8 km/h (3 Bft) W-SW 251 ° 0 min 0 W/m² 17,3 °C 18,9 °C 19,3 km/h (3 Bft)
25.08.2024 06:53 23,3 °C 21,1 °C 63 % 79 % 1013,5 hPa 0,0 l/m² 13,1 km/h (3 Bft) W-SW 254 ° 0 min 0 W/m² 17,3 °C 19,0 °C 19,3 km/h (3 Bft)
25.08.2024 06:55 23,3 °C 21,1 °C 63 % 79 % 1013,5 hPa 0,0 l/m² 9,4 km/h (2 Bft) SW 234 ° 0 min 0 W/m² 17,3 °C 20,0 °C 17,7 km/h (3 Bft)
25.08.2024 06:57 23,3 °C 21,1 °C 63 % 79 % 1013,7 hPa 0,0 l/m² 10,6 km/h (2 Bft) W-SW 245 ° 0 min 0 W/m² 17,3 °C 19,7 °C 19,3 km/h (3 Bft)
25.08.2024 06:59 23,3 °C 21,1 °C 63 % 78 % 1013,7 hPa 0,0 l/m² 15,2 km/h (3 Bft) W-SW 250 ° 0 min 0 W/m² 17,1 °C 18,5 °C 22,5 km/h (4 Bft)
25.08.2024 07:01 23,3 °C 21,1 °C 63 % 78 % 1013,7 hPa 0,0 l/m² 12,8 km/h (3 Bft) W 267 ° 0 min 0 W/m² 17,1 °C 19,1 °C 19,3 km/h (3 Bft)
25.08.2024 07:02 23,3 °C 21,1 °C 63 % 78 % 1013,9 hPa 0,0 l/m² 14,7 km/h (3 Bft) SW 232 ° 0 min 0 W/m² 17,1 °C 18,6 °C 20,9 km/h (4 Bft)
25.08.2024 07:03 23,3 °C 21,0 °C 63 % 78 % 1013,9 hPa 0,0 l/m² 16,6 km/h (3 Bft) SW 236 ° 0 min 5 W/m² 17,0 °C 18,1 °C 20,9 km/h (4 Bft)
25.08.2024 07:06 23,3 °C 20,9 °C 62 % 78 % 1013,9 hPa 0,0 l/m² 13,3 km/h (3 Bft) W-SW 255 ° 0 min 5 W/m² 16,9 °C 18,7 °C 24,1 km/h (4 Bft)
25.08.2024 07:08 23,3 °C 20,9 °C 62 % 77 % 1014,0 hPa 0,0 l/m² 17,0 km/h (3 Bft) W 267 ° 0 min 5 W/m² 16,7 °C 17,9 °C 25,7 km/h (4 Bft)
25.08.2024 07:10 23,3 °C 20,9 °C 62 % 77 % 1014,0 hPa 0,0 l/m² 15,9 km/h (3 Bft) W 265 ° 0 min 5 W/m² 16,7 °C 18,1 °C 22,5 km/h (4 Bft)
25.08.2024 07:11 23,3 °C 20,9 °C 62 % 77 % 1014,0 hPa 0,0 l/m² 11,4 km/h (2 Bft) W-SW 250 ° 0 min 5 W/m² 16,7 °C 19,2 °C 17,7 km/h (3 Bft)
25.08.2024 07:13 23,3 °C 20,9 °C 62 % 77 % 1014,0 hPa 0,0 l/m² 12,4 km/h (2 Bft) W-NW 294 ° 0 min 5 W/m² 16,7 °C 19,0 °C 20,9 km/h (4 Bft)
25.08.2024 07:14 23,3 °C 20,9 °C 62 % 76 % 1014,1 hPa 0,0 l/m² 15,8 km/h (3 Bft) W-SW 258 ° 0 min 5 W/m² 16,5 °C 18,2 °C 24,1 km/h (4 Bft)
25.08.2024 07:16 23,3 °C 20,9 °C 62 % 76 % 1014,0 hPa 0,0 l/m² 15,5 km/h (3 Bft) W-SW 257 ° 0 min 7 W/m² 16,5 °C 18,2 °C 24,1 km/h (4 Bft)
25.08.2024 07:18 23,3 °C 20,9 °C 62 % 76 % 1014,1 hPa 0,0 l/m² 14,8 km/h (3 Bft) W-SW 254 ° 0 min 7 W/m² 16,5 °C 18,4 °C 20,9 km/h (4 Bft)
25.08.2024 07:20 23,3 °C 20,8 °C 62 % 76 % 1014,2 hPa 0,0 l/m² 16,0 km/h (3 Bft) W 271 ° 0 min 9 W/m² 16,4 °C 18,0 °C 20,9 km/h (4 Bft)
25.08.2024 07:21 23,3 °C 20,8 °C 62 % 76 % 1014,4 hPa 0,0 l/m² 13,4 km/h (3 Bft) W 261 ° 0 min 9 W/m² 16,4 °C 18,6 °C 19,3 km/h (3 Bft)
25.08.2024 07:23 23,3 °C 20,8 °C 62 % 76 % 1014,3 hPa 0,0 l/m² 13,9 km/h (3 Bft) W-SW 252 ° 0 min 7 W/m² 16,4 °C 18,5 °C 17,7 km/h (3 Bft)
25.08.2024 07:25 23,3 °C 20,8 °C 62 % 77 % 1014,4 hPa 0,0 l/m² 12,7 km/h (3 Bft) SW 232 ° 0 min 9 W/m² 16,6 °C 18,8 °C 19,3 km/h (3 Bft)
25.08.2024 07:27 23,3 °C 20,8 °C 62 % 77 % 1014,5 hPa 0,0 l/m² 13,7 km/h (3 Bft) W-NW 295 ° 0 min 9 W/m² 16,6 °C 18,5 °C 19,3 km/h (3 Bft)
25.08.2024 07:29 23,3 °C 20,8 °C 62 % 78 % 1014,4 hPa 0,0 l/m² 10,9 km/h (2 Bft) W-SW 243 ° 0 min 11 W/m² 16,8 °C 19,3 °C 14,5 km/h (3 Bft)
25.08.2024 07:31 23,3 °C 20,7 °C 62 % 78 % 1014,5 hPa 0,0 l/m² 11,6 km/h (2 Bft) W-SW 248 ° 0 min 11 W/m² 16,7 °C 18,9 °C 19,3 km/h (3 Bft)
25.08.2024 07:32 23,3 °C 20,7 °C 62 % 78 % 1014,5 hPa 0,0 l/m² 9,4 km/h (2 Bft) W-SW 248 ° 0 min 12 W/m² 16,7 °C 19,6 °C 14,5 km/h (3 Bft)
25.08.2024 07:33 23,3 °C 20,7 °C 62 % 78 % 1014,5 hPa 0,0 l/m² 7,2 km/h (2 Bft) W-SW 248 ° 0 min 12 W/m² 16,7 °C 20,4 °C 11,3 km/h (2 Bft)
25.08.2024 07:34 23,3 °C 20,7 °C 62 % 78 % 1014,6 hPa 0,0 l/m² 15,0 km/h (3 Bft) SW 236 ° 0 min 12 W/m² 16,7 °C 18,1 °C 19,3 km/h (3 Bft)
25.08.2024 07:35 23,3 °C 20,7 °C 62 % 78 % 1014,5 hPa 0,0 l/m² 12,5 km/h (2 Bft) W-SW 248 ° 0 min 12 W/m² 16,7 °C 18,7 °C 16,1 km/h (3 Bft)
25.08.2024 07:37 23,3 °C 20,7 °C 62 % 78 % 1014,5 hPa 0,0 l/m² 12,3 km/h (2 Bft) W-SW 252 ° 0 min 11 W/m² 16,7 °C 18,8 °C 17,7 km/h (3 Bft)
25.08.2024 07:39 23,3 °C 20,7 °C 62 % 78 % 1014,6 hPa 0,0 l/m² 10,2 km/h (2 Bft) W-NW 290 ° 0 min 7 W/m² 16,7 °C 19,4 °C 22,5 km/h (4 Bft)
25.08.2024 07:41 23,3 °C 20,7 °C 62 % 78 % 1014,8 hPa 0,0 l/m² 10,5 km/h (2 Bft) W 279 ° 0 min 9 W/m² 16,7 °C 19,3 °C 17,7 km/h (3 Bft)
25.08.2024 07:42 23,3 °C 20,7 °C 62 % 78 % 1014,8 hPa 0,0 l/m² 11,2 km/h (2 Bft) W 271 ° 0 min 11 W/m² 16,7 °C 19,1 °C 16,1 km/h (3 Bft)
25.08.2024 07:43 23,3 °C 20,7 °C 62 % 78 % 1014,8 hPa 0,0 l/m² 13,8 km/h (3 Bft) W 260 ° 0 min 11 W/m² 16,7 °C 18,4 °C 25,7 km/h (4 Bft)
25.08.2024 07:45 23,3 °C 20,6 °C 62 % 77 % 1014,8 hPa 0,0 l/m² 14,8 km/h (3 Bft) W-SW 254 ° 0 min 9 W/m² 16,4 °C 18,0 °C 25,7 km/h (4 Bft)
25.08.2024 07:47 23,3 °C 20,5 °C 62 % 76 % 1014,7 hPa 0,0 l/m² 16,9 km/h (3 Bft) SW 232 ° 0 min 11 W/m² 16,1 °C 17,4 °C 24,1 km/h (4 Bft)
25.08.2024 07:49 23,3 °C 20,4 °C 62 % 75 % 1014,7 hPa 0,0 l/m² 16,5 km/h (3 Bft) W-SW 244 ° 0 min 19 W/m² 15,8 °C 17,4 °C 29,0 km/h (5 Bft)
25.08.2024 07:51 23,3 °C 20,3 °C 62 % 74 % 1014,6 hPa 0,0 l/m² 16,0 km/h (3 Bft) W 266 ° 0 min 25 W/m² 15,5 °C 17,4 °C 24,1 km/h (4 Bft)
25.08.2024 07:52 23,3 °C 20,2 °C 62 % 73 % 1014,8 hPa 0,0 l/m² 14,3 km/h (3 Bft) W-SW 254 ° 0 min 25 W/m² 15,2 °C 17,7 °C 27,4 km/h (5 Bft)
25.08.2024 07:53 23,3 °C 20,2 °C 62 % 73 % 1014,9 hPa 0,0 l/m² 12,7 km/h (3 Bft) SW 235 ° 0 min 21 W/m² 15,2 °C 18,1 °C 25,7 km/h (4 Bft)
25.08.2024 07:55 23,3 °C 20,2 °C 61 % 73 % 1015,0 hPa 0,0 l/m² 18,0 km/h (3 Bft) W-SW 249 ° 0 min 14 W/m² 15,2 °C 16,8 °C 30,6 km/h (5 Bft)
25.08.2024 07:57 23,3 °C 20,1 °C 61 % 73 % 1014,9 hPa 0,0 l/m² 19,8 km/h (3 Bft) W-SW 244 ° 0 min 12 W/m² 15,1 °C 16,4 °C 25,7 km/h (4 Bft)
25.08.2024 07:59 23,3 °C 20,1 °C 60 % 73 % 1015,1 hPa 0,0 l/m² 18,4 km/h (3 Bft) W-SW 239 ° 0 min 9 W/m² 15,1 °C 16,6 °C 27,4 km/h (5 Bft)
25.08.2024 08:01 23,3 °C 20,1 °C 60 % 74 % 1015,3 hPa 0,0 l/m² 16,6 km/h (3 Bft) W 263 ° 0 min 12 W/m² 15,3 °C 17,0 °C 22,5 km/h (4 Bft)
25.08.2024 08:02 23,3 °C 20,0 °C 60 % 74 % 1015,2 hPa 0,0 l/m² 14,5 km/h (3 Bft) W-SW 254 ° 0 min 14 W/m² 15,2 °C 17,4 °C 22,5 km/h (4 Bft)
25.08.2024 08:03 23,2 °C 19,9 °C 59 % 74 % 1015,3 hPa 0,0 l/m² 17,5 km/h (3 Bft) W 264 ° 0 min 14 W/m² 15,1 °C 16,6 °C 22,5 km/h (4 Bft)
25.08.2024 08:05 23,2 °C 19,9 °C 60 % 74 % 1015,4 hPa 0,0 l/m² 18,0 km/h (3 Bft) W-SW 239 ° 0 min 14 W/m² 15,1 °C 16,5 °C 24,1 km/h (4 Bft)
25.08.2024 08:07 23,2 °C 19,9 °C 59 % 73 % 1015,3 hPa 0,0 l/m² 13,9 km/h (3 Bft) W-SW 238 ° 0 min 19 W/m² 14,9 °C 17,4 °C 24,1 km/h (4 Bft)
25.08.2024 08:09 23,2 °C 19,9 °C 59 % 74 % 1015,5 hPa 0,0 l/m² 13,0 km/h (3 Bft) W 277 ° 0 min 18 W/m² 15,1 °C 17,6 °C 20,9 km/h (4 Bft)
25.08.2024 08:11 23,2 °C 19,9 °C 59 % 74 % 1015,5 hPa 0,0 l/m² 11,0 km/h (2 Bft) W-SW 247 ° 0 min 21 W/m² 15,1 °C 18,2 °C 20,9 km/h (4 Bft)
25.08.2024 08:12 23,2 °C 19,9 °C 59 % 74 % 1015,6 hPa 0,0 l/m² 12,2 km/h (2 Bft) W 274 ° 0 min 21 W/m² 15,1 °C 17,9 °C 20,9 km/h (4 Bft)
25.08.2024 08:13 23,2 °C 19,9 °C 59 % 74 % 1015,6 hPa 0,0 l/m² 12,1 km/h (2 Bft) W-SW 252 ° 0 min 19 W/m² 15,1 °C 17,9 °C 17,7 km/h (3 Bft)
25.08.2024 08:15 23,2 °C 19,9 °C 59 % 74 % 1015,7 hPa 0,0 l/m² 10,8 km/h (2 Bft) W-SW 250 ° 0 min 21 W/m² 15,1 °C 18,3 °C 20,9 km/h (4 Bft)
25.08.2024 08:17 23,2 °C 19,9 °C 59 % 74 % 1015,7 hPa 0,0 l/m² 11,8 km/h (2 Bft) W 267 ° 0 min 26 W/m² 15,1 °C 18,0 °C 19,3 km/h (3 Bft)
25.08.2024 08:19 23,2 °C 19,9 °C 59 % 74 % 1015,7 hPa 0,0 l/m² 12,3 km/h (2 Bft) W 267 ° 0 min 46 W/m² 15,1 °C 17,8 °C 20,9 km/h (4 Bft)
25.08.2024 08:21 23,2 °C 19,9 °C 59 % 73 % 1015,8 hPa 0,0 l/m² 14,1 km/h (3 Bft) W-SW 250 ° 0 min 46 W/m² 14,9 °C 17,3 °C 30,6 km/h (5 Bft)
25.08.2024 08:22 23,2 °C 19,8 °C 59 % 71 % 1015,8 hPa 0,0 l/m² 15,9 km/h (3 Bft) W 273 ° 0 min 47 W/m² 14,4 °C 16,8 °C 22,5 km/h (4 Bft)
25.08.2024 08:23 23,2 °C 19,8 °C 59 % 70 % 1015,8 hPa 0,0 l/m² 17,4 km/h (3 Bft) W-SW 242 ° 0 min 49 W/m² 14,2 °C 16,5 °C 25,7 km/h (4 Bft)
25.08.2024 08:25 23,1 °C 19,8 °C 59 % 69 % 1015,7 hPa 0,0 l/m² 16,9 km/h (3 Bft) W-NW 296 ° 2 min 58 W/m² 13,9 °C 16,6 °C 25,7 km/h (4 Bft)
25.08.2024 08:26 23,1 °C 19,8 °C 58 % 69 % 1015,8 hPa 0,0 l/m² 20,1 km/h (4 Bft) W 275 ° 1 min 58 W/m² 13,9 °C 15,9 °C 29,0 km/h (5 Bft)
25.08.2024 08:27 23,2 °C 19,7 °C 58 % 68 % 1015,8 hPa 0,0 l/m² 19,6 km/h (3 Bft) W-SW 254 ° 1 min 60 W/m² 13,6 °C 15,9 °C 27,4 km/h (5 Bft)
25.08.2024 08:28 23,2 °C 19,7 °C 58 % 68 % 1015,9 hPa 0,0 l/m² 19,9 km/h (4 Bft) W-NW 289 ° 1 min 62 W/m² 13,6 °C 15,8 °C 32,2 km/h (5 Bft)
25.08.2024 08:29 23,2 °C 19,7 °C 58 % 67 % 1015,8 hPa 0,0 l/m² 20,7 km/h (4 Bft) W-SW 248 ° 1 min 60 W/m² 13,4 °C 15,7 °C 32,2 km/h (5 Bft)
25.08.2024 08:30 23,1 °C 19,7 °C 58 % 67 % 1015,8 hPa 0,0 l/m² 18,1 km/h (3 Bft) SW 236 ° 1 min 56 W/m² 13,4 °C 16,2 °C 33,8 km/h (5 Bft)
25.08.2024 08:32 23,2 °C 19,7 °C 58 % 68 % 1016,0 hPa 0,0 l/m² 17,9 km/h (3 Bft) W-SW 254 ° 2 min 54 W/m² 13,6 °C 16,2 °C 29,0 km/h (5 Bft)
25.08.2024 08:33 23,2 °C 19,7 °C 58 % 68 % 1016,0 hPa 0,0 l/m² 16,8 km/h (3 Bft) W-SW 245 ° 1 min 54 W/m² 13,6 °C 16,5 °C 25,7 km/h (4 Bft)
25.08.2024 08:34 23,2 °C 19,7 °C 58 % 68 % 1016,0 hPa 0,0 l/m² 12,3 km/h (2 Bft) W 264 ° 1 min 54 W/m² 13,6 °C 17,6 °C 20,9 km/h (4 Bft)
25.08.2024 08:35 23,1 °C 19,7 °C 58 % 69 % 1016,0 hPa 0,0 l/m² 19,5 km/h (3 Bft) SW 222 ° 1 min 54 W/m² 13,8 °C 15,9 °C 27,4 km/h (5 Bft)
25.08.2024 08:36 23,1 °C 19,7 °C 58 % 68 % 1016,0 hPa 0,0 l/m² 17,5 km/h (3 Bft) W 260 ° 1 min 54 W/m² 13,6 °C 16,3 °C 24,1 km/h (4 Bft)
25.08.2024 08:37 23,2 °C 19,6 °C 58 % 68 % 1016,1 hPa 0,0 l/m² 21,5 km/h (4 Bft) W 264 ° 1 min 54 W/m² 13,5 °C 15,4 °C 29,0 km/h (5 Bft)
25.08.2024 08:38 23,2 °C 19,6 °C 58 % 68 % 1016,2 hPa 0,0 l/m² 17,4 km/h (3 Bft) W-SW 251 ° 1 min 53 W/m² 13,5 °C 16,2 °C 25,7 km/h (4 Bft)
25.08.2024 08:39 23,2 °C 19,6 °C 58 % 69 % 1016,1 hPa 0,0 l/m² 21,2 km/h (4 Bft) W 259 ° 0 min 51 W/m² 13,8 °C 15,5 °C 27,4 km/h (5 Bft)
25.08.2024 08:41 23,2 °C 19,6 °C 58 % 69 % 1016,1 hPa 0,0 l/m² 16,0 km/h (3 Bft) W 261 ° 0 min 47 W/m² 13,8 °C 16,5 °C 25,7 km/h (4 Bft)
25.08.2024 08:43 23,2 °C 19,6 °C 58 % 69 % 1016,1 hPa 0,0 l/m² 15,4 km/h (3 Bft) W-SW 245 ° 0 min 46 W/m² 13,8 °C 16,7 °C 24,1 km/h (4 Bft)
25.08.2024 08:44 23,2 °C 19,6 °C 59 % 69 % 1016,2 hPa 0,0 l/m² 15,5 km/h (3 Bft) W-SW 242 ° 0 min 44 W/m² 13,8 °C 16,6 °C 22,5 km/h (4 Bft)
25.08.2024 08:45 23,2 °C 19,6 °C 59 % 69 % 1016,1 hPa 0,0 l/m² 17,5 km/h (3 Bft) W-SW 257 ° 0 min 44 W/m² 13,8 °C 16,2 °C 20,9 km/h (4 Bft)
25.08.2024 08:46 23,2 °C 19,5 °C 59 % 69 % 1016,2 hPa 0,0 l/m² 10,7 km/h (2 Bft) W-SW 244 ° 0 min 44 W/m² 13,7 °C 17,9 °C 16,1 km/h (3 Bft)
25.08.2024 08:47 23,2 °C 19,5 °C 59 % 70 % 1016,2 hPa 0,0 l/m² 9,4 km/h (2 Bft) W-NW 286 ° 0 min 44 W/m² 13,9 °C 18,3 °C 16,1 km/h (3 Bft)
25.08.2024 08:48 23,2 °C 19,4 °C 59 % 70 % 1016,2 hPa 0,0 l/m² 8,9 km/h (2 Bft) W-SW 257 ° 0 min 42 W/m² 13,8 °C 18,4 °C 12,9 km/h (3 Bft)
25.08.2024 08:49 23,2 °C 19,4 °C 59 % 70 % 1016,2 hPa 0,0 l/m² 8,4 km/h (2 Bft) W 262 ° 0 min 42 W/m² 13,8 °C 18,6 °C 14,5 km/h (3 Bft)
25.08.2024 08:51 23,3 °C 19,4 °C 59 % 70 % 1016,2 hPa 0,0 l/m² 9,2 km/h (2 Bft) W 273 ° 0 min 42 W/m² 13,8 °C 18,3 °C 14,5 km/h (3 Bft)
25.08.2024 08:52 23,3 °C 19,4 °C 59 % 70 % 1016,2 hPa 0,0 l/m² 7,1 km/h (2 Bft) W-SW 252 ° 0 min 42 W/m² 13,8 °C 19,1 °C 12,9 km/h (3 Bft)
25.08.2024 08:53 23,3 °C 19,3 °C 59 % 70 % 1016,3 hPa 0,0 l/m² 8,9 km/h (2 Bft) W-SW 257 ° 0 min 42 W/m² 13,7 °C 18,3 °C 16,1 km/h (3 Bft)
25.08.2024 08:54 23,3 °C 19,3 °C 59 % 70 % 1016,3 hPa 0,0 l/m² 11,8 km/h (2 Bft) W-NW 288 ° 0 min 39 W/m² 13,7 °C 17,3 °C 16,1 km/h (3 Bft)
25.08.2024 08:55 23,3 °C 19,3 °C 59 % 69 % 1016,4 hPa 0,0 l/m² 9,7 km/h (2 Bft) W-SW 253 ° 0 min 37 W/m² 13,5 °C 18,0 °C 14,5 km/h (3 Bft)
25.08.2024 08:56 23,3 °C 19,3 °C 59 % 69 % 1016,3 hPa 0,0 l/m² 7,4 km/h (2 Bft) W 263 ° 0 min 37 W/m² 13,5 °C 18,9 °C 12,9 km/h (3 Bft)
25.08.2024 08:57 23,3 °C 19,3 °C 59 % 69 % 1016,3 hPa 0,0 l/m² 10,7 km/h (2 Bft) W-SW 245 ° 0 min 39 W/m² 13,5 °C 17,6 °C 14,5 km/h (3 Bft)
25.08.2024 08:58 23,3 °C 19,3 °C 59 % 69 % 1016,4 hPa 0,0 l/m² 9,9 km/h (2 Bft) W-SW 256 ° 0 min 42 W/m² 13,5 °C 17,9 °C 16,1 km/h (3 Bft)
25.08.2024 08:59 23,3 °C 19,3 °C 59 % 69 % 1016,4 hPa 0,0 l/m² 7,8 km/h (2 Bft) W 260 ° 0 min 46 W/m² 13,5 °C 18,7 °C 12,9 km/h (3 Bft)
25.08.2024 09:01 23,4 °C 19,3 °C 59 % 69 % 1016,4 hPa 0,0 l/m² 11,9 km/h (2 Bft) W-SW 244 ° 2 min 62 W/m² 13,5 °C 17,3 °C 17,7 km/h (3 Bft)
25.08.2024 09:03 23,4 °C 19,3 °C 59 % 69 % 1016,4 hPa 0,0 l/m² 13,7 km/h (3 Bft) W-SW 244 ° 2 min 74 W/m² 13,5 °C 16,7 °C 19,3 km/h (3 Bft)
25.08.2024 09:04 23,3 °C 19,3 °C 59 % 70 % 1016,4 hPa 0,0 l/m² 11,8 km/h (2 Bft) W-SW 240 ° 1 min 79 W/m² 13,7 °C 17,3 °C 16,1 km/h (3 Bft)
25.08.2024 09:05 23,4 °C 19,3 °C 59 % 70 % 1016,5 hPa 0,0 l/m² 10,5 km/h (2 Bft) SW 220 ° 1 min 91 W/m² 13,7 °C 17,7 °C 16,1 km/h (3 Bft)
25.08.2024 09:06 23,4 °C 19,3 °C 58 % 70 % 1016,5 hPa 0,0 l/m² 11,3 km/h (2 Bft) SW 232 ° 1 min 97 W/m² 13,7 °C 17,4 °C 14,5 km/h (3 Bft)
25.08.2024 09:07 23,4 °C 19,3 °C 58 % 70 % 1016,4 hPa 0,0 l/m² 11,8 km/h (2 Bft) SW 231 ° 1 min 100 W/m² 13,7 °C 17,3 °C 22,5 km/h (4 Bft)
25.08.2024 09:08 23,4 °C 19,3 °C 58 % 70 % 1016,4 hPa 0,0 l/m² 17,5 km/h (3 Bft) SW 227 ° 1 min 105 W/m² 13,7 °C 15,8 °C 22,5 km/h (4 Bft)
25.08.2024 09:09 23,4 °C 19,3 °C 58 % 69 % 1016,5 hPa 0,0 l/m² 14,2 km/h (3 Bft) SW 219 ° 1 min 113 W/m² 13,5 °C 16,6 °C 17,7 km/h (3 Bft)
25.08.2024 09:11 23,4 °C 19,3 °C 58 % 69 % 1016,6 hPa 0,0 l/m² 11,8 km/h (2 Bft) SW 232 ° 2 min 132 W/m² 13,5 °C 17,3 °C 16,1 km/h (3 Bft)
25.08.2024 09:13 23,4 °C 19,4 °C 58 % 69 % 1016,8 hPa 0,0 l/m² 10,7 km/h (2 Bft) W 261 ° 2 min 158 W/m² 13,6 °C 17,7 °C 14,5 km/h (3 Bft)
25.08.2024 09:14 23,4 °C 19,4 °C 58 % 69 % 1016,9 hPa 0,0 l/m² 10,9 km/h (2 Bft) W-SW 237 ° 1 min 165 W/m² 13,6 °C 17,7 °C 14,5 km/h (3 Bft)
25.08.2024 09:15 23,4 °C 19,4 °C 58 % 69 % 1017,0 hPa 0,0 l/m² 10,1 km/h (2 Bft) W-SW 246 ° 1 min 171 W/m² 13,6 °C 17,9 °C 16,1 km/h (3 Bft)
25.08.2024 09:16 23,4 °C 19,5 °C 58 % 69 % 1017,0 hPa 0,0 l/m² 9,4 km/h (2 Bft) W-SW 251 ° 1 min 176 W/m² 13,7 °C 18,3 °C 14,5 km/h (3 Bft)
25.08.2024 09:17 23,4 °C 19,6 °C 58 % 69 % 1017,2 hPa 0,0 l/m² 10,1 km/h (2 Bft) SW 235 ° 1 min 183 W/m² 13,8 °C 18,2 °C 17,7 km/h (3 Bft)
25.08.2024 09:18 23,4 °C 19,6 °C 58 % 69 % 1017,1 hPa 0,0 l/m² 13,9 km/h (3 Bft) W-SW 256 ° 1 min 186 W/m² 13,8 °C 17,0 °C 19,3 km/h (3 Bft)
25.08.2024 09:19 23,4 °C 19,7 °C 58 % 68 % 1017,2 hPa 0,0 l/m² 12,5 km/h (2 Bft) W-SW 245 ° 1 min 188 W/m² 13,6 °C 17,5 °C 20,9 km/h (4 Bft)
25.08.2024 09:21 23,4 °C 19,8 °C 58 % 67 % 1017,2 hPa 0,0 l/m² 11,6 km/h (2 Bft) W-SW 248 ° 2 min 190 W/m² 13,5 °C 17,9 °C 22,5 km/h (4 Bft)
25.08.2024 09:23 23,4 °C 19,7 °C 58 % 66 % 1017,5 hPa 0,0 l/m² 17,3 km/h (3 Bft) W-SW 243 ° 2 min 204 W/m² 13,2 °C 16,4 °C 27,4 km/h (5 Bft)
25.08.2024 09:24 23,4 °C 19,8 °C 58 % 66 % 1017,5 hPa 0,0 l/m² 16,7 km/h (3 Bft) W-NW 288 ° 1 min 211 W/m² 13,3 °C 16,6 °C 24,1 km/h (4 Bft)
25.08.2024 09:25 23,4 °C 19,8 °C 58 % 66 % 1017,5 hPa 0,0 l/m² 15,4 km/h (3 Bft) W-SW 256 ° 1 min 220 W/m² 13,3 °C 16,9 °C 24,1 km/h (4 Bft)
25.08.2024 09:26 23,4 °C 19,8 °C 58 % 66 % 1017,5 hPa 0,0 l/m² 16,3 km/h (3 Bft) W-SW 252 ° 1 min 229 W/m² 13,3 °C 16,7 °C 32,2 km/h (5 Bft)
25.08.2024 09:27 23,4 °C 19,8 °C 58 % 66 % 1017,5 hPa 0,0 l/m² 19,2 km/h (3 Bft) W-SW 254 ° 1 min 241 W/m² 13,3 °C 16,1 °C 30,6 km/h (5 Bft)
25.08.2024 09:28 23,4 °C 19,8 °C 58 % 66 % 1017,5 hPa 0,0 l/m² 16,4 km/h (3 Bft) W-SW 238 ° 1 min 276 W/m² 13,3 °C 16,7 °C 24,1 km/h (4 Bft)
25.08.2024 09:29 23,4 °C 19,8 °C 58 % 66 % 1017,5 hPa 0,0 l/m² 19,9 km/h (4 Bft) SW 228 ° 1 min 262 W/m² 13,3 °C 16,0 °C 29,0 km/h (5 Bft)
25.08.2024 09:31 23,4 °C 19,9 °C 58 % 66 % 1017,5 hPa 0,0 l/m² 13,9 km/h (3 Bft) W-SW 258 ° 2 min 236 W/m² 13,4 °C 17,4 °C 25,7 km/h (4 Bft)
25.08.2024 09:33 23,4 °C 19,9 °C 58 % 66 % 1017,6 hPa 0,0 l/m² 16,2 km/h (3 Bft) W 275 ° 2 min 223 W/m² 13,4 °C 16,9 °C 25,7 km/h (4 Bft)
25.08.2024 09:34 23,4 °C 19,9 °C 58 % 66 % 1017,7 hPa 0,0 l/m² 19,8 km/h (3 Bft) W-SW 242 ° 1 min 223 W/m² 13,4 °C 16,1 °C 35,4 km/h (5 Bft)
25.08.2024 09:35 23,4 °C 19,9 °C 58 % 65 % 1017,7 hPa 0,0 l/m² 14,5 km/h (3 Bft) W 274 ° 1 min 209 W/m² 13,1 °C 17,3 °C 20,9 km/h (4 Bft)
25.08.2024 09:36 23,4 °C 19,8 °C 58 % 66 % 1017,6 hPa 0,0 l/m² 10,9 km/h (2 Bft) W 260 ° 1 min 204 W/m² 13,3 °C 18,1 °C 19,3 km/h (3 Bft)
25.08.2024 09:37 23,5 °C 19,8 °C 58 % 66 % 1017,7 hPa 0,0 l/m² 9,9 km/h (2 Bft) W 263 ° 1 min 200 W/m² 13,3 °C 18,5 °C 17,7 km/h (3 Bft)
25.08.2024 09:38 23,4 °C 19,8 °C 58 % 66 % 1017,7 hPa 0,0 l/m² 14,6 km/h (3 Bft) W-SW 237 ° 1 min 199 W/m² 13,3 °C 17,1 °C 22,5 km/h (4 Bft)
25.08.2024 09:39 23,4 °C 19,8 °C 58 % 66 % 1017,7 hPa 0,0 l/m² 15,9 km/h (3 Bft) SW 225 ° 1 min 197 W/m² 13,3 °C 16,8 °C 22,5 km/h (4 Bft)
25.08.2024 09:41 23,4 °C 19,8 °C 58 % 66 % 1017,8 hPa 0,0 l/m² 15,1 km/h (3 Bft) W 263 ° 2 min 202 W/m² 13,3 °C 17,0 °C 20,9 km/h (4 Bft)
25.08.2024 09:43 23,4 °C 19,8 °C 58 % 66 % 1017,8 hPa 0,0 l/m² 13,7 km/h (3 Bft) W-NW 296 ° 2 min 200 W/m² 13,3 °C 17,3 °C 20,9 km/h (4 Bft)
25.08.2024 09:44 23,4 °C 19,8 °C 58 % 66 % 1017,8 hPa 0,0 l/m² 13,9 km/h (3 Bft) W-SW 246 ° 1 min 199 W/m² 13,3 °C 17,3 °C 20,9 km/h (4 Bft)
25.08.2024 09:46 23,4 °C 19,7 °C 58 % 66 % 1017,9 hPa 0,0 l/m² 16,8 km/h (3 Bft) W 273 ° 2 min 195 W/m² 13,2 °C 16,5 °C 25,7 km/h (4 Bft)
25.08.2024 09:47 23,4 °C 19,7 °C 58 % 66 % 1017,8 hPa 0,0 l/m² 12,0 km/h (2 Bft) W-SW 242 ° 1 min 197 W/m² 13,2 °C 17,7 °C 20,9 km/h (4 Bft)
25.08.2024 09:48 23,4 °C 19,8 °C 58 % 66 % 1017,8 hPa 0,0 l/m² 8,5 km/h (2 Bft) W-SW 242 ° 1 min 202 W/m² 13,3 °C 18,9 °C 14,5 km/h (3 Bft)
25.08.2024 09:49 23,4 °C 19,8 °C 57 % 66 % 1017,9 hPa 0,0 l/m² 12,9 km/h (3 Bft) W-SW 257 ° 1 min 209 W/m² 13,3 °C 17,5 °C 20,9 km/h (4 Bft)
25.08.2024 09:51 23,4 °C 19,8 °C 57 % 66 % 1018,0 hPa 0,0 l/m² 16,1 km/h (3 Bft) W 269 ° 2 min 216 W/m² 13,3 °C 16,7 °C 25,7 km/h (4 Bft)
25.08.2024 09:53 23,4 °C 19,8 °C 57 % 66 % 1017,9 hPa 0,0 l/m² 11,5 km/h (2 Bft) W 263 ° 2 min 209 W/m² 13,3 °C 17,9 °C 20,9 km/h (4 Bft)
25.08.2024 09:54 23,4 °C 19,8 °C 57 % 66 % 1017,9 hPa 0,0 l/m² 14,6 km/h (3 Bft) W-SW 253 ° 1 min 211 W/m² 13,3 °C 17,1 °C 22,5 km/h (4 Bft)
25.08.2024 09:55 23,4 °C 19,8 °C 57 % 66 % 1017,9 hPa 0,0 l/m² 11,1 km/h (2 Bft) W-SW 248 ° 1 min 213 W/m² 13,3 °C 18,1 °C 17,7 km/h (3 Bft)
25.08.2024 09:56 23,4 °C 19,9 °C 56 % 66 % 1017,9 hPa 0,0 l/m² 15,1 km/h (3 Bft) W-SW 240 ° 1 min 214 W/m² 13,4 °C 17,1 °C 25,7 km/h (4 Bft)
25.08.2024 09:57 23,4 °C 19,8 °C 56 % 65 % 1018,0 hPa 0,0 l/m² 19,6 km/h (3 Bft) W-NW 283 ° 1 min 214 W/m² 13,0 °C 16,0 °C 29,0 km/h (5 Bft)
25.08.2024 09:58 23,4 °C 19,9 °C 56 % 65 % 1017,9 hPa 0,0 l/m² 12,3 km/h (2 Bft) W 276 ° 1 min 209 W/m² 13,1 °C 17,8 °C 20,9 km/h (4 Bft)
25.08.2024 09:59 23,4 °C 19,9 °C 56 % 66 % 1017,9 hPa 0,0 l/m² 13,7 km/h (3 Bft) W-SW 248 ° 1 min 204 W/m² 13,4 °C 17,5 °C 19,3 km/h (3 Bft)
25.08.2024 10:01 23,4 °C 19,9 °C 56 % 65 % 1018,0 hPa 0,0 l/m² 13,2 km/h (3 Bft) W 259 ° 2 min 190 W/m² 13,1 °C 17,6 °C 24,1 km/h (4 Bft)
25.08.2024 10:03 23,4 °C 19,9 °C 56 % 65 % 1018,1 hPa 0,0 l/m² 15,1 km/h (3 Bft) N-NW 344 ° 2 min 186 W/m² 13,1 °C 17,1 °C 27,4 km/h (5 Bft)
25.08.2024 10:04 23,4 °C 19,9 °C 56 % 65 % 1018,0 hPa 0,0 l/m² 11,3 km/h (2 Bft) W 273 ° 1 min 188 W/m² 13,1 °C 18,1 °C 17,7 km/h (3 Bft)
25.08.2024 10:05 23,4 °C 19,9 °C 56 % 65 % 1018,0 hPa 0,0 l/m² 14,6 km/h (3 Bft) W 266 ° 1 min 190 W/m² 13,1 °C 17,2 °C 22,5 km/h (4 Bft)
25.08.2024 10:07 23,4 °C 19,9 °C 55 % 66 % 1018,0 hPa 0,0 l/m² 11,8 km/h (2 Bft) W-SW 247 ° 2 min 186 W/m² 13,4 °C 18,0 °C 17,7 km/h (3 Bft)
25.08.2024 10:08 23,4 °C 19,9 °C 55 % 65 % 1018,2 hPa 0,0 l/m² 14,3 km/h (3 Bft) W-NW 284 ° 1 min 181 W/m² 13,1 °C 17,3 °C 19,3 km/h (3 Bft)
25.08.2024 10:09 23,4 °C 19,9 °C 55 % 65 % 1018,1 hPa 0,0 l/m² 9,3 km/h (2 Bft) W 277 ° 1 min 176 W/m² 13,1 °C 18,8 °C 14,5 km/h (3 Bft)
25.08.2024 10:11 23,4 °C 19,9 °C 55 % 65 % 1018,2 hPa 0,0 l/m² 13,3 km/h (3 Bft) W 259 ° 2 min 167 W/m² 13,1 °C 17,6 °C 27,4 km/h (5 Bft)
25.08.2024 10:13 23,4 °C 19,9 °C 55 % 65 % 1018,3 hPa 0,0 l/m² 11,4 km/h (2 Bft) W 265 ° 2 min 160 W/m² 13,1 °C 18,1 °C 22,5 km/h (4 Bft)
25.08.2024 10:14 23,4 °C 19,9 °C 55 % 65 % 1018,2 hPa 0,0 l/m² 13,3 km/h (3 Bft) W 281 ° 1 min 155 W/m² 13,1 °C 17,6 °C 17,7 km/h (3 Bft)
25.08.2024 10:15 23,4 °C 19,9 °C 55 % 65 % 1018,2 hPa 0,0 l/m² 12,3 km/h (2 Bft) W-SW 248 ° 1 min 153 W/m² 13,1 °C 17,8 °C 16,1 km/h (3 Bft)
25.08.2024 10:16 23,3 °C 19,9 °C 55 % 65 % 1018,2 hPa 0,0 l/m² 12,0 km/h (2 Bft) W 280 ° 1 min 158 W/m² 13,1 °C 17,9 °C 17,7 km/h (3 Bft)
25.08.2024 10:18 23,3 °C 19,9 °C 55 % 65 % 1018,3 hPa 0,0 l/m² 9,1 km/h (2 Bft) W 261 ° 2 min 178 W/m² 13,1 °C 18,8 °C 14,5 km/h (3 Bft)
25.08.2024 10:19 23,3 °C 19,9 °C 55 % 65 % 1018,3 hPa 0,0 l/m² 12,8 km/h (3 Bft) W 267 ° 1 min 195 W/m² 13,1 °C 17,7 °C 20,9 km/h (4 Bft)
25.08.2024 10:21 23,3 °C 19,9 °C 55 % 66 % 1018,3 hPa 0,0 l/m² 10,3 km/h (2 Bft) W-SW 242 ° 2 min 227 W/m² 13,4 °C 18,4 °C 22,5 km/h (4 Bft)
25.08.2024 10:23 23,3 °C 19,9 °C 55 % 65 % 1018,4 hPa 0,0 l/m² 10,3 km/h (2 Bft) W-NW 284 ° 2 min 251 W/m² 13,1 °C 18,4 °C 16,1 km/h (3 Bft)
25.08.2024 10:24 23,3 °C 20,0 °C 55 % 65 % 1018,5 hPa 0,0 l/m² 14,1 km/h (3 Bft) W 274 ° 1 min 255 W/m² 13,2 °C 17,5 °C 22,5 km/h (4 Bft)
25.08.2024 10:25 23,3 °C 19,9 °C 55 % 64 % 1018,5 hPa 0,0 l/m² 11,3 km/h (2 Bft) W-SW 244 ° 1 min 257 W/m² 12,9 °C 18,1 °C 17,7 km/h (3 Bft)
25.08.2024 10:26 23,3 °C 20,0 °C 55 % 65 % 1018,5 hPa 0,0 l/m² 7,8 km/h (2 Bft) W-SW 248 ° 1 min 264 W/m² 13,2 °C 19,4 °C 16,1 km/h (3 Bft)
25.08.2024 10:27 23,3 °C 20,1 °C 55 % 65 % 1018,5 hPa 0,0 l/m² 11,5 km/h (2 Bft) SW 232 ° 1 min 264 W/m² 13,3 °C 18,3 °C 20,9 km/h (4 Bft)
25.08.2024 10:28 23,3 °C 20,2 °C 55 % 65 % 1018,5 hPa 0,0 l/m² 15,1 km/h (3 Bft) W-NW 285 ° 1 min 264 W/m² 13,4 °C 17,5 °C 22,5 km/h (4 Bft)
25.08.2024 10:29 23,3 °C 20,3 °C 55 % 65 % 1018,5 hPa 0,0 l/m² 12,9 km/h (3 Bft) W-SW 248 ° 1 min 290 W/m² 13,5 °C 18,1 °C 17,7 km/h (3 Bft)
25.08.2024 10:31 23,3 °C 20,4 °C 55 % 63 % 1018,6 hPa 0,0 l/m² 15,0 km/h (3 Bft) W 271 ° 2 min 290 W/m² 13,1 °C 17,7 °C 22,5 km/h (4 Bft)
25.08.2024 10:33 23,3 °C 20,4 °C 55 % 62 % 1018,6 hPa 0,0 l/m² 20,3 km/h (4 Bft) SW 234 ° 2 min 230 W/m² 12,9 °C 16,7 °C 25,7 km/h (4 Bft)
25.08.2024 10:34 23,3 °C 20,3 °C 55 % 63 % 1018,6 hPa 0,0 l/m² 11,5 km/h (2 Bft) W 273 ° 1 min 248 W/m² 13,0 °C 18,5 °C 17,7 km/h (3 Bft)
25.08.2024 10:35 23,3 °C 20,3 °C 55 % 63 % 1018,7 hPa 0,0 l/m² 12,5 km/h (2 Bft) W 260 ° 1 min 281 W/m² 13,0 °C 18,2 °C 20,9 km/h (4 Bft)
25.08.2024 10:36 23,3 °C 20,3 °C 55 % 63 % 1018,8 hPa 0,0 l/m² 11,8 km/h (2 Bft) SW 231 ° 1 min 281 W/m² 13,0 °C 18,4 °C 17,7 km/h (3 Bft)
25.08.2024 10:37 23,3 °C 20,4 °C 55 % 64 % 1018,8 hPa 0,0 l/m² 13,6 km/h (3 Bft) W-SW 254 ° 1 min 281 W/m² 13,4 °C 18,1 °C 22,5 km/h (4 Bft)
25.08.2024 10:38 23,3 °C 20,6 °C 55 % 64 % 1018,7 hPa 0,0 l/m² 15,8 km/h (3 Bft) W-SW 257 ° 1 min 281 W/m² 13,5 °C 17,8 °C 20,9 km/h (4 Bft)
25.08.2024 10:39 23,3 °C 20,6 °C 55 % 63 % 1018,7 hPa 0,0 l/m² 13,6 km/h (3 Bft) W-SW 245 ° 1 min 272 W/m² 13,3 °C 18,3 °C 19,3 km/h (3 Bft)
25.08.2024 10:41 23,3 °C 20,6 °C 55 % 63 % 1018,7 hPa 0,0 l/m² 15,2 km/h (3 Bft) W-SW 239 ° 2 min 257 W/m² 13,3 °C 17,9 °C 20,9 km/h (4 Bft)
25.08.2024 10:43 23,3 °C 20,5 °C 55 % 63 % 1018,7 hPa 0,0 l/m² 16,1 km/h (3 Bft) W-SW 240 ° 2 min 257 W/m² 13,2 °C 17,6 °C 22,5 km/h (4 Bft)
25.08.2024 10:44 23,3 °C 20,5 °C 55 % 63 % 1018,8 hPa 0,0 l/m² 18,3 km/h (3 Bft) W-SW 251 ° 1 min 264 W/m² 13,2 °C 17,2 °C 24,1 km/h (4 Bft)
25.08.2024 10:45 23,3 °C 20,4 °C 55 % 63 % 1018,8 hPa 0,0 l/m² 13,6 km/h (3 Bft) W 263 ° 1 min 299 W/m² 13,1 °C 18,1 °C 19,3 km/h (3 Bft)
25.08.2024 10:46 23,3 °C 20,4 °C 55 % 64 % 1018,8 hPa 0,0 l/m² 14,3 km/h (3 Bft) W-SW 252 ° 1 min 336 W/m² 13,4 °C 17,9 °C 19,3 km/h (3 Bft)
25.08.2024 10:47 23,3 °C 20,4 °C 55 % 64 % 1018,8 hPa 0,0 l/m² 11,4 km/h (2 Bft) W 261 ° 1 min 360 W/m² 13,4 °C 18,7 °C 17,7 km/h (3 Bft)
25.08.2024 10:48 23,3 °C 20,4 °C 55 % 64 % 1018,8 hPa 0,0 l/m² 9,1 km/h (2 Bft) W-SW 244 ° 1 min 341 W/m² 13,4 °C 19,4 °C 16,1 km/h (3 Bft)
25.08.2024 10:49 23,3 °C 20,5 °C 55 % 64 % 1018,8 hPa 0,0 l/m² 6,9 km/h (2 Bft) W-SW 252 ° 1 min 327 W/m² 13,5 °C 20,3 °C 12,9 km/h (3 Bft)
25.08.2024 10:51 23,3 °C 20,7 °C 55 % 63 % 1018,9 hPa 0,0 l/m² 14,8 km/h (3 Bft) W-SW 248 ° 2 min 457 W/m² 13,4 °C 18,1 °C 25,7 km/h (4 Bft)
25.08.2024 10:53 23,3 °C 20,8 °C 55 % 63 % 1018,9 hPa 0,0 l/m² 9,8 km/h (2 Bft) W 259 ° 2 min 468 W/m² 13,5 °C 19,6 °C 20,9 km/h (4 Bft)
25.08.2024 10:54 23,3 °C 20,8 °C 55 % 63 % 1018,9 hPa 0,0 l/m² 9,1 km/h (2 Bft) W-NW 292 ° 1 min 432 W/m² 13,5 °C 19,8 °C 12,9 km/h (3 Bft)
25.08.2024 10:55 23,3 °C 20,9 °C 55 % 63 % 1018,9 hPa 0,0 l/m² 5,9 km/h (2 Bft) SW 229 ° 1 min 424 W/m² 13,6 °C 20,9 °C 11,3 km/h (2 Bft)
25.08.2024 10:56 23,4 °C 21,1 °C 55 % 63 % 1018,9 hPa 0,0 l/m² 12,3 km/h (2 Bft) SW 236 ° 1 min 443 W/m² 13,8 °C 19,2 °C 17,7 km/h (3 Bft)
25.08.2024 10:57 23,4 °C 21,1 °C 55 % 62 % 1018,9 hPa 0,0 l/m² 15,2 km/h (3 Bft) W-SW 240 ° 1 min 510 W/m² 13,5 °C 18,5 °C 19,3 km/h (3 Bft)
25.08.2024 10:58 23,3 °C 21,1 °C 55 % 62 % 1019,0 hPa 0,0 l/m² 14,9 km/h (3 Bft) SW 227 ° 1 min 476 W/m² 13,5 °C 18,6 °C 20,9 km/h (4 Bft)
25.08.2024 10:59 23,3 °C 21,1 °C 55 % 62 % 1019,0 hPa 0,0 l/m² 14,5 km/h (3 Bft) W-SW 246 ° 1 min 473 W/m² 13,5 °C 18,7 °C 17,7 km/h (3 Bft)
25.08.2024 11:01 23,3 °C 21,2 °C 55 % 64 % 1019,1 hPa 0,0 l/m² 14,1 km/h (3 Bft) W-SW 250 ° 2 min 461 W/m² 14,1 °C 18,9 °C 19,3 km/h (3 Bft)
25.08.2024 11:03 23,3 °C 21,2 °C 55 % 63 % 1019,0 hPa 0,0 l/m² 11,7 km/h (2 Bft) W-SW 247 ° 2 min 415 W/m² 13,9 °C 19,5 °C 16,1 km/h (3 Bft)
25.08.2024 11:04 23,3 °C 21,2 °C 55 % 63 % 1019,2 hPa 0,0 l/m² 13,9 km/h (3 Bft) SW 234 ° 1 min 302 W/m² 13,9 °C 18,9 °C 17,7 km/h (3 Bft)
25.08.2024 11:05 23,3 °C 21,1 °C 55 % 62 % 1019,2 hPa 0,0 l/m² 13,4 km/h (3 Bft) SW 225 ° 1 min 306 W/m² 13,5 °C 18,9 °C 17,7 km/h (3 Bft)
25.08.2024 11:06 23,3 °C 21,1 °C 55 % 62 % 1019,1 hPa 0,0 l/m² 14,8 km/h (3 Bft) SW 236 ° 1 min 316 W/m² 13,5 °C 18,6 °C 19,3 km/h (3 Bft)
25.08.2024 11:07 23,4 °C 21,1 °C 55 % 63 % 1019,0 hPa 0,0 l/m² 16,7 km/h (3 Bft) SW 234 ° 1 min 320 W/m² 13,8 °C 18,2 °C 24,1 km/h (4 Bft)
25.08.2024 11:08 23,4 °C 21,0 °C 55 % 63 % 1019,2 hPa 0,0 l/m² 17,0 km/h (3 Bft) SW 217 ° 1 min 297 W/m² 13,7 °C 18,0 °C 24,1 km/h (4 Bft)
25.08.2024 11:09 23,4 °C 21,1 °C 55 % 64 % 1019,1 hPa 0,0 l/m² 17,1 km/h (3 Bft) SW 227 ° 1 min 288 W/m² 14,0 °C 18,2 °C 24,1 km/h (4 Bft)
25.08.2024 11:11 23,4 °C 21,1 °C 55 % 62 % 1019,2 hPa 0,0 l/m² 16,9 km/h (3 Bft) W-SW 242 ° 2 min 258 W/m² 13,5 °C 18,2 °C 25,7 km/h (4 Bft)
25.08.2024 11:13 23,4 °C 20,9 °C 55 % 61 % 1019,1 hPa 0,0 l/m² 15,8 km/h (3 Bft) SW 234 ° 2 min 223 W/m² 13,1 °C 18,2 °C 20,9 km/h (4 Bft)
25.08.2024 11:14 23,4 °C 20,9 °C 55 % 61 % 1019,1 hPa 0,0 l/m² 21,1 km/h (4 Bft) W-SW 241 ° 1 min 234 W/m² 13,1 °C 17,2 °C 27,4 km/h (5 Bft)
25.08.2024 11:15 23,4 °C 20,9 °C 55 % 61 % 1019,1 hPa 0,0 l/m² 19,0 km/h (3 Bft) SW 232 ° 1 min 255 W/m² 13,1 °C 17,5 °C 24,1 km/h (4 Bft)
25.08.2024 11:16 23,4 °C 20,9 °C 55 % 61 % 1019,2 hPa 0,0 l/m² 19,3 km/h (3 Bft) W-SW 237 ° 1 min 278 W/m² 13,1 °C 17,5 °C 25,7 km/h (4 Bft)
25.08.2024 11:17 23,4 °C 20,8 °C 55 % 61 % 1019,2 hPa 0,0 l/m² 14,5 km/h (3 Bft) W-SW 256 ° 1 min 264 W/m² 13,0 °C 18,3 °C 22,5 km/h (4 Bft)
25.08.2024 11:18 23,4 °C 20,8 °C 55 % 61 % 1019,2 hPa 0,0 l/m² 13,6 km/h (3 Bft) W-SW 250 ° 1 min 253 W/m² 13,0 °C 18,5 °C 19,3 km/h (3 Bft)
25.08.2024 11:19 23,4 °C 20,8 °C 55 % 60 % 1019,1 hPa 0,0 l/m² 14,2 km/h (3 Bft) W 270 ° 1 min 255 W/m² 12,7 °C 18,4 °C 20,9 km/h (4 Bft)
25.08.2024 11:20 23,4 °C 20,8 °C 55 % 60 % 1019,2 hPa 0,0 l/m² 15,3 km/h (3 Bft) W 268 ° 1 min 278 W/m² 12,7 °C 18,2 °C 20,9 km/h (4 Bft)
25.08.2024 11:22 23,4 °C 20,8 °C 55 % 59 % 1019,2 hPa 0,0 l/m² 12,3 km/h (2 Bft) W 277 ° 2 min 287 W/m² 12,5 °C 18,9 °C 22,5 km/h (4 Bft)
25.08.2024 11:24 23,4 °C 20,8 °C 55 % 59 % 1019,3 hPa 0,0 l/m² 16,8 km/h (3 Bft) W-SW 237 ° 2 min 278 W/m² 12,5 °C 17,8 °C 25,7 km/h (4 Bft)
25.08.2024 11:25 23,4 °C 20,8 °C 55 % 58 % 1019,3 hPa 0,0 l/m² 20,2 km/h (4 Bft) W-SW 244 ° 1 min 271 W/m² 12,2 °C 17,2 °C 29,0 km/h (5 Bft)
25.08.2024 11:26 23,4 °C 20,8 °C 55 % 59 % 1019,2 hPa 0,0 l/m² 14,7 km/h (3 Bft) W-SW 257 ° 1 min 302 W/m² 12,5 °C 18,3 °C 20,9 km/h (4 Bft)
25.08.2024 11:27 23,4 °C 20,8 °C 55 % 59 % 1019,1 hPa 0,0 l/m² 18,0 km/h (3 Bft) SW 221 ° 1 min 302 W/m² 12,5 °C 17,6 °C 22,5 km/h (4 Bft)
25.08.2024 11:28 23,4 °C 20,8 °C 55 % 59 % 1019,2 hPa 0,0 l/m² 14,5 km/h (3 Bft) W-NW 288 ° 1 min 302 W/m² 12,5 °C 18,3 °C 22,5 km/h (4 Bft)
25.08.2024 11:29 23,3 °C 20,9 °C 55 % 58 % 1019,3 hPa 0,0 l/m² 20,3 km/h (4 Bft) SW 236 ° 1 min 330 W/m² 12,3 °C 17,3 °C 27,4 km/h (5 Bft)
25.08.2024 11:30 23,3 °C 20,9 °C 55 % 57 % 1019,3 hPa 0,0 l/m² 25,0 km/h (4 Bft) W-SW 242 ° 1 min 329 W/m² 12,1 °C 16,6 °C 30,6 km/h (5 Bft)
25.08.2024 11:32 23,4 °C 20,9 °C 55 % 58 % 1019,4 hPa 0,0 l/m² 18,6 km/h (3 Bft) W 265 ° 2 min 367 W/m² 12,3 °C 17,6 °C 27,4 km/h (5 Bft)
25.08.2024 11:34 23,4 °C 20,9 °C 55 % 58 % 1019,4 hPa 0,0 l/m² 18,1 km/h (3 Bft) SW 222 ° 2 min 424 W/m² 12,3 °C 17,7 °C 29,0 km/h (5 Bft)
25.08.2024 11:35 23,4 °C 21,0 °C 55 % 57 % 1019,4 hPa 0,0 l/m² 15,0 km/h (3 Bft) SW 229 ° 1 min 364 W/m² 12,1 °C 18,5 °C 24,1 km/h (4 Bft)
25.08.2024 11:36 23,4 °C 21,1 °C 55 % 57 % 1019,4 hPa 0,0 l/m² 17,8 km/h (3 Bft) SW 234 ° 1 min 359 W/m² 12,2 °C 18,0 °C 24,1 km/h (4 Bft)
25.08.2024 11:37 23,4 °C 21,0 °C 55 % 57 % 1019,4 hPa 0,0 l/m² 21,0 km/h (4 Bft) W 263 ° 1 min 436 W/m² 12,1 °C 17,3 °C 29,0 km/h (5 Bft)
25.08.2024 11:38 23,4 °C 21,1 °C 55 % 57 % 1019,5 hPa 0,0 l/m² 11,6 km/h (2 Bft) W 269 ° 1 min 338 W/m² 12,2 °C 19,4 °C 19,3 km/h (3 Bft)
25.08.2024 11:39 23,4 °C 21,1 °C 55 % 57 % 1019,4 hPa 0,0 l/m² 15,0 km/h (3 Bft) SW 232 ° 1 min 366 W/m² 12,2 °C 18,6 °C 22,5 km/h (4 Bft)
25.08.2024 11:41 23,4 °C 21,1 °C 55 % 57 % 1019,5 hPa 0,0 l/m² 11,0 km/h (2 Bft) W-SW 238 ° 2 min 403 W/m² 12,2 °C 19,6 °C 20,9 km/h (4 Bft)
25.08.2024 11:42 23,3 °C 21,1 °C 55 % 58 % 1019,5 hPa 0,0 l/m² 10,3 km/h (2 Bft) W-SW 246 ° 1 min 403 W/m² 12,5 °C 19,8 °C 17,7 km/h (3 Bft)
25.08.2024 11:43 23,4 °C 21,2 °C 55 % 57 % 1019,5 hPa 0,0 l/m² 21,9 km/h (4 Bft) W-SW 244 ° 1 min 403 W/m² 12,3 °C 17,5 °C 27,4 km/h (5 Bft)
25.08.2024 11:44 23,4 °C 21,3 °C 55 % 56 % 1019,5 hPa 0,0 l/m² 20,6 km/h (4 Bft) W 262 ° 1 min 336 W/m² 12,2 °C 17,8 °C 24,1 km/h (4 Bft)
25.08.2024 11:45 23,4 °C 21,2 °C 55 % 55 % 1019,5 hPa 0,0 l/m² 13,8 km/h (3 Bft) W-SW 258 ° 1 min 330 W/m² 11,8 °C 19,0 °C 19,3 km/h (3 Bft)
25.08.2024 11:46 23,4 °C 21,2 °C 55 % 56 % 1019,5 hPa 0,0 l/m² 17,3 km/h (3 Bft) W-SW 253 ° 1 min 330 W/m² 12,1 °C 18,2 °C 25,7 km/h (4 Bft)
25.08.2024 11:47 23,4 °C 21,1 °C 55 % 56 % 1019,5 hPa 0,0 l/m² 19,0 km/h (3 Bft) W-SW 250 ° 1 min 330 W/m² 12,0 °C 17,8 °C 29,0 km/h (5 Bft)
25.08.2024 11:48 23,4 °C 21,1 °C 55 % 55 % 1019,6 hPa 0,0 l/m² 16,9 km/h (3 Bft) W-SW 255 ° 1 min 338 W/m² 11,7 °C 18,2 °C 25,7 km/h (4 Bft)
25.08.2024 11:49 23,4 °C 21,1 °C 55 % 55 % 1019,6 hPa 0,0 l/m² 18,2 km/h (3 Bft) W 268 ° 1 min 332 W/m² 11,7 °C 17,9 °C 22,5 km/h (4 Bft)
25.08.2024 11:50 23,4 °C 21,1 °C 55 % 56 % 1019,6 hPa 0,0 l/m² 15,0 km/h (3 Bft) SW 232 ° 1 min 332 W/m² 12,0 °C 18,6 °C 22,5 km/h (4 Bft)
25.08.2024 11:52 23,4 °C 21,1 °C 55 % 55 % 1019,6 hPa 0,0 l/m² 17,1 km/h (3 Bft) W-SW 252 ° 2 min 399 W/m² 11,7 °C 18,2 °C 27,4 km/h (5 Bft)
25.08.2024 11:53 23,4 °C 21,1 °C 55 % 54 % 1019,7 hPa 0,0 l/m² 19,2 km/h (3 Bft) W-SW 247 ° 1 min 380 W/m² 11,4 °C 17,8 °C 24,1 km/h (4 Bft)
25.08.2024 11:54 23,4 °C 21,1 °C 55 % 55 % 1019,7 hPa 0,0 l/m² 16,6 km/h (3 Bft) W-SW 239 ° 1 min 429 W/m² 11,7 °C 18,2 °C 25,7 km/h (4 Bft)
25.08.2024 11:55 23,4 °C 21,1 °C 55 % 55 % 1019,7 hPa 0,0 l/m² 20,2 km/h (4 Bft) W-SW 253 ° 1 min 584 W/m² 11,7 °C 17,6 °C 29,0 km/h (5 Bft)
25.08.2024 11:56 23,4 °C 21,2 °C 55 % 54 % 1019,7 hPa 0,0 l/m² 20,3 km/h (4 Bft) SW 236 ° 1 min 545 W/m² 11,5 °C 17,7 °C 25,7 km/h (4 Bft)
25.08.2024 11:57 23,4 °C 21,3 °C 55 % 54 % 1019,7 hPa 0,0 l/m² 13,9 km/h (3 Bft) W-SW 256 ° 1 min 527 W/m² 11,6 °C 19,1 °C 29,0 km/h (5 Bft)
25.08.2024 11:58 23,4 °C 21,4 °C 55 % 54 % 1019,7 hPa 0,0 l/m² 19,8 km/h (3 Bft) SW 232 ° 1 min 485 W/m² 11,7 °C 18,0 °C 27,4 km/h (5 Bft)
25.08.2024 11:59 23,4 °C 21,5 °C 55 % 54 % 1019,7 hPa 0,0 l/m² 15,5 km/h (3 Bft) W-SW 252 ° 1 min 557 W/m² 11,8 °C 19,0 °C 22,5 km/h (4 Bft)
25.08.2024 12:01 23,4 °C 21,6 °C 55 % 54 % 1019,7 hPa 0,0 l/m² 17,5 km/h (3 Bft) W 275 ° 2 min 399 W/m² 11,9 °C 18,7 °C 27,4 km/h (5 Bft)
25.08.2024 12:03 23,4 °C 21,4 °C 55 % 54 % 1019,7 hPa 0,0 l/m² 13,8 km/h (3 Bft) W-SW 240 ° 2 min 504 W/m² 11,7 °C 19,2 °C 20,9 km/h (4 Bft)
25.08.2024 12:04 23,4 °C 21,4 °C 55 % 54 % 1019,7 hPa 0,0 l/m² 13,5 km/h (3 Bft) W 267 ° 1 min 504 W/m² 11,7 °C 19,3 °C 24,1 km/h (4 Bft)
25.08.2024 12:05 23,4 °C 21,4 °C 55 % 54 % 1019,7 hPa 0,0 l/m² 15,2 km/h (3 Bft) W-SW 252 ° 1 min 504 W/m² 11,7 °C 18,9 °C 20,9 km/h (4 Bft)
25.08.2024 12:06 23,4 °C 21,4 °C 55 % 54 % 1019,7 hPa 0,0 l/m² 15,0 km/h (3 Bft) W-SW 252 ° 1 min 504 W/m² 11,7 °C 18,9 °C 19,3 km/h (3 Bft)
25.08.2024 12:07 23,4 °C 21,6 °C 55 % 55 % 1019,8 hPa 0,0 l/m² 13,3 km/h (3 Bft) W-SW 241 ° 1 min 561 W/m² 12,2 °C 19,6 °C 17,7 km/h (3 Bft)
25.08.2024 12:08 23,4 °C 21,7 °C 55 % 54 % 1019,8 hPa 0,0 l/m² 7,5 km/h (2 Bft) W 269 ° 1 min 561 W/m² 12,0 °C 21,3 °C 14,5 km/h (3 Bft)
25.08.2024 12:09 23,4 °C 21,7 °C 55 % 55 % 1019,8 hPa 0,0 l/m² 11,3 km/h (2 Bft) W-SW 248 ° 1 min 561 W/m² 12,3 °C 20,2 °C 19,3 km/h (3 Bft)
25.08.2024 12:11 23,4 °C 21,6 °C 55 % 55 % 1019,8 hPa 0,0 l/m² 16,5 km/h (3 Bft) W-SW 239 ° 2 min 506 W/m² 12,2 °C 18,9 °C 25,7 km/h (4 Bft)
25.08.2024 12:13 23,4 °C 21,6 °C 55 % 56 % 1019,8 hPa 0,0 l/m² 9,2 km/h (2 Bft) SW 234 ° 2 min 285 W/m² 12,4 °C 20,6 °C 19,3 km/h (3 Bft)
25.08.2024 12:14 23,4 °C 21,6 °C 55 % 55 % 1019,8 hPa 0,0 l/m² 13,3 km/h (3 Bft) W-NW 286 ° 1 min 311 W/m² 12,2 °C 19,6 °C 19,3 km/h (3 Bft)
25.08.2024 12:15 23,4 °C 21,6 °C 55 % 55 % 1019,8 hPa 0,0 l/m² 9,0 km/h (2 Bft) NW 311 ° 1 min 309 W/m² 12,2 °C 20,7 °C 17,7 km/h (3 Bft)
25.08.2024 12:16 23,4 °C 21,6 °C 55 % 55 % 1019,8 hPa 0,0 l/m² 12,2 km/h (2 Bft) W 280 ° 1 min 309 W/m² 12,2 °C 19,8 °C 25,7 km/h (4 Bft)
25.08.2024 12:17 23,4 °C 21,7 °C 55 % 56 % 1019,8 hPa 0,0 l/m² 13,5 km/h (3 Bft) W-SW 241 ° 1 min 719 W/m² 12,5 °C 19,6 °C 20,9 km/h (4 Bft)
25.08.2024 12:18 23,4 °C 21,9 °C 55 % 57 % 1019,8 hPa 0,0 l/m² 10,5 km/h (2 Bft) W-SW 253 ° 1 min 816 W/m² 13,0 °C 20,6 °C 17,7 km/h (3 Bft)
25.08.2024 12:19 23,4 °C 22,2 °C 55 % 55 % 1019,8 hPa 0,0 l/m² 18,0 km/h (3 Bft) W-SW 252 ° 1 min 773 W/m² 12,7 °C 19,4 °C 25,7 km/h (4 Bft)
25.08.2024 12:20 23,4 °C 22,3 °C 55 % 54 % 1019,9 hPa 0,0 l/m² 14,3 km/h (3 Bft) W-SW 254 ° 1 min 707 W/m² 12,5 °C 20,2 °C 17,7 km/h (3 Bft)
25.08.2024 12:22 23,5 °C 22,4 °C 55 % 54 % 1019,9 hPa 0,0 l/m² 11,1 km/h (2 Bft) SW 228 ° 2 min 867 W/m² 12,6 °C 21,0 °C 22,5 km/h (4 Bft)
25.08.2024 12:23 23,5 °C 22,6 °C 54 % 53 % 1019,8 hPa 0,0 l/m² 18,1 km/h (3 Bft) W-SW 246 ° 1 min 867 W/m² 12,5 °C 19,9 °C 24,1 km/h (4 Bft)
25.08.2024 12:24 23,5 °C 22,7 °C 53 % 54 % 1019,8 hPa 0,0 l/m² 16,4 km/h (3 Bft) SW 232 ° 1 min 867 W/m² 12,9 °C 20,3 °C 19,3 km/h (3 Bft)
25.08.2024 12:25 23,4 °C 22,7 °C 54 % 53 % 1019,9 hPa 0,0 l/m² 12,7 km/h (3 Bft) W-SW 257 ° 1 min 527 W/m² 12,6 °C 21,0 °C 16,1 km/h (3 Bft)
25.08.2024 12:26 23,4 °C 22,6 °C 54 % 54 % 1019,9 hPa 0,0 l/m² 10,4 km/h (2 Bft) SW 219 ° 1 min 527 W/m² 12,8 °C 21,4 °C 14,5 km/h (3 Bft)
25.08.2024 12:27 23,5 °C 22,6 °C 54 % 55 % 1019,9 hPa 0,0 l/m² 11,3 km/h (2 Bft) SW 223 ° 1 min 919 W/m² 13,1 °C 21,2 °C 19,3 km/h (3 Bft)
25.08.2024 12:28 23,5 °C 22,7 °C 53 % 54 % 1019,9 hPa 0,0 l/m² 19,6 km/h (3 Bft) SW 235 ° 1 min 919 W/m² 12,9 °C 19,8 °C 24,1 km/h (4 Bft)
25.08.2024 12:29 23,5 °C 22,7 °C 53 % 54 % 1019,9 hPa 0,0 l/m² 10,9 km/h (2 Bft) W-SW 239 ° 1 min 919 W/m² 12,9 °C 21,4 °C 19,3 km/h (3 Bft)
25.08.2024 12:30 23,5 °C 22,6 °C 53 % 54 % 1019,9 hPa 0,0 l/m² 10,4 km/h (2 Bft) W 266 ° 1 min 919 W/m² 12,8 °C 21,4 °C 12,9 km/h (3 Bft)
25.08.2024 12:32 23,5 °C 22,8 °C 53 % 55 % 1019,9 hPa 0,0 l/m² 14,2 km/h (3 Bft) SW 229 ° 2 min 914 W/m² 13,3 °C 20,8 °C 25,7 km/h (4 Bft)
25.08.2024 12:34 23,5 °C 23,0 °C 53 % 53 % 1019,9 hPa 0,0 l/m² 12,2 km/h (2 Bft) W-SW 251 ° 2 min 766 W/m² 12,9 °C 21,4 °C 17,7 km/h (3 Bft)
25.08.2024 12:35 23,5 °C 22,9 °C 53 % 54 % 1019,9 hPa 0,0 l/m² 12,5 km/h (2 Bft) W-NW 294 ° 1 min 698 W/m² 13,1 °C 21,3 °C 16,1 km/h (3 Bft)
25.08.2024 12:36 23,5 °C 23,0 °C 53 % 53 % 1019,9 hPa 0,0 l/m² 16,1 km/h (3 Bft) W-SW 250 ° 1 min 737 W/m² 12,9 °C 20,7 °C 20,9 km/h (4 Bft)
25.08.2024 12:37 23,5 °C 22,8 °C 52 % 54 % 1020,0 hPa 0,0 l/m² 10,7 km/h (2 Bft) SW 223 ° 1 min 552 W/m² 13,0 °C 21,6 °C 16,1 km/h (3 Bft)
25.08.2024 12:38 23,6 °C 22,8 °C 52 % 54 % 1019,9 hPa 0,0 l/m² 14,5 km/h (3 Bft) W-SW 240 ° 1 min 552 W/m² 13,0 °C 20,7 °C 24,1 km/h (4 Bft)
25.08.2024 12:39 23,6 °C 22,8 °C 52 % 54 % 1019,9 hPa 0,0 l/m² 9,7 km/h (2 Bft) W-SW 246 ° 1 min 552 W/m² 13,0 °C 21,8 °C 16,1 km/h (3 Bft)
25.08.2024 12:40 23,6 °C 22,7 °C 52 % 54 % 1019,9 hPa 0,0 l/m² 13,0 km/h (3 Bft) W-SW 254 ° 1 min 346 W/m² 12,9 °C 20,9 °C 17,7 km/h (3 Bft)
25.08.2024 12:42 23,5 °C 22,6 °C 52 % 55 % 1019,9 hPa 0,0 l/m² 9,7 km/h (2 Bft) W 274 ° 2 min 334 W/m² 13,1 °C 21,6 °C 14,5 km/h (3 Bft)
25.08.2024 12:44 23,6 °C 22,6 °C 52 % 55 % 1019,9 hPa 0,0 l/m² 9,1 km/h (2 Bft) SW 216 ° 2 min 427 W/m² 13,1 °C 21,8 °C 19,3 km/h (3 Bft)
25.08.2024 12:46 23,6 °C 22,9 °C 52 % 54 % 1019,9 hPa 0,0 l/m² 17,7 km/h (3 Bft) SW 224 ° 2 min 986 W/m² 13,1 °C 20,3 °C 24,1 km/h (4 Bft)
25.08.2024 12:47 23,6 °C 23,1 °C 52 % 53 % 1019,9 hPa 0,0 l/m² 13,2 km/h (3 Bft) SW 229 ° 1 min 935 W/m² 13,0 °C 21,3 °C 17,7 km/h (3 Bft)
25.08.2024 12:48 23,6 °C 23,2 °C 52 % 54 % 1019,8 hPa 0,0 l/m² 9,8 km/h (2 Bft) S-SW 211 ° 1 min 933 W/m² 13,4 °C 22,2 °C 12,9 km/h (3 Bft)
25.08.2024 12:49 23,6 °C 23,4 °C 52 % 54 % 1019,9 hPa 0,0 l/m² 14,3 km/h (3 Bft) S-SW 209 ° 1 min 914 W/m² 13,6 °C 21,5 °C 24,1 km/h (4 Bft)
25.08.2024 12:51 23,6 °C 23,5 °C 52 % 52 % 1019,8 hPa 0,0 l/m² 19,3 km/h (3 Bft) S-SW 197 ° 2 min 914 W/m² 13,1 °C 20,8 °C 25,7 km/h (4 Bft)
25.08.2024 12:53 23,6 °C 23,3 °C 52 % 52 % 1019,9 hPa 0,0 l/m² 19,2 km/h (3 Bft) W-SW 253 ° 2 min 367 W/m² 12,9 °C 20,6 °C 27,4 km/h (5 Bft)
25.08.2024 12:54 23,6 °C 23,1 °C 52 % 52 % 1019,9 hPa 0,0 l/m² 16,4 km/h (3 Bft) W 263 ° 1 min 367 W/m² 12,7 °C 20,8 °C 20,9 km/h (4 Bft)
25.08.2024 12:55 23,6 °C 23,1 °C 52 % 53 % 1019,9 hPa 0,0 l/m² 15,3 km/h (3 Bft) W-SW 251 ° 1 min 367 W/m² 13,0 °C 21,0 °C 27,4 km/h (5 Bft)
25.08.2024 12:56 23,6 °C 23,1 °C 52 % 52 % 1019,9 hPa 0,0 l/m² 20,7 km/h (4 Bft) W-SW 255 ° 1 min 977 W/m² 12,7 °C 20,1 °C 29,0 km/h (5 Bft)
25.08.2024 12:57 23,6 °C 23,2 °C 52 % 52 % 1020,0 hPa 0,0 l/m² 17,5 km/h (3 Bft) SW 217 ° 1 min 939 W/m² 12,8 °C 20,7 °C 25,7 km/h (4 Bft)
25.08.2024 12:58 23,6 °C 23,2 °C 51 % 53 % 1020,0 hPa 0,0 l/m² 15,9 km/h (3 Bft) SW 221 ° 1 min 926 W/m² 13,1 °C 21,0 °C 19,3 km/h (3 Bft)
25.08.2024 12:59 23,6 °C 23,3 °C 51 % 52 % 1020,0 hPa 0,0 l/m² 15,6 km/h (3 Bft) SW 215 ° 1 min 900 W/m² 12,9 °C 21,1 °C 20,9 km/h (4 Bft)
25.08.2024 13:01 23,6 °C 23,5 °C 51 % 52 % 1020,0 hPa 0,0 l/m² 16,1 km/h (3 Bft) W-SW 244 ° 2 min 396 W/m² 13,1 °C 21,3 °C 22,5 km/h (4 Bft)
25.08.2024 13:03 23,6 °C 23,4 °C 51 % 52 % 1020,0 hPa 0,0 l/m² 17,6 km/h (3 Bft) S-SW 205 ° 2 min 795 W/m² 13,0 °C 20,9 °C 29,0 km/h (5 Bft)
25.08.2024 13:04 23,6 °C 23,4 °C 51 % 52 % 1020,0 hPa 0,0 l/m² 21,1 km/h (4 Bft) SW 228 ° 1 min 795 W/m² 13,0 °C 20,5 °C 29,0 km/h (5 Bft)
25.08.2024 13:05 23,6 °C 23,3 °C 51 % 52 % 1020,0 hPa 0,0 l/m² 23,3 km/h (4 Bft) W-SW 240 ° 1 min 795 W/m² 12,9 °C 20,0 °C 37,0 km/h (5 Bft)
25.08.2024 13:06 23,6 °C 23,2 °C 51 % 51 % 1020,1 hPa 0,0 l/m² 16,8 km/h (3 Bft) W-SW 238 ° 1 min 360 W/m² 12,5 °C 20,8 °C 25,7 km/h (4 Bft)
25.08.2024 13:07 23,6 °C 22,9 °C 51 % 52 % 1020,0 hPa 0,0 l/m² 17,3 km/h (3 Bft) S-SW 213 ° 1 min 352 W/m² 12,5 °C 20,4 °C 22,5 km/h (4 Bft)
25.08.2024 13:08 23,6 °C 22,8 °C 51 % 53 % 1020,0 hPa 0,0 l/m² 15,7 km/h (3 Bft) SW 232 ° 1 min 355 W/m² 12,7 °C 20,5 °C 19,3 km/h (3 Bft)
25.08.2024 13:09 23,6 °C 22,7 °C 51 % 54 % 1020,0 hPa 0,0 l/m² 16,3 km/h (3 Bft) SW 219 ° 1 min 371 W/m² 12,9 °C 20,3 °C 20,9 km/h (4 Bft)
25.08.2024 13:11 23,6 °C 22,7 °C 51 % 53 % 1020,0 hPa 0,0 l/m² 21,7 km/h (4 Bft) W-SW 258 ° 2 min 533 W/m² 12,6 °C 19,5 °C 30,6 km/h (5 Bft)
25.08.2024 13:13 23,6 °C 22,4 °C 51 % 52 % 1020,0 hPa 0,0 l/m² 17,7 km/h (3 Bft) W-SW 242 ° 2 min 482 W/m² 12,1 °C 19,7 °C 29,0 km/h (5 Bft)
25.08.2024 13:14 23,6 °C 22,3 °C 51 % 53 % 1020,0 hPa 0,0 l/m² 16,7 km/h (3 Bft) W-SW 247 ° 1 min 404 W/m² 12,2 °C 19,7 °C 22,5 km/h (4 Bft)
25.08.2024 13:15 23,6 °C 22,3 °C 51 % 53 % 1020,1 hPa 0,0 l/m² 20,0 km/h (4 Bft) W-SW 250 ° 1 min 397 W/m² 12,2 °C 19,2 °C 25,7 km/h (4 Bft)
25.08.2024 13:16 23,6 °C 22,2 °C 51 % 53 % 1020,0 hPa 0,0 l/m² 14,5 km/h (3 Bft) W 259 ° 1 min 418 W/m² 12,2 °C 20,0 °C 29,0 km/h (5 Bft)
25.08.2024 13:17 23,6 °C 22,2 °C 51 % 53 % 1020,0 hPa 0,0 l/m² 18,8 km/h (3 Bft) W-SW 242 ° 1 min 443 W/m² 12,2 °C 19,2 °C 22,5 km/h (4 Bft)
25.08.2024 13:18 23,6 °C 22,2 °C 51 % 53 % 1020,1 hPa 0,0 l/m² 20,3 km/h (4 Bft) W-SW 252 ° 1 min 448 W/m² 12,2 °C 19,0 °C 30,6 km/h (5 Bft)
25.08.2024 13:19 23,6 °C 22,1 °C 51 % 53 % 1020,1 hPa 0,0 l/m² 17,9 km/h (3 Bft) W-SW 250 ° 1 min 450 W/m² 12,1 °C 19,3 °C 30,6 km/h (5 Bft)
25.08.2024 13:21 23,6 °C 22,0 °C 51 % 53 % 1020,1 hPa 0,0 l/m² 17,8 km/h (3 Bft) W-SW 254 ° 2 min 425 W/m² 12,0 °C 19,2 °C 27,4 km/h (5 Bft)
25.08.2024 13:23 23,5 °C 22,2 °C 51 % 54 % 1020,1 hPa 0,0 l/m² 18,0 km/h (3 Bft) SW 222 ° 2 min 497 W/m² 12,4 °C 19,4 °C 27,4 km/h (5 Bft)
25.08.2024 13:24 23,5 °C 22,3 °C 51 % 53 % 1020,1 hPa 0,0 l/m² 21,4 km/h (4 Bft) W 259 ° 1 min 492 W/m² 12,2 °C 19,0 °C 30,6 km/h (5 Bft)
25.08.2024 13:25 23,6 °C 22,3 °C 51 % 52 % 1020,1 hPa 0,0 l/m² 19,1 km/h (3 Bft) W 261 ° 1 min 501 W/m² 12,0 °C 19,3 °C 27,4 km/h (5 Bft)
25.08.2024 13:26 23,5 °C 22,2 °C 51 % 52 % 1020,1 hPa 0,0 l/m² 17,8 km/h (3 Bft) W-NW 296 ° 1 min 476 W/m² 11,9 °C 19,4 °C 27,4 km/h (5 Bft)
25.08.2024 13:27 23,6 °C 22,2 °C 51 % 52 % 1020,2 hPa 0,0 l/m² 21,8 km/h (4 Bft) W-SW 251 ° 1 min 517 W/m² 11,9 °C 18,8 °C 30,6 km/h (5 Bft)
25.08.2024 13:28 23,5 °C 22,1 °C 51 % 52 % 1020,1 hPa 0,0 l/m² 23,2 km/h (4 Bft) W-SW 249 ° 1 min 517 W/m² 11,8 °C 18,5 °C 30,6 km/h (5 Bft)
25.08.2024 13:29 23,5 °C 22,2 °C 51 % 53 % 1020,1 hPa 0,0 l/m² 16,6 km/h (3 Bft) W-SW 248 ° 1 min 606 W/m² 12,2 °C 19,6 °C 29,0 km/h (5 Bft)
25.08.2024 13:31 23,6 °C 22,3 °C 50 % 53 % 1020,1 hPa 0,0 l/m² 23,5 km/h (4 Bft) SW 219 ° 2 min 575 W/m² 12,2 °C 18,7 °C 32,2 km/h (5 Bft)
25.08.2024 13:33 23,6 °C 22,3 °C 51 % 51 % 1020,3 hPa 0,0 l/m² 25,2 km/h (4 Bft) SW 220 ° 2 min 541 W/m² 11,7 °C 18,5 °C 33,8 km/h (5 Bft)
25.08.2024 13:34 23,6 °C 22,3 °C 50 % 51 % 1020,2 hPa 0,0 l/m² 26,3 km/h (4 Bft) W-SW 246 ° 1 min 554 W/m² 11,7 °C 18,3 °C 30,6 km/h (5 Bft)
25.08.2024 13:35 23,5 °C 22,2 °C 50 % 51 % 1020,3 hPa 0,0 l/m² 26,6 km/h (4 Bft) SW 235 ° 1 min 536 W/m² 11,6 °C 18,2 °C 33,8 km/h (5 Bft)
25.08.2024 13:36 23,5 °C 22,2 °C 50 % 51 % 1020,3 hPa 0,0 l/m² 22,9 km/h (4 Bft) SW 227 ° 1 min 506 W/m² 11,6 °C 18,6 °C 29,0 km/h (5 Bft)
25.08.2024 13:37 23,5 °C 22,1 °C 50 % 52 % 1020,3 hPa 0,0 l/m² 17,9 km/h (3 Bft) SW 230 ° 1 min 504 W/m² 11,8 °C 19,3 °C 25,7 km/h (4 Bft)
25.08.2024 13:38 23,5 °C 22,2 °C 50 % 52 % 1020,4 hPa 0,0 l/m² 20,2 km/h (4 Bft) SW 221 ° 1 min 490 W/m² 11,9 °C 19,0 °C 27,4 km/h (5 Bft)
25.08.2024 13:39 23,5 °C 22,3 °C 50 % 53 % 1020,3 hPa 0,0 l/m² 19,4 km/h (3 Bft) W 269 ° 1 min 541 W/m² 12,2 °C 19,3 °C 27,4 km/h (5 Bft)
25.08.2024 13:41 23,5 °C 22,4 °C 50 % 51 % 1020,4 hPa 0,0 l/m² 20,1 km/h (4 Bft) W-SW 250 ° 2 min 563 W/m² 11,8 °C 19,3 °C 29,0 km/h (5 Bft)
25.08.2024 13:43 23,5 °C 22,3 °C 50 % 50 % 1020,4 hPa 0,0 l/m² 16,9 km/h (3 Bft) W 259 ° 2 min 559 W/m² 11,4 °C 19,7 °C 27,4 km/h (5 Bft)
25.08.2024 13:44 23,5 °C 22,3 °C 50 % 50 % 1020,4 hPa 0,0 l/m² 17,3 km/h (3 Bft) W 259 ° 1 min 561 W/m² 11,4 °C 19,6 °C 25,7 km/h (4 Bft)
25.08.2024 13:45 23,5 °C 22,3 °C 50 % 51 % 1020,5 hPa 0,0 l/m² 20,2 km/h (4 Bft) W-SW 238 ° 1 min 575 W/m² 11,7 °C 19,1 °C 25,7 km/h (4 Bft)
25.08.2024 13:46 23,5 °C 22,2 °C 50 % 51 % 1020,4 hPa 0,0 l/m² 18,4 km/h (3 Bft) W-SW 257 ° 1 min 541 W/m² 11,6 °C 19,3 °C 25,7 km/h (4 Bft)
25.08.2024 13:47 23,6 °C 22,2 °C 50 % 52 % 1020,4 hPa 0,0 l/m² 16,8 km/h (3 Bft) W 259 ° 1 min 485 W/m² 11,9 °C 19,6 °C 22,5 km/h (4 Bft)
25.08.2024 13:48 23,6 °C 22,3 °C 50 % 53 % 1020,3 hPa 0,0 l/m² 18,7 km/h (3 Bft) SW 226 ° 1 min 469 W/m² 12,2 °C 19,4 °C 25,7 km/h (4 Bft)
25.08.2024 13:49 23,6 °C 22,3 °C 50 % 52 % 1020,4 hPa 0,0 l/m² 23,8 km/h (4 Bft) W-SW 252 ° 1 min 489 W/m² 12,0 °C 18,6 °C 29,0 km/h (5 Bft)
25.08.2024 13:51 23,5 °C 22,3 °C 50 % 53 % 1020,4 hPa 0,0 l/m² 18,2 km/h (3 Bft) W-SW 240 ° 2 min 533 W/m² 12,2 °C 19,5 °C 24,1 km/h (4 Bft)
25.08.2024 13:52 23,5 °C 22,3 °C 50 % 51 % 1020,3 hPa 0,0 l/m² 20,6 km/h (4 Bft) SW 223 ° 1 min 543 W/m² 11,7 °C 19,1 °C 25,7 km/h (4 Bft)
25.08.2024 13:53 23,5 °C 22,2 °C 50 % 52 % 1020,3 hPa 0,0 l/m² 12,6 km/h (3 Bft) SW 230 ° 1 min 617 W/m² 11,9 °C 20,4 °C 19,3 km/h (3 Bft)
25.08.2024 13:54 23,5 °C 22,2 °C 50 % 53 % 1020,4 hPa 0,0 l/m² 22,1 km/h (4 Bft) SW 234 ° 1 min 563 W/m² 12,2 °C 18,7 °C 30,6 km/h (5 Bft)
25.08.2024 13:55 23,5 °C 22,3 °C 50 % 52 % 1020,4 hPa 0,0 l/m² 20,8 km/h (4 Bft) W-SW 242 ° 1 min 512 W/m² 12,0 °C 19,1 °C 29,0 km/h (5 Bft)
25.08.2024 13:56 23,6 °C 22,2 °C 50 % 51 % 1020,4 hPa 0,0 l/m² 20,3 km/h (4 Bft) SW 229 ° 1 min 476 W/m² 11,6 °C 19,0 °C 27,4 km/h (5 Bft)
25.08.2024 13:57 23,6 °C 22,2 °C 50 % 52 % 1020,5 hPa 0,0 l/m² 15,9 km/h (3 Bft) W-SW 249 ° 1 min 494 W/m² 11,9 °C 19,7 °C 19,3 km/h (3 Bft)
25.08.2024 13:58 23,5 °C 22,2 °C 50 % 52 % 1020,5 hPa 0,0 l/m² 17,9 km/h (3 Bft) W-SW 247 ° 1 min 464 W/m² 11,9 °C 19,4 °C 24,1 km/h (4 Bft)
25.08.2024 13:59 23,5 °C 22,2 °C 50 % 52 % 1020,5 hPa 0,0 l/m² 16,6 km/h (3 Bft) SW 221 ° 1 min 478 W/m² 11,9 °C 19,6 °C 22,5 km/h (4 Bft)
25.08.2024 14:01 23,5 °C 22,2 °C 50 % 52 % 1020,5 hPa 0,0 l/m² 17,4 km/h (3 Bft) W-SW 245 ° 2 min 475 W/m² 11,9 °C 19,5 °C 22,5 km/h (4 Bft)
25.08.2024 14:03 23,5 °C 22,3 °C 50 % 51 % 1020,5 hPa 0,0 l/m² 14,8 km/h (3 Bft) SW 220 ° 2 min 403 W/m² 11,7 °C 20,1 °C 20,9 km/h (4 Bft)
25.08.2024 14:04 23,5 °C 22,2 °C 49 % 51 % 1020,5 hPa 0,0 l/m² 15,5 km/h (3 Bft) W-SW 255 ° 1 min 436 W/m² 11,6 °C 19,8 °C 19,3 km/h (3 Bft)
25.08.2024 14:05 23,4 °C 22,1 °C 49 % 51 % 1020,5 hPa 0,0 l/m² 14,5 km/h (3 Bft) SW 221 ° 1 min 452 W/m² 11,5 °C 19,9 °C 19,3 km/h (3 Bft)
25.08.2024 14:06 23,4 °C 22,1 °C 49 % 52 % 1020,5 hPa 0,0 l/m² 14,1 km/h (3 Bft) SW 229 ° 1 min 427 W/m² 11,8 °C 20,0 °C 19,3 km/h (3 Bft)
25.08.2024 14:07 23,4 °C 22,2 °C 49 % 53 % 1020,5 hPa 0,0 l/m² 14,3 km/h (3 Bft) S-SW 202 ° 1 min 443 W/m² 12,2 °C 20,1 °C 19,3 km/h (3 Bft)
25.08.2024 14:08 23,5 °C 22,2 °C 49 % 52 % 1020,4 hPa 0,0 l/m² 16,6 km/h (3 Bft) SW 236 ° 1 min 401 W/m² 11,9 °C 19,6 °C 20,9 km/h (4 Bft)
25.08.2024 14:09 23,5 °C 22,2 °C 49 % 52 % 1020,4 hPa 0,0 l/m² 17,8 km/h (3 Bft) W 261 ° 1 min 439 W/m² 11,9 °C 19,4 °C 22,5 km/h (4 Bft)
25.08.2024 14:11 23,4 °C 22,1 °C 49 % 52 % 1020,5 hPa 0,0 l/m² 14,1 km/h (3 Bft) W-SW 242 ° 2 min 482 W/m² 11,8 °C 20,0 °C 22,5 km/h (4 Bft)
25.08.2024 14:13 23,4 °C 22,0 °C 49 % 52 % 1020,6 hPa 0,0 l/m² 15,0 km/h (3 Bft) S-SW 213 ° 2 min 483 W/m² 11,7 °C 19,7 °C 20,9 km/h (4 Bft)
25.08.2024 14:14 23,4 °C 22,0 °C 49 % 52 % 1020,6 hPa 0,0 l/m² 13,3 km/h (3 Bft) SW 217 ° 1 min 462 W/m² 11,7 °C 20,0 °C 16,1 km/h (3 Bft)
25.08.2024 14:15 23,4 °C 22,0 °C 49 % 52 % 1020,6 hPa 0,0 l/m² 15,4 km/h (3 Bft) SW 227 ° 1 min 452 W/m² 11,7 °C 19,6 °C 20,9 km/h (4 Bft)
25.08.2024 14:16 23,4 °C 22,1 °C 49 % 52 % 1020,7 hPa 0,0 l/m² 13,1 km/h (3 Bft) SW 219 ° 1 min 408 W/m² 11,8 °C 20,2 °C 17,7 km/h (3 Bft)
25.08.2024 14:17 23,4 °C 22,2 °C 49 % 52 % 1020,7 hPa 0,0 l/m² 12,5 km/h (2 Bft) W-SW 246 ° 1 min 415 W/m² 11,9 °C 20,4 °C 19,3 km/h (3 Bft)
25.08.2024 14:18 23,4 °C 22,2 °C 49 % 52 % 1020,6 hPa 0,0 l/m² 12,5 km/h (2 Bft) W-SW 248 ° 1 min 431 W/m² 11,9 °C 20,4 °C 17,7 km/h (3 Bft)
25.08.2024 14:19 23,4 °C 22,2 °C 49 % 52 % 1020,7 hPa 0,0 l/m² 13,6 km/h (3 Bft) W-SW 250 ° 1 min 429 W/m² 11,9 °C 20,2 °C 19,3 km/h (3 Bft)
25.08.2024 14:21 23,4 °C 22,2 °C 49 % 53 % 1020,6 hPa 0,0 l/m² 7,7 km/h (2 Bft) W-SW 249 ° 2 min 492 W/m² 12,2 °C 21,8 °C 19,3 km/h (3 Bft)
25.08.2024 14:23 23,4 °C 22,3 °C 49 % 52 % 1020,5 hPa 0,0 l/m² 8,7 km/h (2 Bft) W-SW 245 ° 2 min 512 W/m² 12,0 °C 21,6 °C 17,7 km/h (3 Bft)
25.08.2024 14:24 23,4 °C 22,3 °C 49 % 53 % 1020,6 hPa 0,0 l/m² 10,7 km/h (2 Bft) SW 226 ° 1 min 471 W/m² 12,2 °C 21,0 °C 16,1 km/h (3 Bft)
25.08.2024 14:25 23,4 °C 22,4 °C 49 % 52 % 1020,6 hPa 0,0 l/m² 15,6 km/h (3 Bft) SW 215 ° 1 min 492 W/m² 12,1 °C 20,0 °C 20,9 km/h (4 Bft)
25.08.2024 14:26 23,4 °C 22,4 °C 49 % 51 % 1020,6 hPa 0,0 l/m² 16,6 km/h (3 Bft) S-SW 202 ° 1 min 492 W/m² 11,8 °C 19,9 °C 20,9 km/h (4 Bft)
25.08.2024 14:27 23,4 °C 22,4 °C 49 % 51 % 1020,5 hPa 0,0 l/m² 17,2 km/h (3 Bft) SW 217 ° 1 min 468 W/m² 11,8 °C 19,8 °C 20,9 km/h (4 Bft)
25.08.2024 14:28 23,4 °C 22,4 °C 49 % 52 % 1020,5 hPa 0,0 l/m² 14,2 km/h (3 Bft) SW 225 ° 1 min 427 W/m² 12,1 °C 20,3 °C 16,1 km/h (3 Bft)
25.08.2024 14:29 23,4 °C 22,4 °C 49 % 52 % 1020,5 hPa 0,0 l/m² 13,2 km/h (3 Bft) SW 229 ° 1 min 434 W/m² 12,1 °C 20,5 °C 20,9 km/h (4 Bft)
25.08.2024 14:31 23,4 °C 22,6 °C 49 % 51 % 1020,5 hPa 0,0 l/m² 17,8 km/h (3 Bft) W-SW 245 ° 2 min 540 W/m² 11,9 °C 19,9 °C 20,9 km/h (4 Bft)
25.08.2024 14:33 23,4 °C 22,5 °C 49 % 51 % 1020,5 hPa 0,0 l/m² 17,4 km/h (3 Bft) W-SW 238 ° 2 min 557 W/m² 11,8 °C 19,8 °C 25,7 km/h (4 Bft)
25.08.2024 14:34 23,4 °C 22,5 °C 49 % 52 % 1020,5 hPa 0,0 l/m² 13,3 km/h (3 Bft) SW 235 ° 1 min 570 W/m² 12,1 °C 20,6 °C 19,3 km/h (3 Bft)
25.08.2024 14:35 23,4 °C 22,5 °C 49 % 52 % 1020,5 hPa 0,0 l/m² 13,1 km/h (3 Bft) W-SW 250 ° 1 min 519 W/m² 12,1 °C 20,7 °C 16,1 km/h (3 Bft)
25.08.2024 14:36 23,4 °C 22,6 °C 49 % 52 % 1020,6 hPa 0,0 l/m² 17,6 km/h (3 Bft) SW 234 ° 1 min 603 W/m² 12,2 °C 19,9 °C 25,7 km/h (4 Bft)
25.08.2024 14:37 23,4 °C 22,6 °C 49 % 51 % 1020,7 hPa 0,0 l/m² 17,8 km/h (3 Bft) W-SW 238 ° 1 min 647 W/m² 11,9 °C 19,9 °C 25,7 km/h (4 Bft)
25.08.2024 14:38 23,4 °C 22,7 °C 49 % 50 % 1020,6 hPa 0,0 l/m² 13,9 km/h (3 Bft) S-SW 213 ° 1 min 615 W/m² 11,7 °C 20,7 °C 20,9 km/h (4 Bft)
25.08.2024 14:39 23,4 °C 22,7 °C 49 % 52 % 1020,6 hPa 0,0 l/m² 9,3 km/h (2 Bft) SW 225 ° 1 min 547 W/m² 12,3 °C 21,8 °C 14,5 km/h (3 Bft)
25.08.2024 14:41 23,4 °C 22,8 °C 49 % 51 % 1020,7 hPa 0,0 l/m² 10,7 km/h (2 Bft) W 276 ° 2 min 575 W/m² 12,1 °C 21,6 °C 14,5 km/h (3 Bft)
25.08.2024 14:43 23,4 °C 22,7 °C 49 % 51 % 1020,7 hPa 0,0 l/m² 10,4 km/h (2 Bft) SW 232 ° 2 min 550 W/m² 12,0 °C 21,5 °C 14,5 km/h (3 Bft)
25.08.2024 14:44 23,4 °C 22,7 °C 49 % 51 % 1020,7 hPa 0,0 l/m² 7,1 km/h (2 Bft) SW 229 ° 1 min 526 W/m² 12,0 °C 22,5 °C 12,9 km/h (3 Bft)
25.08.2024 14:45 23,4 °C 22,7 °C 49 % 52 % 1020,7 hPa 0,0 l/m² 12,9 km/h (3 Bft) SW 231 ° 1 min 506 W/m² 12,3 °C 20,9 °C 17,7 km/h (3 Bft)
25.08.2024 14:46 23,4 °C 22,6 °C 49 % 52 % 1020,7 hPa 0,0 l/m² 12,5 km/h (2 Bft) S-SW 196 ° 1 min 506 W/m² 12,2 °C 20,9 °C 16,1 km/h (3 Bft)
25.08.2024 14:47 23,4 °C 22,7 °C 49 % 52 % 1020,6 hPa 0,0 l/m² 15,1 km/h (3 Bft) S-SW 209 ° 1 min 271 W/m² 12,3 °C 20,5 °C 17,7 km/h (3 Bft)
25.08.2024 14:48 23,4 °C 22,7 °C 49 % 51 % 1020,7 hPa 0,0 l/m² 13,1 km/h (3 Bft) SW 220 ° 1 min 271 W/m² 12,0 °C 20,9 °C 16,1 km/h (3 Bft)
25.08.2024 14:49 23,4 °C 22,8 °C 49 % 53 % 1020,7 hPa 0,0 l/m² 12,6 km/h (3 Bft) W 267 ° 1 min 501 W/m² 12,7 °C 21,1 °C 17,7 km/h (3 Bft)
25.08.2024 14:51 23,4 °C 22,8 °C 49 % 51 % 1020,7 hPa 0,0 l/m² 14,7 km/h (3 Bft) S-SW 207 ° 2 min 503 W/m² 12,1 °C 20,7 °C 17,7 km/h (3 Bft)
25.08.2024 14:53 23,4 °C 22,7 °C 49 % 51 % 1020,6 hPa 0,0 l/m² 11,2 km/h (2 Bft) S 171 ° 2 min 541 W/m² 12,0 °C 21,3 °C 17,7 km/h (3 Bft)
25.08.2024 14:54 23,4 °C 22,6 °C 49 % 51 % 1020,7 hPa 0,0 l/m² 11,2 km/h (2 Bft) S 189 ° 1 min 540 W/m² 11,9 °C 21,2 °C 14,5 km/h (3 Bft)
25.08.2024 14:55 23,4 °C 22,6 °C 49 % 51 % 1020,5 hPa 0,0 l/m² 11,1 km/h (2 Bft) S 171 ° 1 min 570 W/m² 11,9 °C 21,2 °C 14,5 km/h (3 Bft)
25.08.2024 14:56 23,4 °C 22,5 °C 49 % 52 % 1020,6 hPa 0,0 l/m² 8,4 km/h (2 Bft) SW 215 ° 1 min 582 W/m² 12,1 °C 21,9 °C 11,3 km/h (2 Bft)
25.08.2024 14:57 23,4 °C 22,5 °C 48 % 52 % 1020,6 hPa 0,0 l/m² 9,6 km/h (2 Bft) W-SW 246 ° 1 min 510 W/m² 12,1 °C 21,5 °C 11,3 km/h (2 Bft)
25.08.2024 14:58 23,4 °C 22,6 °C 49 % 53 % 1020,7 hPa 0,0 l/m² 11,6 km/h (2 Bft) SW 220 ° 1 min 499 W/m² 12,5 °C 21,1 °C 17,7 km/h (3 Bft)
25.08.2024 14:59 23,4 °C 22,7 °C 49 % 53 % 1020,6 hPa 0,0 l/m² 12,2 km/h (2 Bft) S-SW 211 ° 1 min 478 W/m² 12,6 °C 21,1 °C 17,7 km/h (3 Bft)
25.08.2024 15:01 23,4 °C 22,6 °C 49 % 51 % 1020,6 hPa 0,0 l/m² 9,4 km/h (2 Bft) SW 218 ° 2 min 487 W/m² 11,9 °C 21,7 °C 14,5 km/h (3 Bft)
25.08.2024 15:03 23,4 °C 22,4 °C 49 % 53 % 1020,5 hPa 0,0 l/m² 6,8 km/h (2 Bft) SW 236 ° 2 min 464 W/m² 12,3 °C 22,3 °C 11,3 km/h (2 Bft)
25.08.2024 15:04 23,4 °C 22,4 °C 49 % 52 % 1020,6 hPa 0,0 l/m² 2,1 km/h (1 Bft) S-SO 161 ° 1 min 473 W/m² 12,1 °C 22,4 °C 4,8 km/h (1 Bft)
25.08.2024 15:05 23,4 °C 22,3 °C 49 % 53 % 1020,5 hPa 0,0 l/m² 1,9 km/h (1 Bft) S-SW 203 ° 1 min 492 W/m² 12,2 °C 22,3 °C 3,2 km/h (1 Bft)
25.08.2024 15:06 23,4 °C 22,4 °C 49 % 54 % 1020,5 hPa 0,0 l/m² 4,4 km/h (1 Bft) S-SW 213 ° 1 min 524 W/m² 12,6 °C 22,4 °C 8,0 km/h (2 Bft)
25.08.2024 15:07 23,4 °C 22,5 °C 49 % 53 % 1020,5 hPa 0,0 l/m² 9,6 km/h (2 Bft) S-SW 201 ° 1 min 512 W/m² 12,4 °C 21,5 °C 12,9 km/h (3 Bft)
25.08.2024 15:08 23,4 °C 22,6 °C 49 % 52 % 1020,5 hPa 0,0 l/m² 9,0 km/h (2 Bft) S-SW 202 ° 1 min 508 W/m² 12,2 °C 21,8 °C 11,3 km/h (2 Bft)
25.08.2024 15:09 23,4 °C 22,6 °C 49 % 53 % 1020,5 hPa 0,0 l/m² 10,5 km/h (2 Bft) SO 144 ° 1 min 510 W/m² 12,5 °C 21,4 °C 14,5 km/h (3 Bft)
25.08.2024 15:11 23,4 °C 22,7 °C 49 % 52 % 1020,5 hPa 0,0 l/m² 11,3 km/h (2 Bft) S-SW 200 ° 2 min 438 W/m² 12,3 °C 21,3 °C 19,3 km/h (3 Bft)
25.08.2024 15:13 23,5 °C 23,0 °C 49 % 49 % 1020,5 hPa 0,0 l/m² 17,1 km/h (3 Bft) SW 221 ° 2 min 387 W/m² 11,7 °C 20,5 °C 22,5 km/h (4 Bft)
25.08.2024 15:14 23,5 °C 23,1 °C 49 % 49 % 1020,5 hPa 0,0 l/m² 9,6 km/h (2 Bft) S-SW 210 ° 1 min 454 W/m² 11,8 °C 22,2 °C 12,9 km/h (3 Bft)
25.08.2024 15:15 23,5 °C 23,1 °C 49 % 50 % 1020,5 hPa 0,0 l/m² 11,0 km/h (2 Bft) W-SW 244 ° 1 min 462 W/m² 12,1 °C 21,8 °C 14,5 km/h (3 Bft)
25.08.2024 15:16 23,5 °C 23,0 °C 49 % 49 % 1020,5 hPa 0,0 l/m² 14,9 km/h (3 Bft) W-SW 244 ° 1 min 494 W/m² 11,7 °C 20,9 °C 19,3 km/h (3 Bft)
25.08.2024 15:17 23,5 °C 23,0 °C 50 % 50 % 1020,6 hPa 0,0 l/m² 13,1 km/h (3 Bft) W-SW 244 ° 1 min 508 W/m² 12,0 °C 21,3 °C 17,7 km/h (3 Bft)
25.08.2024 15:18 23,5 °C 23,1 °C 50 % 48 % 1020,5 hPa 0,0 l/m² 11,0 km/h (2 Bft) W-SW 246 ° 1 min 510 W/m² 11,5 °C 21,8 °C 17,7 km/h (3 Bft)
25.08.2024 15:19 23,6 °C 23,1 °C 49 % 48 % 1020,5 hPa 0,0 l/m² 12,1 km/h (2 Bft) S-SW 198 ° 1 min 499 W/m² 11,5 °C 21,6 °C 19,3 km/h (3 Bft)
25.08.2024 15:20 23,5 °C 23,2 °C 49 % 48 % 1020,5 hPa 0,0 l/m² 20,2 km/h (4 Bft) S-SW 209 ° 1 min 512 W/m² 11,6 °C 20,3 °C 25,7 km/h (4 Bft)
25.08.2024 15:22 23,6 °C 23,2 °C 49 % 48 % 1020,5 hPa 0,0 l/m² 14,5 km/h (3 Bft) W-SW 245 ° 2 min 357 W/m² 11,6 °C 21,2 °C 24,1 km/h (4 Bft)
25.08.2024 15:23 23,6 °C 23,2 °C 49 % 48 % 1020,5 hPa 0,0 l/m² 17,4 km/h (3 Bft) SW 219 ° 1 min 399 W/m² 11,6 °C 20,7 °C 24,1 km/h (4 Bft)
25.08.2024 15:24 23,6 °C 23,2 °C 49 % 48 % 1020,5 hPa 0,0 l/m² 18,9 km/h (3 Bft) SW 230 ° 1 min 496 W/m² 11,6 °C 20,5 °C 22,5 km/h (4 Bft)
25.08.2024 15:25 23,6 °C 23,2 °C 49 % 48 % 1020,5 hPa 0,0 l/m² 14,8 km/h (3 Bft) SW 232 ° 1 min 473 W/m² 11,6 °C 21,2 °C 22,5 km/h (4 Bft)
25.08.2024 15:26 23,6 °C 23,3 °C 49 % 49 % 1020,5 hPa 0,0 l/m² 14,9 km/h (3 Bft) S-SW 207 ° 1 min 457 W/m² 12,0 °C 21,3 °C 19,3 km/h (3 Bft)
25.08.2024 15:27 23,6 °C 23,3 °C 49 % 48 % 1020,5 hPa 0,0 l/m² 14,0 km/h (3 Bft) SW 225 ° 1 min 480 W/m² 11,7 °C 21,4 °C 19,3 km/h (3 Bft)
25.08.2024 15:28 23,6 °C 23,3 °C 49 % 47 % 1020,5 hPa 0,0 l/m² 17,2 km/h (3 Bft) SW 217 ° 1 min 455 W/m² 11,3 °C 20,9 °C 20,9 km/h (4 Bft)
25.08.2024 15:29 23,6 °C 23,3 °C 49 % 47 % 1020,5 hPa 0,0 l/m² 14,1 km/h (3 Bft) SW 223 ° 1 min 443 W/m² 11,3 °C 21,4 °C 17,7 km/h (3 Bft)
25.08.2024 15:30 23,6 °C 23,3 °C 49 % 48 % 1020,5 hPa 0,0 l/m² 15,6 km/h (3 Bft) S-SW 210 ° 1 min 446 W/m² 11,7 °C 21,1 °C 20,9 km/h (4 Bft)
25.08.2024 15:32 23,6 °C 23,2 °C 49 % 48 % 1020,5 hPa 0,0 l/m² 13,0 km/h (3 Bft) W-SW 252 ° 2 min 489 W/m² 11,6 °C 21,5 °C 19,3 km/h (3 Bft)
25.08.2024 15:33 23,6 °C 23,2 °C 49 % 49 % 1020,5 hPa 0,0 l/m² 12,9 km/h (3 Bft) S 184 ° 1 min 478 W/m² 11,9 °C 21,5 °C 19,3 km/h (3 Bft)
25.08.2024 15:34 23,6 °C 23,3 °C 49 % 48 % 1020,5 hPa 0,0 l/m² 17,1 km/h (3 Bft) W-SW 242 ° 1 min 512 W/m² 11,7 °C 20,9 °C 19,3 km/h (3 Bft)
25.08.2024 15:35 23,6 °C 23,3 °C 49 % 48 % 1020,5 hPa 0,0 l/m² 12,5 km/h (2 Bft) SW 236 ° 1 min 499 W/m² 11,7 °C 21,7 °C 17,7 km/h (3 Bft)
25.08.2024 15:36 23,6 °C 23,3 °C 49 % 48 % 1020,5 hPa 0,0 l/m² 12,0 km/h (2 Bft) S-SW 211 ° 1 min 540 W/m² 11,7 °C 21,8 °C 14,5 km/h (3 Bft)
25.08.2024 15:37 23,6 °C 23,3 °C 49 % 47 % 1020,5 hPa 0,0 l/m² 13,4 km/h (3 Bft) S-SW 209 ° 1 min 547 W/m² 11,3 °C 21,5 °C 17,7 km/h (3 Bft)
25.08.2024 15:38 23,6 °C 23,3 °C 49 % 48 % 1020,5 hPa 0,0 l/m² 14,8 km/h (3 Bft) SW 221 ° 1 min 522 W/m² 11,7 °C 21,3 °C 17,7 km/h (3 Bft)
25.08.2024 15:39 23,6 °C 23,4 °C 49 % 48 % 1020,5 hPa 0,0 l/m² 13,1 km/h (3 Bft) S-SW 209 ° 1 min 548 W/m² 11,8 °C 21,7 °C 16,1 km/h (3 Bft)
25.08.2024 15:40 23,6 °C 23,4 °C 49 % 48 % 1020,5 hPa 0,0 l/m² 13,7 km/h (3 Bft) SW 224 ° 1 min 547 W/m² 11,8 °C 21,6 °C 19,3 km/h (3 Bft)
25.08.2024 15:42 23,6 °C 23,7 °C 49 % 49 % 1020,6 hPa 0,0 l/m² 14,1 km/h (3 Bft) S-SW 192 ° 2 min 585 W/m² 12,3 °C 21,9 °C 19,3 km/h (3 Bft)
25.08.2024 15:44 23,6 °C 23,6 °C 49 % 47 % 1020,5 hPa 0,0 l/m² 16,2 km/h (3 Bft) S-SW 196 ° 2 min 596 W/m² 11,6 °C 21,4 °C 20,9 km/h (4 Bft)
25.08.2024 15:46 23,6 °C 23,6 °C 48 % 47 % 1020,4 hPa 0,0 l/m² 17,0 km/h (3 Bft) S-SW 203 ° 2 min 536 W/m² 11,6 °C 21,3 °C 22,5 km/h (4 Bft)
25.08.2024 15:47 23,6 °C 23,7 °C 49 % 47 % 1020,5 hPa 0,0 l/m² 20,7 km/h (4 Bft) SW 215 ° 1 min 582 W/m² 11,7 °C 20,9 °C 24,1 km/h (4 Bft)
25.08.2024 15:48 23,6 °C 23,6 °C 48 % 47 % 1020,5 hPa 0,0 l/m² 16,0 km/h (3 Bft) SW 214 ° 1 min 594 W/m² 11,6 °C 21,4 °C 22,5 km/h (4 Bft)
25.08.2024 15:49 23,6 °C 23,6 °C 48 % 48 % 1020,5 hPa 0,0 l/m² 13,7 km/h (3 Bft) S-SW 213 ° 1 min 628 W/m² 11,9 °C 21,8 °C 20,9 km/h (4 Bft)
25.08.2024 15:51 23,6 °C 23,6 °C 48 % 48 % 1020,4 hPa 0,0 l/m² 12,0 km/h (2 Bft) W-SW 243 ° 2 min 642 W/m² 11,9 °C 22,2 °C 16,1 km/h (3 Bft)
25.08.2024 15:53 23,6 °C 23,6 °C 48 % 48 % 1020,4 hPa 0,0 l/m² 11,1 km/h (2 Bft) S-SW 202 ° 2 min 577 W/m² 11,9 °C 22,4 °C 14,5 km/h (3 Bft)
25.08.2024 15:54 23,6 °C 23,6 °C 48 % 47 % 1020,4 hPa 0,0 l/m² 12,7 km/h (3 Bft) S-SW 199 ° 1 min 577 W/m² 11,6 °C 22,0 °C 14,5 km/h (3 Bft)
25.08.2024 15:55 23,6 °C 23,6 °C 48 % 49 % 1020,5 hPa 0,0 l/m² 11,8 km/h (2 Bft) SW 230 ° 1 min 577 W/m² 12,2 °C 22,2 °C 16,1 km/h (3 Bft)
25.08.2024 15:57 23,6 °C 23,6 °C 48 % 48 % 1020,4 hPa 0,0 l/m² 11,7 km/h (2 Bft) W-SW 250 ° 2 min 320 W/m² 11,9 °C 22,2 °C 17,7 km/h (3 Bft)
25.08.2024 15:58 23,6 °C 23,5 °C 48 % 47 % 1020,4 hPa 0,0 l/m² 13,1 km/h (3 Bft) SW 234 ° 1 min 323 W/m² 11,5 °C 21,8 °C 17,7 km/h (3 Bft)
25.08.2024 15:59 23,6 °C 23,3 °C 48 % 48 % 1020,5 hPa 0,0 l/m² 10,6 km/h (2 Bft) SW 221 ° 1 min 323 W/m² 11,7 °C 22,1 °C 16,1 km/h (3 Bft)
25.08.2024 16:01 23,6 °C 23,0 °C 48 % 48 % 1020,5 hPa 0,0 l/m² 6,4 km/h (2 Bft) W-SW 245 ° 2 min 332 W/m² 11,4 °C 23,0 °C 12,9 km/h (3 Bft)
25.08.2024 16:03 23,6 °C 23,0 °C 49 % 50 % 1020,5 hPa 0,0 l/m² 9,7 km/h (2 Bft) SW 228 ° 2 min 299 W/m² 12,0 °C 22,0 °C 16,1 km/h (3 Bft)
25.08.2024 16:04 23,6 °C 23,1 °C 49 % 48 % 1020,6 hPa 0,0 l/m² 7,9 km/h (2 Bft) W 264 ° 1 min 299 W/m² 11,5 °C 22,6 °C 14,5 km/h (3 Bft)
25.08.2024 16:05 23,6 °C 23,1 °C 49 % 49 % 1020,5 hPa 0,0 l/m² 9,9 km/h (2 Bft) S 186 ° 1 min 299 W/m² 11,8 °C 22,1 °C 14,5 km/h (3 Bft)
25.08.2024 16:06 23,6 °C 23,1 °C 49 % 48 % 1020,5 hPa 0,0 l/m² 12,2 km/h (2 Bft) S-SW 195 ° 1 min 271 W/m² 11,5 °C 21,6 °C 14,5 km/h (3 Bft)
25.08.2024 16:07 23,6 °C 23,1 °C 49 % 48 % 1020,5 hPa 0,0 l/m² 12,4 km/h (2 Bft) S-SW 203 ° 1 min 278 W/m² 11,5 °C 21,5 °C 17,7 km/h (3 Bft)
25.08.2024 16:08 23,6 °C 23,1 °C 49 % 48 % 1020,5 hPa 0,0 l/m² 13,2 km/h (3 Bft) S-SW 193 ° 1 min 497 W/m² 11,5 °C 21,3 °C 17,7 km/h (3 Bft)
25.08.2024 16:09 23,6 °C 23,2 °C 49 % 48 % 1020,5 hPa 0,0 l/m² 13,1 km/h (3 Bft) S-SW 196 ° 1 min 555 W/m² 11,6 °C 21,5 °C 16,1 km/h (3 Bft)
25.08.2024 16:11 23,6 °C 23,2 °C 49 % 48 % 1020,5 hPa 0,0 l/m² 13,2 km/h (3 Bft) S-SW 202 ° 2 min 418 W/m² 11,6 °C 21,5 °C 16,1 km/h (3 Bft)
25.08.2024 16:13 23,6 °C 23,4 °C 48 % 48 % 1020,4 hPa 0,0 l/m² 10,8 km/h (2 Bft) W-SW 258 ° 2 min 548 W/m² 11,8 °C 22,2 °C 14,5 km/h (3 Bft)
25.08.2024 16:14 23,6 °C 23,6 °C 48 % 48 % 1020,5 hPa 0,0 l/m² 11,9 km/h (2 Bft) SW 225 ° 1 min 258 W/m² 11,9 °C 22,2 °C 17,7 km/h (3 Bft)
25.08.2024 16:15 23,6 °C 23,6 °C 48 % 48 % 1020,5 hPa 0,0 l/m² 13,2 km/h (3 Bft) SW 219 ° 1 min 239 W/m² 11,9 °C 21,9 °C 19,3 km/h (3 Bft)
25.08.2024 16:16 23,6 °C 23,4 °C 48 % 47 % 1020,4 hPa 0,0 l/m² 13,3 km/h (3 Bft) S 186 ° 1 min 227 W/m² 11,4 °C 21,7 °C 16,1 km/h (3 Bft)
25.08.2024 16:17 23,6 °C 23,4 °C 48 % 48 % 1020,5 hPa 0,0 l/m² 13,3 km/h (3 Bft) S-SW 198 ° 1 min 221 W/m² 11,8 °C 21,7 °C 16,1 km/h (3 Bft)
25.08.2024 16:18 23,6 °C 23,2 °C 49 % 48 % 1020,5 hPa 0,0 l/m² 12,0 km/h (2 Bft) S 182 ° 1 min 221 W/m² 11,6 °C 21,7 °C 16,1 km/h (3 Bft)
25.08.2024 16:19 23,6 °C 23,1 °C 49 % 47 % 1020,4 hPa 0,0 l/m² 15,6 km/h (3 Bft) S 182 ° 1 min 220 W/m² 11,2 °C 20,9 °C 20,9 km/h (4 Bft)
25.08.2024 16:21 23,6 °C 22,8 °C 49 % 48 % 1020,5 hPa 0,0 l/m² 10,1 km/h (2 Bft) SW 223 ° 2 min 220 W/m² 11,2 °C 21,7 °C 14,5 km/h (3 Bft)
25.08.2024 16:23 23,6 °C 22,7 °C 49 % 50 % 1020,4 hPa 0,0 l/m² 4,9 km/h (1 Bft) W-SW 244 ° 2 min 225 W/m² 11,7 °C 22,7 °C 9,7 km/h (2 Bft)
25.08.2024 16:24 23,6 °C 22,7 °C 48 % 49 % 1020,4 hPa 0,0 l/m² 7,2 km/h (2 Bft) SW 236 ° 1 min 216 W/m² 11,4 °C 22,4 °C 11,3 km/h (2 Bft)
25.08.2024 16:25 23,6 °C 22,7 °C 48 % 50 % 1020,4 hPa 0,0 l/m² 9,0 km/h (2 Bft) SW 216 ° 1 min 207 W/m² 11,7 °C 21,9 °C 14,5 km/h (3 Bft)
25.08.2024 16:26 23,6 °C 22,7 °C 48 % 49 % 1020,5 hPa 0,0 l/m² 9,7 km/h (2 Bft) W-SW 245 ° 1 min 204 W/m² 11,4 °C 21,7 °C 16,1 km/h (3 Bft)
25.08.2024 16:27 23,6 °C 22,7 °C 48 % 49 % 1020,5 hPa 0,0 l/m² 4,6 km/h (1 Bft) W-SW 244 ° 1 min 207 W/m² 11,4 °C 22,7 °C 6,4 km/h (2 Bft)
25.08.2024 16:28 23,6 °C 22,6 °C 48 % 49 % 1020,5 hPa 0,0 l/m² 1,1 km/h (1 Bft) W-SW 244 ° 1 min 211 W/m² 11,3 °C 22,6 °C 3,2 km/h (1 Bft)
25.08.2024 16:29 23,6 °C 22,6 °C 48 % 50 % 1020,5 hPa 0,0 l/m² 1,5 km/h (1 Bft) W-SW 244 ° 1 min 218 W/m² 11,6 °C 22,6 °C 3,2 km/h (1 Bft)
25.08.2024 16:31 23,5 °C 22,7 °C 48 % 50 % 1020,5 hPa 0,0 l/m² 4,3 km/h (1 Bft) W-SW 238 ° 2 min 260 W/m² 11,7 °C 22,7 °C 9,7 km/h (2 Bft)
25.08.2024 16:33 23,6 °C 22,7 °C 48 % 48 % 1020,5 hPa 0,0 l/m² 7,6 km/h (2 Bft) SW 233 ° 2 min 241 W/m² 11,1 °C 22,3 °C 11,3 km/h (2 Bft)
25.08.2024 16:34 23,5 °C 22,8 °C 48 % 49 % 1020,4 hPa 0,0 l/m² 6,4 km/h (2 Bft) W-SW 238 ° 1 min 239 W/m² 11,5 °C 22,8 °C 8,0 km/h (2 Bft)
25.08.2024 16:35 23,5 °C 22,8 °C 48 % 48 % 1020,4 hPa 0,0 l/m² 10,5 km/h (2 Bft) SW 225 ° 1 min 241 W/m² 11,2 °C 21,6 °C 14,5 km/h (3 Bft)
25.08.2024 16:36 23,5 °C 22,8 °C 48 % 48 % 1020,4 hPa 0,0 l/m² 9,2 km/h (2 Bft) S-SW 204 ° 1 min 234 W/m² 11,2 °C 21,9 °C 12,9 km/h (3 Bft)
25.08.2024 16:38 23,5 °C 22,9 °C 48 % 47 % 1020,4 hPa 0,0 l/m² 11,6 km/h (2 Bft) SW 232 ° 2 min 251 W/m² 11,0 °C 21,5 °C 17,7 km/h (3 Bft)
25.08.2024 16:39 23,4 °C 22,9 °C 48 % 47 % 1020,4 hPa 0,0 l/m² 17,8 km/h (3 Bft) SW 215 ° 1 min 251 W/m² 11,0 °C 20,3 °C 19,3 km/h (3 Bft)
25.08.2024 16:41 23,5 °C 22,9 °C 48 % 48 % 1020,4 hPa 0,0 l/m² 15,1 km/h (3 Bft) S-SW 192 ° 2 min 327 W/m² 11,3 °C 20,7 °C 20,9 km/h (4 Bft)
25.08.2024 16:43 23,5 °C 23,0 °C 48 % 48 % 1020,4 hPa 0,0 l/m² 14,0 km/h (3 Bft) SW 223 ° 2 min 311 W/m² 11,4 °C 21,1 °C 19,3 km/h (3 Bft)
25.08.2024 16:44 23,5 °C 23,1 °C 48 % 48 % 1020,4 hPa 0,0 l/m² 8,9 km/h (2 Bft) S 191 ° 1 min 311 W/m² 11,5 °C 22,4 °C 9,7 km/h (2 Bft)
25.08.2024 16:45 23,5 °C 23,1 °C 48 % 48 % 1020,4 hPa 0,0 l/m² 8,6 km/h (2 Bft) SW 214 ° 1 min 504 W/m² 11,5 °C 22,4 °C 11,3 km/h (2 Bft)
25.08.2024 16:46 23,5 °C 23,2 °C 48 % 48 % 1020,4 hPa 0,0 l/m² 13,1 km/h (3 Bft) S-SW 205 ° 1 min 504 W/m² 11,6 °C 21,5 °C 16,1 km/h (3 Bft)
25.08.2024 16:47 23,4 °C 23,3 °C 48 % 47 % 1020,4 hPa 0,0 l/m² 17,1 km/h (3 Bft) S-SW 202 ° 1 min 468 W/m² 11,3 °C 20,9 °C 19,3 km/h (3 Bft)
25.08.2024 16:48 23,4 °C 23,3 °C 48 % 47 % 1020,4 hPa 0,0 l/m² 13,9 km/h (3 Bft) S-SW 199 ° 1 min 364 W/m² 11,3 °C 21,4 °C 16,1 km/h (3 Bft)
25.08.2024 16:49 23,4 °C 23,3 °C 48 % 47 % 1020,4 hPa 0,0 l/m² 15,4 km/h (3 Bft) S 177 ° 1 min 350 W/m² 11,3 °C 21,2 °C 19,3 km/h (3 Bft)
25.08.2024 16:51 23,5 °C 23,3 °C 48 % 47 % 1020,4 hPa 0,0 l/m² 15,3 km/h (3 Bft) S-SW 196 ° 2 min 448 W/m² 11,3 °C 21,2 °C 19,3 km/h (3 Bft)
25.08.2024 16:53 23,4 °C 23,3 °C 48 % 48 % 1020,4 hPa 0,0 l/m² 10,9 km/h (2 Bft) SW 229 ° 2 min 454 W/m² 11,7 °C 22,1 °C 16,1 km/h (3 Bft)
25.08.2024 16:54 23,5 °C 23,4 °C 48 % 47 % 1020,4 hPa 0,0 l/m² 11,3 km/h (2 Bft) S-SW 208 ° 1 min 471 W/m² 11,4 °C 22,1 °C 14,5 km/h (3 Bft)
25.08.2024 16:55 23,5 °C 23,6 °C 48 % 47 % 1020,5 hPa 0,0 l/m² 13,1 km/h (3 Bft) SW 218 ° 1 min 397 W/m² 11,6 °C 22,0 °C 16,1 km/h (3 Bft)
25.08.2024 16:56 23,5 °C 23,6 °C 48 % 46 % 1020,4 hPa 0,0 l/m² 13,3 km/h (3 Bft) S 181 ° 1 min 397 W/m² 11,3 °C 21,9 °C 16,1 km/h (3 Bft)
25.08.2024 16:57 23,4 °C 23,7 °C 48 % 45 % 1020,4 hPa 0,0 l/m² 16,2 km/h (3 Bft) S 180 ° 1 min 397 W/m² 11,1 °C 21,5 °C 24,1 km/h (4 Bft)
25.08.2024 16:58 23,4 °C 23,7 °C 48 % 45 % 1020,5 hPa 0,0 l/m² 14,6 km/h (3 Bft) S-SW 199 ° 1 min 269 W/m² 11,1 °C 21,8 °C 17,7 km/h (3 Bft)
25.08.2024 16:59 23,4 °C 23,7 °C 48 % 44 % 1020,5 hPa 0,0 l/m² 13,9 km/h (3 Bft) S-SW 203 ° 1 min 260 W/m² 10,7 °C 21,9 °C 16,1 km/h (3 Bft)
25.08.2024 17:01 23,4 °C 23,4 °C 48 % 45 % 1020,4 hPa 0,0 l/m² 15,1 km/h (3 Bft) S-SW 200 ° 2 min 287 W/m² 10,8 °C 21,4 °C 19,3 km/h (3 Bft)
25.08.2024 17:03 23,4 °C 23,3 °C 48 % 45 % 1020,4 hPa 0,0 l/m² 14,0 km/h (3 Bft) S 183 ° 2 min 227 W/m² 10,7 °C 21,4 °C 17,7 km/h (3 Bft)
25.08.2024 17:04 23,4 °C 23,3 °C 48 % 46 % 1020,5 hPa 0,0 l/m² 11,0 km/h (2 Bft) S 183 ° 1 min 221 W/m² 11,0 °C 22,0 °C 14,5 km/h (3 Bft)
25.08.2024 17:05 23,4 °C 23,3 °C 48 % 45 % 1020,5 hPa 0,0 l/m² 10,5 km/h (2 Bft) SW 221 ° 1 min 216 W/m² 10,7 °C 22,2 °C 14,5 km/h (3 Bft)
25.08.2024 17:06 23,4 °C 23,2 °C 48 % 47 % 1020,4 hPa 0,0 l/m² 10,6 km/h (2 Bft) W-SW 247 ° 1 min 190 W/m² 11,3 °C 22,0 °C 16,1 km/h (3 Bft)
25.08.2024 17:07 23,4 °C 23,2 °C 48 % 46 % 1020,6 hPa 0,0 l/m² 13,2 km/h (3 Bft) SW 232 ° 1 min 179 W/m² 10,9 °C 21,5 °C 20,9 km/h (4 Bft)
25.08.2024 17:08 23,4 °C 23,1 °C 48 % 44 % 1020,4 hPa 0,0 l/m² 12,2 km/h (2 Bft) W-SW 258 ° 1 min 171 W/m² 10,2 °C 21,6 °C 20,9 km/h (4 Bft)
25.08.2024 17:09 23,4 °C 23,1 °C 48 % 44 % 1020,4 hPa 0,0 l/m² 8,8 km/h (2 Bft) SW 235 ° 1 min 167 W/m² 10,2 °C 22,4 °C 12,9 km/h (3 Bft)
25.08.2024 17:11 23,4 °C 22,9 °C 48 % 43 % 1020,5 hPa 0,0 l/m² 9,3 km/h (2 Bft) W-SW 240 ° 2 min 169 W/m² 9,6 °C 22,0 °C 14,5 km/h (3 Bft)
25.08.2024 17:13 23,4 °C 22,9 °C 48 % 43 % 1020,4 hPa 0,0 l/m² 9,5 km/h (2 Bft) SW 232 ° 2 min 181 W/m² 9,6 °C 22,0 °C 16,1 km/h (3 Bft)
25.08.2024 17:14 23,4 °C 22,8 °C 48 % 43 % 1020,4 hPa 0,0 l/m² 8,1 km/h (2 Bft) W 266 ° 1 min 195 W/m² 9,6 °C 22,3 °C 12,9 km/h (3 Bft)
25.08.2024 17:15 23,4 °C 22,8 °C 48 % 43 % 1020,4 hPa 0,0 l/m² 9,8 km/h (2 Bft) W 264 ° 1 min 271 W/m² 9,6 °C 21,8 °C 16,1 km/h (3 Bft)
25.08.2024 17:16 23,4 °C 22,8 °C 48 % 43 % 1020,4 hPa 0,0 l/m² 8,0 km/h (2 Bft) W-SW 252 ° 1 min 246 W/m² 9,6 °C 22,3 °C 12,9 km/h (3 Bft)
25.08.2024 17:17 23,4 °C 23,0 °C 48 % 44 % 1020,5 hPa 0,0 l/m² 8,9 km/h (2 Bft) SW 224 ° 1 min 246 W/m² 10,1 °C 22,2 °C 12,9 km/h (3 Bft)
25.08.2024 17:18 23,4 °C 23,3 °C 48 % 44 % 1020,4 hPa 0,0 l/m² 13,3 km/h (3 Bft) W-SW 249 ° 1 min 585 W/m² 10,4 °C 21,6 °C 17,7 km/h (3 Bft)
25.08.2024 17:19 23,4 °C 23,5 °C 48 % 43 % 1020,4 hPa 0,0 l/m² 9,9 km/h (2 Bft) W-SW 254 ° 1 min 585 W/m² 10,2 °C 22,5 °C 16,1 km/h (3 Bft)
25.08.2024 17:21 23,4 °C 23,6 °C 47 % 42 % 1020,5 hPa 0,0 l/m² 6,1 km/h (2 Bft) S-SW 199 ° 2 min 278 W/m² 9,9 °C 23,6 °C 12,9 km/h (3 Bft)
25.08.2024 17:23 23,4 °C 23,8 °C 47 % 42 % 1020,5 hPa 0,0 l/m² 10,2 km/h (2 Bft) SW 215 ° 2 min 225 W/m² 10,1 °C 22,8 °C 14,5 km/h (3 Bft)
25.08.2024 17:24 23,4 °C 23,8 °C 47 % 41 % 1020,5 hPa 0,0 l/m² 11,1 km/h (2 Bft) SW 229 ° 1 min 225 W/m² 9,7 °C 22,6 °C 14,5 km/h (3 Bft)
25.08.2024 17:25 23,4 °C 23,8 °C 47 % 41 % 1020,5 hPa 0,0 l/m² 7,0 km/h (2 Bft) W 267 ° 1 min 543 W/m² 9,7 °C 23,6 °C 11,3 km/h (2 Bft)
25.08.2024 17:26 23,4 °C 23,9 °C 47 % 42 % 1020,5 hPa 0,0 l/m² 5,9 km/h (2 Bft) W-SW 248 ° 1 min 547 W/m² 10,2 °C 23,9 °C 12,9 km/h (3 Bft)
25.08.2024 17:27 23,4 °C 24,1 °C 47 % 42 % 1020,4 hPa 0,0 l/m² 7,0 km/h (2 Bft) W-SW 246 ° 1 min 543 W/m² 10,4 °C 23,9 °C 11,3 km/h (2 Bft)
25.08.2024 17:28 23,4 °C 24,3 °C 47 % 41 % 1020,4 hPa 0,0 l/m² 4,8 km/h (1 Bft) W 278 ° 1 min 461 W/m² 10,2 °C 24,3 °C 8,0 km/h (2 Bft)
25.08.2024 17:29 23,4 °C 24,3 °C 47 % 41 % 1020,4 hPa 0,0 l/m² 4,9 km/h (1 Bft) W 259 ° 1 min 244 W/m² 10,2 °C 24,3 °C 12,9 km/h (3 Bft)
25.08.2024 17:31 23,4 °C 24,2 °C 47 % 41 % 1020,5 hPa 0,0 l/m² 11,3 km/h (2 Bft) W 277 ° 2 min 244 W/m² 10,1 °C 23,0 °C 17,7 km/h (3 Bft)
25.08.2024 17:33 23,4 °C 23,8 °C 47 % 41 % 1020,5 hPa 0,0 l/m² 9,3 km/h (2 Bft) W-SW 242 ° 2 min 244 W/m² 9,7 °C 23,0 °C 16,1 km/h (3 Bft)
25.08.2024 17:34 23,4 °C 23,6 °C 47 % 41 % 1020,4 hPa 0,0 l/m² 13,9 km/h (3 Bft) W 261 ° 1 min 236 W/m² 9,6 °C 21,8 °C 20,9 km/h (4 Bft)
25.08.2024 17:35 23,4 °C 23,6 °C 46 % 41 % 1020,4 hPa 0,0 l/m² 11,1 km/h (2 Bft) W-SW 245 ° 1 min 239 W/m² 9,6 °C 22,4 °C 14,5 km/h (3 Bft)
25.08.2024 17:36 23,4 °C 23,4 °C 46 % 42 % 1020,5 hPa 0,0 l/m² 15,8 km/h (3 Bft) W-SW 242 ° 1 min 239 W/m² 9,7 °C 21,2 °C 20,9 km/h (4 Bft)
25.08.2024 17:37 23,4 °C 23,4 °C 46 % 42 % 1020,5 hPa 0,0 l/m² 14,7 km/h (3 Bft) W-SW 252 ° 1 min 258 W/m² 9,7 °C 21,4 °C 19,3 km/h (3 Bft)
25.08.2024 17:38 23,4 °C 23,3 °C 46 % 41 % 1020,4 hPa 0,0 l/m² 12,5 km/h (2 Bft) W-SW 243 ° 1 min 276 W/m² 9,3 °C 21,7 °C 16,1 km/h (3 Bft)
25.08.2024 17:39 23,4 °C 23,3 °C 46 % 42 % 1020,4 hPa 0,0 l/m² 14,3 km/h (3 Bft) W-SW 255 ° 1 min 276 W/m² 9,7 °C 21,4 °C 17,7 km/h (3 Bft)
25.08.2024 17:41 23,4 °C 23,5 °C 45 % 42 % 1020,4 hPa 0,0 l/m² 14,8 km/h (3 Bft) W-SW 248 ° 2 min 533 W/m² 9,8 °C 21,5 °C 20,9 km/h (4 Bft)
25.08.2024 17:43 23,4 °C 23,7 °C 46 % 42 % 1020,4 hPa 0,0 l/m² 11,5 km/h (2 Bft) SW 231 ° 2 min 478 W/m² 10,0 °C 22,4 °C 17,7 km/h (3 Bft)
25.08.2024 17:44 23,4 °C 23,8 °C 46 % 41 % 1020,4 hPa 0,0 l/m² 11,1 km/h (2 Bft) W 261 ° 1 min 494 W/m² 9,7 °C 22,6 °C 19,3 km/h (3 Bft)
25.08.2024 17:45 23,4 °C 23,9 °C 45 % 42 % 1020,4 hPa 0,0 l/m² 11,7 km/h (2 Bft) W 267 ° 1 min 494 W/m² 10,2 °C 22,6 °C 17,7 km/h (3 Bft)
25.08.2024 17:46 23,4 °C 23,9 °C 45 % 41 % 1020,4 hPa 0,0 l/m² 11,7 km/h (2 Bft) SW 223 ° 1 min 216 W/m² 9,8 °C 22,6 °C 20,9 km/h (4 Bft)
25.08.2024 17:47 23,4 °C 23,8 °C 45 % 41 % 1020,4 hPa 0,0 l/m² 9,8 km/h (2 Bft) SW 234 ° 1 min 204 W/m² 9,7 °C 22,9 °C 12,9 km/h (3 Bft)
25.08.2024 17:48 23,4 °C 23,8 °C 45 % 42 % 1020,5 hPa 0,0 l/m² 9,5 km/h (2 Bft) W-SW 251 ° 1 min 304 W/m² 10,1 °C 23,0 °C 12,9 km/h (3 Bft)
25.08.2024 17:49 23,4 °C 23,8 °C 45 % 41 % 1020,6 hPa 0,0 l/m² 11,1 km/h (2 Bft) W-SW 254 ° 1 min 304 W/m² 9,7 °C 22,6 °C 14,5 km/h (3 Bft)
25.08.2024 17:51 23,4 °C 23,7 °C 45 % 42 % 1020,6 hPa 0,0 l/m² 6,9 km/h (2 Bft) W-NW 283 ° 2 min 200 W/m² 10,0 °C 23,6 °C 14,5 km/h (3 Bft)
25.08.2024 17:53 23,4 °C 23,6 °C 45 % 41 % 1020,5 hPa 0,0 l/m² 8,9 km/h (2 Bft) SW 221 ° 2 min 229 W/m² 9,6 °C 22,9 °C 14,5 km/h (3 Bft)
25.08.2024 17:54 23,4 °C 23,5 °C 46 % 42 % 1020,5 hPa 0,0 l/m² 8,6 km/h (2 Bft) SW 234 ° 1 min 327 W/m² 9,8 °C 22,9 °C 12,9 km/h (3 Bft)
25.08.2024 17:55 23,4 °C 23,5 °C 46 % 42 % 1020,5 hPa 0,0 l/m² 10,5 km/h (2 Bft) W-SW 253 ° 1 min 227 W/m² 9,8 °C 22,4 °C 20,9 km/h (4 Bft)
25.08.2024 17:56 23,4 °C 23,4 °C 46 % 42 % 1020,4 hPa 0,0 l/m² 17,2 km/h (3 Bft) W-SW 237 ° 1 min 216 W/m² 9,7 °C 21,0 °C 20,9 km/h (4 Bft)
25.08.2024 17:57 23,4 °C 23,4 °C 46 % 42 % 1020,6 hPa 0,0 l/m² 14,1 km/h (3 Bft) W-SW 246 ° 1 min 262 W/m² 9,7 °C 21,5 °C 19,3 km/h (3 Bft)
25.08.2024 17:58 23,4 °C 23,4 °C 46 % 42 % 1020,6 hPa 0,0 l/m² 10,3 km/h (2 Bft) W-SW 258 ° 1 min 283 W/m² 9,7 °C 22,3 °C 14,5 km/h (3 Bft)
25.08.2024 17:59 23,4 °C 23,4 °C 46 % 42 % 1020,5 hPa 0,0 l/m² 8,3 km/h (2 Bft) W 263 ° 1 min 380 W/m² 9,7 °C 22,8 °C 12,9 km/h (3 Bft)
25.08.2024 18:01 23,4 °C 23,6 °C 46 % 42 % 1020,5 hPa 0,0 l/m² 6,9 km/h (2 Bft) W 274 ° 2 min 207 W/m² 9,9 °C 23,5 °C 12,9 km/h (3 Bft)
25.08.2024 18:03 23,4 °C 23,6 °C 46 % 42 % 1020,6 hPa 0,0 l/m² 4,7 km/h (1 Bft) W-SW 244 ° 2 min 209 W/m² 9,9 °C 23,6 °C 11,3 km/h (2 Bft)
25.08.2024 18:04 23,4 °C 23,6 °C 46 % 42 % 1020,6 hPa 0,0 l/m² 4,0 km/h (1 Bft) W 261 ° 1 min 158 W/m² 9,9 °C 23,6 °C 6,4 km/h (2 Bft)
25.08.2024 18:05 23,4 °C 23,5 °C 46 % 42 % 1020,5 hPa 0,0 l/m² 5,0 km/h (1 Bft) W-SW 250 ° 1 min 158 W/m² 9,8 °C 23,5 °C 11,3 km/h (2 Bft)
25.08.2024 18:06 23,4 °C 23,4 °C 45 % 42 % 1020,5 hPa 0,0 l/m² 5,1 km/h (1 Bft) W-SW 244 ° 1 min 158 W/m² 9,7 °C 23,4 °C 11,3 km/h (2 Bft)
25.08.2024 18:07 23,4 °C 23,3 °C 45 % 42 % 1020,5 hPa 0,0 l/m² 2,2 km/h (1 Bft) W-SW 245 ° 1 min 156 W/m² 9,7 °C 23,3 °C 4,8 km/h (1 Bft)
25.08.2024 18:08 23,5 °C 23,2 °C 46 % 43 % 1020,5 hPa 0,0 l/m² 4,2 km/h (1 Bft) SW 217 ° 1 min 144 W/m² 9,9 °C 23,2 °C 9,7 km/h (2 Bft)
25.08.2024 18:09 23,4 °C 23,2 °C 46 % 43 % 1020,5 hPa 0,0 l/m² 9,9 km/h (2 Bft) W-SW 238 ° 1 min 137 W/m² 9,9 °C 22,2 °C 12,9 km/h (3 Bft)
25.08.2024 18:11 23,4 °C 23,1 °C 45 % 43 % 1020,5 hPa 0,0 l/m² 6,7 km/h (2 Bft) W-NW 288 ° 2 min 137 W/m² 9,8 °C 23,0 °C 14,5 km/h (3 Bft)
25.08.2024 18:13 23,5 °C 22,9 °C 45 % 44 % 1020,5 hPa 0,0 l/m² 7,0 km/h (2 Bft) W 266 ° 2 min 185 W/m² 10,0 °C 22,7 °C 17,7 km/h (3 Bft)
25.08.2024 18:14 23,5 °C 23,1 °C 45 % 43 % 1020,5 hPa 0,0 l/m² 5,6 km/h (2 Bft) W-SW 242 ° 1 min 204 W/m² 9,8 °C 23,1 °C 9,7 km/h (2 Bft)
25.08.2024 18:15 23,4 °C 23,1 °C 45 % 43 % 1020,5 hPa 0,0 l/m² 7,2 km/h (2 Bft) W-SW 254 ° 1 min 183 W/m² 9,8 °C 22,8 °C 14,5 km/h (3 Bft)
25.08.2024 18:16 23,4 °C 23,2 °C 45 % 43 % 1020,5 hPa 0,0 l/m² 9,5 km/h (2 Bft) W-SW 255 ° 1 min 156 W/m² 9,9 °C 22,3 °C 14,5 km/h (3 Bft)
25.08.2024 18:17 23,4 °C 23,2 °C 45 % 43 % 1020,5 hPa 0,0 l/m² 8,7 km/h (2 Bft) W-NW 297 ° 1 min 163 W/m² 9,9 °C 22,5 °C 14,5 km/h (3 Bft)
25.08.2024 18:18 23,4 °C 23,2 °C 45 % 43 % 1020,6 hPa 0,0 l/m² 6,7 km/h (2 Bft) W-SW 244 ° 1 min 167 W/m² 9,9 °C 23,1 °C 12,9 km/h (3 Bft)
25.08.2024 18:19 23,4 °C 23,2 °C 45 % 43 % 1020,5 hPa 0,0 l/m² 8,8 km/h (2 Bft) W 266 ° 1 min 200 W/m² 9,9 °C 22,5 °C 12,9 km/h (3 Bft)
25.08.2024 18:21 23,4 °C 23,3 °C 46 % 44 % 1020,6 hPa 0,0 l/m² 7,6 km/h (2 Bft) W 261 ° 2 min 176 W/m² 10,4 °C 22,9 °C 14,5 km/h (3 Bft)
25.08.2024 18:23 23,4 °C 23,4 °C 46 % 43 % 1020,5 hPa 0,0 l/m² 5,6 km/h (2 Bft) W-NW 284 ° 2 min 174 W/m² 10,1 °C 23,4 °C 14,5 km/h (3 Bft)
25.08.2024 18:24 23,4 °C 23,5 °C 45 % 43 % 1020,6 hPa 0,0 l/m² 8,6 km/h (2 Bft) W-SW 258 ° 1 min 202 W/m² 10,2 °C 22,9 °C 17,7 km/h (3 Bft)
25.08.2024 18:25 23,4 °C 23,6 °C 46 % 43 % 1020,6 hPa 0,0 l/m² 5,7 km/h (2 Bft) NW 309 ° 1 min 183 W/m² 10,3 °C 23,6 °C 11,3 km/h (2 Bft)
25.08.2024 18:26 23,4 °C 23,7 °C 46 % 42 % 1020,5 hPa 0,0 l/m² 9,7 km/h (2 Bft) W 271 ° 1 min 174 W/m² 10,0 °C 22,8 °C 17,7 km/h (3 Bft)
25.08.2024 18:27 23,4 °C 23,7 °C 46 % 42 % 1020,6 hPa 0,0 l/m² 5,6 km/h (2 Bft) W 267 ° 1 min 209 W/m² 10,0 °C 23,7 °C 8,0 km/h (2 Bft)
25.08.2024 18:28 23,4 °C 23,6 °C 46 % 42 % 1020,5 hPa 0,0 l/m² 5,8 km/h (2 Bft) W-SW 242 ° 1 min 176 W/m² 9,9 °C 23,6 °C 11,3 km/h (2 Bft)
25.08.2024 18:29 23,4 °C 23,7 °C 46 % 43 % 1020,6 hPa 0,0 l/m² 11,9 km/h (2 Bft) W-SW 249 ° 1 min 193 W/m² 10,4 °C 22,3 °C 17,7 km/h (3 Bft)
25.08.2024 18:31 23,4 °C 23,6 °C 46 % 42 % 1020,6 hPa 0,0 l/m² 10,2 km/h (2 Bft) SW 232 ° 2 min 141 W/m² 9,9 °C 22,6 °C 14,5 km/h (3 Bft)
25.08.2024 18:32 23,4 °C 23,4 °C 46 % 42 % 1020,6 hPa 0,0 l/m² 10,1 km/h (2 Bft) W-SW 256 ° 1 min 162 W/m² 9,7 °C 22,4 °C 12,9 km/h (3 Bft)
25.08.2024 18:33 23,4 °C 23,4 °C 46 % 43 % 1020,6 hPa 0,0 l/m² 7,5 km/h (2 Bft) SW 233 ° 1 min 221 W/m² 10,1 °C 23,1 °C 9,7 km/h (2 Bft)
25.08.2024 18:34 23,4 °C 23,4 °C 46 % 43 % 1020,5 hPa 0,0 l/m² 10,3 km/h (2 Bft) SW 221 ° 1 min 151 W/m² 10,1 °C 22,3 °C 14,5 km/h (3 Bft)
25.08.2024 18:35 23,5 °C 23,3 °C 46 % 44 % 1020,5 hPa 0,0 l/m² 8,9 km/h (2 Bft) SW 221 ° 1 min 135 W/m² 10,4 °C 22,6 °C 11,3 km/h (2 Bft)
25.08.2024 18:36 23,5 °C 23,4 °C 46 % 44 % 1020,5 hPa 0,0 l/m² 8,4 km/h (2 Bft) SW 228 ° 1 min 114 W/m² 10,4 °C 22,8 °C 9,7 km/h (2 Bft)
25.08.2024 18:37 23,5 °C 23,3 °C 46 % 43 % 1020,5 hPa 0,0 l/m² 6,1 km/h (2 Bft) SW 219 ° 1 min 118 W/m² 10,0 °C 23,3 °C 8,0 km/h (2 Bft)
25.08.2024 18:38 23,4 °C 23,2 °C 46 % 44 % 1020,5 hPa 0,0 l/m² 7,8 km/h (2 Bft) SW 223 ° 1 min 120 W/m² 10,3 °C 22,8 °C 12,9 km/h (3 Bft)
25.08.2024 18:39 23,4 °C 23,2 °C 46 % 44 % 1020,6 hPa 0,0 l/m² 11,5 km/h (2 Bft) SW 217 ° 1 min 120 W/m² 10,3 °C 21,8 °C 12,9 km/h (3 Bft)
25.08.2024 18:41 23,5 °C 23,1 °C 46 % 45 % 1020,5 hPa 0,0 l/m² 11,3 km/h (2 Bft) SW 217 ° 2 min 111 W/m² 10,5 °C 21,8 °C 17,7 km/h (3 Bft)
25.08.2024 18:43 23,5 °C 22,9 °C 46 % 45 % 1020,4 hPa 0,0 l/m² 13,7 km/h (3 Bft) W-SW 244 ° 2 min 102 W/m² 10,3 °C 21,0 °C 19,3 km/h (3 Bft)
25.08.2024 18:44 23,5 °C 22,9 °C 46 % 45 % 1020,4 hPa 0,0 l/m² 12,7 km/h (3 Bft) W-SW 245 ° 1 min 102 W/m² 10,3 °C 21,2 °C 17,7 km/h (3 Bft)
25.08.2024 18:46 23,4 °C 22,7 °C 46 % 44 % 1020,5 hPa 0,0 l/m² 15,0 km/h (3 Bft) W-SW 240 ° 2 min 98 W/m² 9,8 °C 20,5 °C 17,7 km/h (3 Bft)
25.08.2024 18:47 23,5 °C 22,7 °C 46 % 45 % 1020,4 hPa 0,0 l/m² 13,7 km/h (3 Bft) W 273 ° 1 min 98 W/m² 10,1 °C 20,8 °C 17,7 km/h (3 Bft)
25.08.2024 18:48 23,5 °C 22,7 °C 46 % 45 % 1020,5 hPa 0,0 l/m² 11,1 km/h (2 Bft) W-SW 242 ° 1 min 95 W/m² 10,1 °C 21,3 °C 14,5 km/h (3 Bft)
25.08.2024 18:49 23,6 °C 22,7 °C 46 % 45 % 1020,5 hPa 0,0 l/m² 13,5 km/h (3 Bft) W-SW 252 ° 1 min 91 W/m² 10,1 °C 20,8 °C 17,7 km/h (3 Bft)
25.08.2024 18:51 23,5 °C 22,6 °C 46 % 44 % 1020,6 hPa 0,0 l/m² 12,5 km/h (2 Bft) W-SW 245 ° 2 min 84 W/m² 9,7 °C 20,9 °C 16,1 km/h (3 Bft)
25.08.2024 18:53 23,6 °C 22,6 °C 47 % 44 % 1020,6 hPa 0,0 l/m² 13,5 km/h (3 Bft) W-SW 238 ° 2 min 83 W/m² 9,7 °C 20,7 °C 17,7 km/h (3 Bft)
25.08.2024 18:54 23,6 °C 22,6 °C 47 % 44 % 1020,6 hPa 0,0 l/m² 13,1 km/h (3 Bft) SW 228 ° 1 min 81 W/m² 9,7 °C 20,8 °C 16,1 km/h (3 Bft)
25.08.2024 18:56 23,6 °C 22,6 °C 47 % 45 % 1020,6 hPa 0,0 l/m² 11,2 km/h (2 Bft) W-SW 240 ° 2 min 76 W/m² 10,1 °C 21,2 °C 16,1 km/h (3 Bft)
25.08.2024 18:57 23,6 °C 22,6 °C 47 % 45 % 1020,6 hPa 0,0 l/m² 11,0 km/h (2 Bft) W-SW 253 ° 1 min 76 W/m² 10,1 °C 21,3 °C 14,5 km/h (3 Bft)
25.08.2024 18:58 23,6 °C 22,6 °C 47 % 45 % 1020,6 hPa 0,0 l/m² 7,6 km/h (2 Bft) W 263 ° 1 min 77 W/m² 10,1 °C 22,2 °C 12,9 km/h (3 Bft)
25.08.2024 18:59 23,5 °C 22,6 °C 47 % 44 % 1020,6 hPa 0,0 l/m² 6,2 km/h (2 Bft) W-SW 242 ° 1 min 81 W/m² 9,7 °C 22,6 °C 8,0 km/h (2 Bft)
25.08.2024 19:01 23,6 °C 22,7 °C 47 % 44 % 1020,7 hPa 0,0 l/m² 6,1 km/h (2 Bft) W 266 ° 2 min 84 W/m² 9,8 °C 22,7 °C 11,3 km/h (2 Bft)
25.08.2024 19:03 23,6 °C 22,6 °C 47 % 45 % 1020,7 hPa 0,0 l/m² 5,9 km/h (2 Bft) W-SW 242 ° 2 min 95 W/m² 10,1 °C 22,6 °C 12,9 km/h (3 Bft)
25.08.2024 19:04 23,6 °C 22,6 °C 47 % 45 % 1020,6 hPa 0,0 l/m² 6,4 km/h (2 Bft) W 269 ° 1 min 98 W/m² 10,1 °C 22,6 °C 11,3 km/h (2 Bft)
25.08.2024 19:05 23,6 °C 22,6 °C 47 % 44 % 1020,6 hPa 0,0 l/m² 5,0 km/h (1 Bft) W-SW 258 ° 1 min 86 W/m² 9,7 °C 22,6 °C 9,7 km/h (2 Bft)
25.08.2024 19:06 23,6 °C 22,6 °C 47 % 44 % 1020,6 hPa 0,0 l/m² 4,6 km/h (1 Bft) W-SW 250 ° 1 min 81 W/m² 9,7 °C 22,6 °C 6,4 km/h (2 Bft)
25.08.2024 19:07 23,6 °C 22,6 °C 47 % 44 % 1020,7 hPa 0,0 l/m² 3,0 km/h (1 Bft) W 260 ° 1 min 77 W/m² 9,7 °C 22,6 °C 4,8 km/h (1 Bft)
25.08.2024 19:08 23,6 °C 22,6 °C 47 % 44 % 1020,6 hPa 0,0 l/m² 2,4 km/h (1 Bft) W-SW 252 ° 1 min 72 W/m² 9,7 °C 22,6 °C 4,8 km/h (1 Bft)
25.08.2024 19:09 23,6 °C 22,6 °C 47 % 45 % 1020,6 hPa 0,0 l/m² 2,9 km/h (1 Bft) W 269 ° 1 min 67 W/m² 10,1 °C 22,6 °C 6,4 km/h (2 Bft)
25.08.2024 19:11 23,6 °C 22,4 °C 47 % 45 % 1020,6 hPa 0,0 l/m² 2,6 km/h (1 Bft) W-SW 257 ° 2 min 62 W/m² 9,9 °C 22,4 °C 4,8 km/h (1 Bft)
25.08.2024 19:13 23,6 °C 22,4 °C 48 % 45 % 1020,7 hPa 0,0 l/m² 3,5 km/h (1 Bft) W 267 ° 2 min 60 W/m² 9,9 °C 22,4 °C 6,4 km/h (2 Bft)
25.08.2024 19:14 23,6 °C 22,4 °C 48 % 45 % 1020,7 hPa 0,0 l/m² 2,7 km/h (1 Bft) W-SW 250 ° 1 min 58 W/m² 9,9 °C 22,4 °C 4,8 km/h (1 Bft)
25.08.2024 19:15 23,6 °C 22,4 °C 48 % 45 % 1020,7 hPa 0,0 l/m² 2,7 km/h (1 Bft) W 265 ° 1 min 56 W/m² 9,9 °C 22,4 °C 4,8 km/h (1 Bft)
25.08.2024 19:16 23,6 °C 22,4 °C 48 % 45 % 1020,6 hPa 0,0 l/m² 4,2 km/h (1 Bft) W-SW 256 ° 1 min 54 W/m² 9,9 °C 22,4 °C 8,0 km/h (2 Bft)
25.08.2024 19:17 23,6 °C 22,3 °C 48 % 45 % 1020,5 hPa 0,0 l/m² 5,4 km/h (2 Bft) W-SW 248 ° 1 min 54 W/m² 9,8 °C 22,3 °C 9,7 km/h (2 Bft)
25.08.2024 19:18 23,6 °C 22,3 °C 48 % 45 % 1020,6 hPa 0,0 l/m² 6,0 km/h (2 Bft) W-SW 243 ° 1 min 56 W/m² 9,8 °C 22,3 °C 11,3 km/h (2 Bft)
25.08.2024 19:19 23,6 °C 22,3 °C 48 % 45 % 1020,6 hPa 0,0 l/m² 8,7 km/h (2 Bft) SW 229 ° 1 min 56 W/m² 9,8 °C 21,6 °C 11,3 km/h (2 Bft)
25.08.2024 19:21 23,6 °C 22,2 °C 48 % 46 % 1020,6 hPa 0,0 l/m² 6,2 km/h (2 Bft) SW 235 ° 2 min 54 W/m² 10,0 °C 22,2 °C 11,3 km/h (2 Bft)
25.08.2024 19:23 23,6 °C 22,1 °C 48 % 46 % 1020,7 hPa 0,0 l/m² 8,0 km/h (2 Bft) W-SW 257 ° 0 min 51 W/m² 9,9 °C 21,6 °C 11,3 km/h (2 Bft)
25.08.2024 19:24 23,6 °C 22,0 °C 48 % 46 % 1020,7 hPa 0,0 l/m² 9,3 km/h (2 Bft) W 269 ° 0 min 49 W/m² 9,8 °C 21,0 °C 12,9 km/h (3 Bft)
25.08.2024 19:25 23,6 °C 22,0 °C 48 % 46 % 1020,7 hPa 0,0 l/m² 6,3 km/h (2 Bft) W 260 ° 0 min 47 W/m² 9,8 °C 22,0 °C 11,3 km/h (2 Bft)
25.08.2024 19:26 23,6 °C 21,9 °C 48 % 47 % 1020,7 hPa 0,0 l/m² 8,4 km/h (2 Bft) W-SW 241 ° 0 min 44 W/m² 10,1 °C 21,2 °C 12,9 km/h (3 Bft)
25.08.2024 19:27 23,6 °C 21,9 °C 48 % 47 % 1020,7 hPa 0,0 l/m² 10,5 km/h (2 Bft) W-SW 252 ° 0 min 42 W/m² 10,1 °C 20,6 °C 14,5 km/h (3 Bft)
25.08.2024 19:28 23,6 °C 21,8 °C 48 % 47 % 1020,7 hPa 0,0 l/m² 7,5 km/h (2 Bft) W-SW 249 ° 0 min 42 W/m² 10,0 °C 21,4 °C 11,3 km/h (2 Bft)
25.08.2024 19:29 23,6 °C 21,8 °C 48 % 47 % 1020,7 hPa 0,0 l/m² 6,2 km/h (2 Bft) W-SW 246 ° 0 min 42 W/m² 10,0 °C 21,8 °C 9,7 km/h (2 Bft)
25.08.2024 19:31 23,6 °C 21,8 °C 48 % 47 % 1020,7 hPa 0,0 l/m² 6,5 km/h (2 Bft) W-SW 248 ° 0 min 40 W/m² 10,0 °C 21,8 °C 11,3 km/h (2 Bft)
25.08.2024 19:33 23,6 °C 21,7 °C 49 % 47 % 1020,7 hPa 0,0 l/m² 5,4 km/h (2 Bft) W-SW 245 ° 0 min 39 W/m² 9,9 °C 21,7 °C 11,3 km/h (2 Bft)
25.08.2024 19:34 23,6 °C 21,7 °C 49 % 47 % 1020,7 hPa 0,0 l/m² 6,6 km/h (2 Bft) W 260 ° 0 min 37 W/m² 9,9 °C 21,6 °C 9,7 km/h (2 Bft)
25.08.2024 19:35 23,6 °C 21,7 °C 49 % 47 % 1020,7 hPa 0,0 l/m² 6,0 km/h (2 Bft) W-SW 248 ° 0 min 35 W/m² 9,9 °C 21,7 °C 9,7 km/h (2 Bft)
25.08.2024 19:36 23,6 °C 21,6 °C 49 % 47 % 1020,7 hPa 0,0 l/m² 4,9 km/h (1 Bft) W-SW 253 ° 0 min 35 W/m² 9,8 °C 21,6 °C 8,0 km/h (2 Bft)
25.08.2024 19:37 23,6 °C 21,6 °C 49 % 47 % 1020,7 hPa 0,0 l/m² 5,2 km/h (1 Bft) W-SW 255 ° 0 min 33 W/m² 9,8 °C 21,6 °C 6,4 km/h (2 Bft)
25.08.2024 19:38 23,6 °C 21,6 °C 48 % 47 % 1020,7 hPa 0,0 l/m² 4,9 km/h (1 Bft) W-SW 246 ° 0 min 33 W/m² 9,8 °C 21,6 °C 6,4 km/h (2 Bft)
25.08.2024 19:39 23,6 °C 21,5 °C 48 % 47 % 1020,7 hPa 0,0 l/m² 4,8 km/h (1 Bft) W-SW 241 ° 0 min 32 W/m² 9,7 °C 21,5 °C 6,4 km/h (2 Bft)
25.08.2024 19:41 23,6 °C 21,4 °C 47 % 48 % 1020,7 hPa 0,0 l/m² 4,9 km/h (1 Bft) W-SW 246 ° 0 min 32 W/m² 9,9 °C 21,4 °C 8,0 km/h (2 Bft)
25.08.2024 19:43 23,6 °C 21,3 °C 47 % 48 % 1020,6 hPa 0,0 l/m² 4,1 km/h (1 Bft) W-SW 247 ° 0 min 30 W/m² 9,8 °C 21,3 °C 6,4 km/h (2 Bft)
25.08.2024 19:44 23,6 °C 21,3 °C 47 % 48 % 1020,6 hPa 0,0 l/m² 4,0 km/h (1 Bft) W-SW 248 ° 0 min 28 W/m² 9,8 °C 21,3 °C 4,8 km/h (1 Bft)
25.08.2024 19:45 23,6 °C 21,2 °C 47 % 49 % 1020,7 hPa 0,0 l/m² 3,8 km/h (1 Bft) W-SW 248 ° 0 min 28 W/m² 10,1 °C 21,2 °C 4,8 km/h (1 Bft)
25.08.2024 19:46 23,6 °C 21,2 °C 47 % 49 % 1020,7 hPa 0,0 l/m² 4,4 km/h (1 Bft) W-SW 250 ° 0 min 26 W/m² 10,1 °C 21,2 °C 4,8 km/h (1 Bft)
25.08.2024 19:47 23,6 °C 21,1 °C 47 % 49 % 1020,7 hPa 0,0 l/m² 3,8 km/h (1 Bft) W-SW 251 ° 0 min 26 W/m² 10,0 °C 21,1 °C 4,8 km/h (1 Bft)
25.08.2024 19:48 23,6 °C 21,0 °C 47 % 49 % 1020,7 hPa 0,0 l/m² 4,7 km/h (1 Bft) W-SW 252 ° 0 min 25 W/m² 9,9 °C 21,0 °C 6,4 km/h (2 Bft)
25.08.2024 19:49 23,6 °C 20,9 °C 47 % 49 % 1020,8 hPa 0,0 l/m² 4,4 km/h (1 Bft) W-SW 250 ° 0 min 25 W/m² 9,8 °C 20,9 °C 6,4 km/h (2 Bft)
25.08.2024 19:51 23,5 °C 20,8 °C 47 % 50 % 1020,8 hPa 0,0 l/m² 4,5 km/h (1 Bft) W-SW 244 ° 0 min 23 W/m² 10,0 °C 20,8 °C 6,4 km/h (2 Bft)
25.08.2024 19:52 23,6 °C 20,8 °C 47 % 50 % 1020,8 hPa 0,0 l/m² 4,3 km/h (1 Bft) W-SW 248 ° 0 min 21 W/m² 10,0 °C 20,8 °C 6,4 km/h (2 Bft)
25.08.2024 19:53 23,6 °C 20,7 °C 47 % 50 % 1020,8 hPa 0,0 l/m² 4,6 km/h (1 Bft) W-SW 251 ° 0 min 21 W/m² 9,9 °C 20,7 °C 6,4 km/h (2 Bft)
25.08.2024 19:54 23,6 °C 20,7 °C 47 % 50 % 1020,8 hPa 0,0 l/m² 4,4 km/h (1 Bft) W-SW 251 ° 0 min 19 W/m² 9,9 °C 20,7 °C 6,4 km/h (2 Bft)
25.08.2024 19:55 23,5 °C 20,6 °C 47 % 51 % 1020,8 hPa 0,0 l/m² 3,2 km/h (1 Bft) W-SW 252 ° 0 min 19 W/m² 10,1 °C 20,6 °C 4,8 km/h (1 Bft)
25.08.2024 19:56 23,5 °C 20,6 °C 47 % 51 % 1020,8 hPa 0,0 l/m² 2,3 km/h (1 Bft) W-SW 252 ° 0 min 19 W/m² 10,1 °C 20,6 °C 3,2 km/h (1 Bft)
25.08.2024 19:57 23,5 °C 20,5 °C 47 % 51 % 1020,8 hPa 0,0 l/m² 2,3 km/h (1 Bft) W-SW 252 ° 0 min 18 W/m² 10,0 °C 20,5 °C 3,2 km/h (1 Bft)
25.08.2024 19:58 23,5 °C 20,4 °C 47 % 51 % 1020,8 hPa 0,0 l/m² 1,8 km/h (1 Bft) W-SW 252 ° 0 min 16 W/m² 9,9 °C 20,4 °C 3,2 km/h (1 Bft)
25.08.2024 19:59 23,5 °C 20,3 °C 47 % 54 % 1020,8 hPa 0,0 l/m² 1,9 km/h (1 Bft) W-SW 252 ° 0 min 16 W/m² 10,7 °C 20,3 °C 4,8 km/h (1 Bft)
25.08.2024 20:01 23,5 °C 20,2 °C 48 % 52 % 1020,8 hPa 0,0 l/m² 2,6 km/h (1 Bft) W 260 ° 0 min 14 W/m² 10,0 °C 20,2 °C 6,4 km/h (2 Bft)
25.08.2024 20:03 23,5 °C 20,1 °C 48 % 52 % 1020,9 hPa 0,0 l/m² 1,7 km/h (1 Bft) W 261 ° 0 min 12 W/m² 9,9 °C 20,1 °C 3,2 km/h (1 Bft)
25.08.2024 20:04 23,5 °C 20,0 °C 47 % 52 % 1020,9 hPa 0,0 l/m² 2,8 km/h (1 Bft) W 261 ° 0 min 12 W/m² 9,8 °C 20,0 °C 4,8 km/h (1 Bft)
25.08.2024 20:05 23,5 °C 19,9 °C 47 % 52 % 1021,0 hPa 0,0 l/m² 2,5 km/h (1 Bft) W 261 ° 0 min 12 W/m² 9,7 °C 19,9 °C 3,2 km/h (1 Bft)
25.08.2024 20:06 23,5 °C 19,9 °C 47 % 52 % 1021,0 hPa 0,0 l/m² 1,9 km/h (1 Bft) W 261 ° 0 min 12 W/m² 9,7 °C 19,9 °C 3,2 km/h (1 Bft)
25.08.2024 20:07 23,5 °C 19,9 °C 47 % 53 % 1021,0 hPa 0,0 l/m² 1,7 km/h (1 Bft) W 261 ° 0 min 11 W/m² 10,0 °C 19,9 °C 3,2 km/h (1 Bft)
25.08.2024 20:08 23,5 °C 19,9 °C 47 % 54 % 1021,0 hPa 0,0 l/m² 0,6 km/h (0 Bft) W 261 ° 0 min 9 W/m² 10,3 °C 19,9 °C 1,6 km/h (1 Bft)
25.08.2024 20:09 23,5 °C 19,8 °C 47 % 54 % 1021,0 hPa 0,0 l/m² 0,7 km/h (0 Bft) W 261 ° 0 min 9 W/m² 10,2 °C 19,8 °C 3,2 km/h (1 Bft)
25.08.2024 20:11 23,4 °C 19,7 °C 47 % 53 % 1021,0 hPa 0,0 l/m² 0,9 km/h (0 Bft) W 261 ° 0 min 9 W/m² 9,8 °C 19,7 °C 1,6 km/h (1 Bft)
25.08.2024 20:12 23,5 °C 19,7 °C 48 % 53 % 1021,0 hPa 0,0 l/m² 0,6 km/h (0 Bft) W 261 ° 0 min 7 W/m² 9,8 °C 19,7 °C 1,6 km/h (1 Bft)
25.08.2024 20:13 23,5 °C 19,7 °C 48 % 53 % 1021,0 hPa 0,0 l/m² 1,7 km/h (1 Bft) W 263 ° 0 min 7 W/m² 9,8 °C 19,7 °C 3,2 km/h (1 Bft)
25.08.2024 20:14 23,5 °C 19,7 °C 48 % 54 % 1021,0 hPa 0,0 l/m² 1,5 km/h (1 Bft) W 263 ° 0 min 7 W/m² 10,1 °C 19,7 °C 3,2 km/h (1 Bft)
25.08.2024 20:15 23,5 °C 19,6 °C 48 % 55 % 1021,1 hPa 0,0 l/m² 0,9 km/h (0 Bft) W 263 ° 0 min 7 W/m² 10,3 °C 19,6 °C 1,6 km/h (1 Bft)
25.08.2024 20:17 23,5 °C 19,4 °C 48 % 55 % 1021,1 hPa 0,0 l/m² 1,3 km/h (1 Bft) W 263 ° 0 min 5 W/m² 10,1 °C 19,4 °C 3,2 km/h (1 Bft)
25.08.2024 20:18 23,5 °C 19,4 °C 48 % 54 % 1021,1 hPa 0,0 l/m² 0,7 km/h (0 Bft) W 263 ° 0 min 5 W/m² 9,8 °C 19,4 °C 1,6 km/h (1 Bft)
25.08.2024 20:19 23,5 °C 19,3 °C 47 % 55 % 1021,0 hPa 0,0 l/m² 0,6 km/h (0 Bft) W 263 ° 0 min 0 W/m² 10,0 °C 19,3 °C 1,6 km/h (1 Bft)
25.08.2024 20:21 23,5 °C 19,2 °C 47 % 55 % 1021,1 hPa 0,0 l/m² 0,7 km/h (0 Bft) W 263 ° 0 min 0 W/m² 9,9 °C 19,2 °C 3,2 km/h (1 Bft)
25.08.2024 20:22 23,5 °C 19,2 °C 47 % 55 % 1021,1 hPa 0,0 l/m² 1,4 km/h (1 Bft) W 263 ° 0 min 0 W/m² 9,9 °C 19,2 °C 3,2 km/h (1 Bft)
25.08.2024 20:23 23,5 °C 19,2 °C 47 % 55 % 1021,1 hPa 0,0 l/m² 0,0 km/h (0 Bft) W 263 ° 0 min 0 W/m² 9,9 °C 19,2 °C 0,0 km/h (0 Bft)
25.08.2024 20:24 23,5 °C 19,1 °C 47 % 55 % 1021,1 hPa 0,0 l/m² 0,0 km/h (0 Bft) W 263 ° 0 min 0 W/m² 9,8 °C 19,1 °C 0,0 km/h (0 Bft)
25.08.2024 20:25 23,5 °C 19,0 °C 47 % 56 % 1021,1 hPa 0,0 l/m² 0,0 km/h (0 Bft) W 263 ° 0 min 0 W/m² 10,0 °C 19,0 °C 0,0 km/h (0 Bft)
25.08.2024 20:26 23,5 °C 18,9 °C 47 % 57 % 1021,2 hPa 0,0 l/m² 0,9 km/h (0 Bft) W 263 ° 0 min 0 W/m² 10,2 °C 18,9 °C 3,2 km/h (1 Bft)
25.08.2024 20:27 23,5 °C 18,9 °C 47 % 56 % 1021,2 hPa 0,0 l/m² 2,1 km/h (1 Bft) W 263 ° 0 min 0 W/m² 9,9 °C 18,9 °C 3,2 km/h (1 Bft)
25.08.2024 20:28 23,6 °C 18,8 °C 47 % 55 % 1021,2 hPa 0,0 l/m² 2,8 km/h (1 Bft) W 263 ° 0 min 0 W/m² 9,6 °C 18,8 °C 3,2 km/h (1 Bft)
25.08.2024 20:29 23,5 °C 18,8 °C 48 % 56 % 1021,2 hPa 0,0 l/m² 2,5 km/h (1 Bft) W 273 ° 0 min 0 W/m² 9,8 °C 18,8 °C 4,8 km/h (1 Bft)
25.08.2024 20:31 23,5 °C 18,7 °C 48 % 56 % 1021,1 hPa 0,0 l/m² 1,8 km/h (1 Bft) W 277 ° 0 min 0 W/m² 9,7 °C 18,7 °C 3,2 km/h (1 Bft)
25.08.2024 20:33 23,5 °C 18,6 °C 48 % 56 % 1021,2 hPa 0,0 l/m² 2,8 km/h (1 Bft) W-NW 292 ° 0 min 0 W/m² 9,6 °C 18,6 °C 4,8 km/h (1 Bft)
25.08.2024 20:34 23,6 °C 18,5 °C 48 % 57 % 1021,3 hPa 0,0 l/m² 2,7 km/h (1 Bft) W-NW 293 ° 0 min 0 W/m² 9,8 °C 18,5 °C 3,2 km/h (1 Bft)
25.08.2024 20:35 23,6 °C 18,4 °C 48 % 57 % 1021,3 hPa 0,0 l/m² 2,2 km/h (1 Bft) W-NW 292 ° 0 min 0 W/m² 9,7 °C 18,4 °C 3,2 km/h (1 Bft)
25.08.2024 20:36 23,6 °C 18,4 °C 48 % 57 % 1021,3 hPa 0,0 l/m² 2,5 km/h (1 Bft) W-NW 292 ° 0 min 0 W/m² 9,7 °C 18,4 °C 3,2 km/h (1 Bft)
25.08.2024 20:37 23,6 °C 18,3 °C 48 % 57 % 1021,3 hPa 0,0 l/m² 2,6 km/h (1 Bft) W-NW 292 ° 0 min 0 W/m² 9,6 °C 18,3 °C 3,2 km/h (1 Bft)
25.08.2024 20:38 23,6 °C 18,3 °C 48 % 57 % 1021,3 hPa 0,0 l/m² 3,6 km/h (1 Bft) W-NW 292 ° 0 min 0 W/m² 9,6 °C 18,3 °C 4,8 km/h (1 Bft)
25.08.2024 20:39 23,6 °C 18,3 °C 48 % 57 % 1021,3 hPa 0,0 l/m² 2,6 km/h (1 Bft) W-NW 292 ° 0 min 0 W/m² 9,6 °C 18,3 °C 4,8 km/h (1 Bft)
25.08.2024 20:41 23,6 °C 18,2 °C 48 % 57 % 1021,3 hPa 0,0 l/m² 1,5 km/h (1 Bft) W-NW 293 ° 0 min 0 W/m² 9,5 °C 18,2 °C 3,2 km/h (1 Bft)
25.08.2024 20:43 23,6 °C 18,1 °C 48 % 57 % 1021,4 hPa 0,0 l/m² 0,7 km/h (0 Bft) W-NW 292 ° 0 min 0 W/m² 9,4 °C 18,1 °C 1,6 km/h (1 Bft)
25.08.2024 20:44 23,6 °C 18,1 °C 48 % 58 % 1021,4 hPa 0,0 l/m² 0,0 km/h (0 Bft) W-NW 292 ° 0 min 0 W/m² 9,7 °C 18,1 °C 0,0 km/h (0 Bft)
25.08.2024 20:45 23,6 °C 17,9 °C 48 % 61 % 1021,4 hPa 0,0 l/m² 0,0 km/h (0 Bft) W-NW 292 ° 0 min 0 W/m² 10,3 °C 17,9 °C 0,0 km/h (0 Bft)
25.08.2024 20:46 23,6 °C 17,8 °C 48 % 64 % 1021,4 hPa 0,0 l/m² 0,0 km/h (0 Bft) W-NW 292 ° 0 min 0 W/m² 10,9 °C 17,8 °C 0,0 km/h (0 Bft)
25.08.2024 20:47 23,6 °C 17,7 °C 48 % 64 % 1021,4 hPa 0,0 l/m² 0,0 km/h (0 Bft) W-NW 292 ° 0 min 0 W/m² 10,8 °C 17,7 °C 0,0 km/h (0 Bft)
25.08.2024 20:48 23,6 °C 17,6 °C 48 % 65 % 1021,5 hPa 0,0 l/m² 0,9 km/h (0 Bft) W-NW 292 ° 0 min 0 W/m² 10,9 °C 17,6 °C 3,2 km/h (1 Bft)
25.08.2024 20:49 23,6 °C 17,5 °C 48 % 65 % 1021,4 hPa 0,0 l/m² 1,7 km/h (1 Bft) W-NW 292 ° 0 min 0 W/m² 10,8 °C 17,5 °C 3,2 km/h (1 Bft)
25.08.2024 20:51 23,6 °C 17,3 °C 48 % 63 % 1021,5 hPa 0,0 l/m² 0,2 km/h (0 Bft) W-NW 292 ° 0 min 0 W/m² 10,2 °C 17,3 °C 1,6 km/h (1 Bft)
25.08.2024 20:52 23,6 °C 17,3 °C 48 % 61 % 1021,5 hPa 0,0 l/m² 0,0 km/h (0 Bft) W-NW 292 ° 0 min 0 W/m² 9,7 °C 17,3 °C 0,0 km/h (0 Bft)
25.08.2024 20:53 23,6 °C 17,3 °C 48 % 63 % 1021,5 hPa 0,0 l/m² 0,0 km/h (0 Bft) W-NW 292 ° 0 min 0 W/m² 10,2 °C 17,3 °C 0,0 km/h (0 Bft)
25.08.2024 20:54 23,6 °C 17,3 °C 48 % 64 % 1021,4 hPa 0,0 l/m² 0,0 km/h (0 Bft) W-NW 292 ° 0 min 0 W/m² 10,4 °C 17,3 °C 0,0 km/h (0 Bft)
25.08.2024 20:55 23,6 °C 17,3 °C 48 % 64 % 1021,4 hPa 0,0 l/m² 0,0 km/h (0 Bft) W-NW 292 ° 0 min 0 W/m² 10,4 °C 17,3 °C 0,0 km/h (0 Bft)
25.08.2024 20:56 23,6 °C 17,3 °C 48 % 64 % 1021,5 hPa 0,0 l/m² 0,0 km/h (0 Bft) W-NW 292 ° 0 min 0 W/m² 10,4 °C 17,3 °C 0,0 km/h (0 Bft)
25.08.2024 20:57 23,6 °C 17,3 °C 48 % 65 % 1021,5 hPa 0,0 l/m² 0,0 km/h (0 Bft) W-NW 292 ° 0 min 0 W/m² 10,7 °C 17,3 °C 0,0 km/h (0 Bft)
25.08.2024 20:58 23,6 °C 17,3 °C 48 % 64 % 1021,5 hPa 0,0 l/m² 0,0 km/h (0 Bft) W-NW 292 ° 0 min 0 W/m² 10,4 °C 17,3 °C 0,0 km/h (0 Bft)
25.08.2024 20:59 23,6 °C 17,3 °C 49 % 64 % 1021,5 hPa 0,0 l/m² 0,0 km/h (0 Bft) W-NW 292 ° 0 min 0 W/m² 10,4 °C 17,3 °C 0,0 km/h (0 Bft)
25.08.2024 21:01 23,6 °C 17,3 °C 49 % 67 % 1021,5 hPa 0,0 l/m² 0,0 km/h (0 Bft) W-NW 292 ° 0 min 0 W/m² 11,1 °C 17,3 °C 0,0 km/h (0 Bft)
25.08.2024 21:03 23,7 °C 17,2 °C 49 % 68 % 1021,5 hPa 0,0 l/m² 0,0 km/h (0 Bft) W-NW 292 ° 0 min 0 W/m² 11,2 °C 17,2 °C 0,0 km/h (0 Bft)
25.08.2024 21:04 23,7 °C 17,1 °C 49 % 69 % 1021,5 hPa 0,0 l/m² 1,1 km/h (1 Bft) W-NW 292 ° 0 min 0 W/m² 11,4 °C 17,1 °C 1,6 km/h (1 Bft)
25.08.2024 21:05 23,7 °C 17,1 °C 49 % 70 % 1021,5 hPa 0,0 l/m² 1,1 km/h (1 Bft) W-NW 292 ° 0 min 0 W/m² 11,6 °C 17,1 °C 1,6 km/h (1 Bft)
25.08.2024 21:06 23,7 °C 17,1 °C 49 % 70 % 1021,6 hPa 0,0 l/m² 0,8 km/h (0 Bft) W-NW 292 ° 0 min 0 W/m² 11,6 °C 17,1 °C 1,6 km/h (1 Bft)
25.08.2024 21:07 23,6 °C 17,0 °C 49 % 70 % 1021,6 hPa 0,0 l/m² 0,3 km/h (0 Bft) W-NW 292 ° 0 min 0 W/m² 11,5 °C 17,0 °C 1,6 km/h (1 Bft)
25.08.2024 21:08 23,7 °C 17,0 °C 49 % 70 % 1021,6 hPa 0,0 l/m² 0,0 km/h (0 Bft) W-NW 292 ° 0 min 0 W/m² 11,5 °C 17,0 °C 0,0 km/h (0 Bft)
25.08.2024 21:09 23,6 °C 16,9 °C 49 % 70 % 1021,6 hPa 0,0 l/m² 0,0 km/h (0 Bft) W-NW 292 ° 0 min 0 W/m² 11,4 °C 16,9 °C 0,0 km/h (0 Bft)
25.08.2024 21:11 23,7 °C 17,0 °C 49 % 71 % 1021,6 hPa 0,0 l/m² 0,0 km/h (0 Bft) W-NW 292 ° 0 min 0 W/m² 11,7 °C 17,0 °C 0,0 km/h (0 Bft)
25.08.2024 21:12 23,7 °C 17,0 °C 49 % 71 % 1021,8 hPa 0,0 l/m² 0,0 km/h (0 Bft) W-NW 292 ° 0 min 0 W/m² 11,7 °C 17,0 °C 0,0 km/h (0 Bft)
25.08.2024 21:13 23,7 °C 17,0 °C 49 % 71 % 1021,7 hPa 0,0 l/m² 0,0 km/h (0 Bft) W-NW 292 ° 0 min 0 W/m² 11,7 °C 17,0 °C 0,0 km/h (0 Bft)
25.08.2024 21:14 23,7 °C 16,9 °C 49 % 71 % 1021,7 hPa 0,0 l/m² 0,0 km/h (0 Bft) W-NW 292 ° 0 min 0 W/m² 11,6 °C 16,9 °C 0,0 km/h (0 Bft)
25.08.2024 21:15 23,7 °C 16,9 °C 49 % 71 % 1021,8 hPa 0,0 l/m² 0,0 km/h (0 Bft) W-NW 292 ° 0 min 0 W/m² 11,6 °C 16,9 °C 0,0 km/h (0 Bft)
25.08.2024 21:16 23,7 °C 16,9 °C 49 % 72 % 1021,7 hPa 0,0 l/m² 0,0 km/h (0 Bft) W-NW 292 ° 0 min 0 W/m² 11,8 °C 16,9 °C 0,0 km/h (0 Bft)
25.08.2024 21:17 23,7 °C 16,9 °C 49 % 72 % 1021,8 hPa 0,0 l/m² 0,0 km/h (0 Bft) W-NW 292 ° 0 min 0 W/m² 11,8 °C 16,9 °C 0,0 km/h (0 Bft)
25.08.2024 21:18 23,7 °C 16,9 °C 49 % 72 % 1021,8 hPa 0,0 l/m² 0,0 km/h (0 Bft) W-NW 292 ° 0 min 0 W/m² 11,8 °C 16,9 °C 0,0 km/h (0 Bft)
25.08.2024 21:19 23,7 °C 16,9 °C 49 % 72 % 1021,8 hPa 0,0 l/m² 0,0 km/h (0 Bft) W-NW 292 ° 0 min 0 W/m² 11,8 °C 16,9 °C 0,0 km/h (0 Bft)
25.08.2024 21:21 23,7 °C 16,9 °C 49 % 71 % 1021,8 hPa 0,0 l/m² 0,0 km/h (0 Bft) W-NW 292 ° 0 min 0 W/m² 11,6 °C 16,9 °C 0,0 km/h (0 Bft)
25.08.2024 21:23 23,7 °C 16,9 °C 49 % 71 % 1021,7 hPa 0,0 l/m² 0,0 km/h (0 Bft) W-NW 292 ° 0 min 0 W/m² 11,6 °C 16,9 °C 0,0 km/h (0 Bft)
25.08.2024 21:24 23,7 °C 16,9 °C 49 % 71 % 1021,8 hPa 0,0 l/m² 0,0 km/h (0 Bft) W-NW 292 ° 0 min 0 W/m² 11,6 °C 16,9 °C 0,0 km/h (0 Bft)
25.08.2024 21:25 23,7 °C 17,0 °C 49 % 71 % 1021,8 hPa 0,0 l/m² 0,0 km/h (0 Bft) W-NW 292 ° 0 min 0 W/m² 11,7 °C 17,0 °C 0,0 km/h (0 Bft)
25.08.2024 21:26 23,7 °C 17,0 °C 49 % 70 % 1021,7 hPa 0,0 l/m² 0,0 km/h (0 Bft) W-NW 292 ° 0 min 0 W/m² 11,5 °C 17,0 °C 0,0 km/h (0 Bft)
25.08.2024 21:27 23,7 °C 17,0 °C 49 % 69 % 1021,8 hPa 0,0 l/m² 0,0 km/h (0 Bft) W-NW 292 ° 0 min 0 W/m² 11,3 °C 17,0 °C 0,0 km/h (0 Bft)
25.08.2024 21:28 23,7 °C 17,0 °C 49 % 69 % 1021,8 hPa 0,0 l/m² 0,0 km/h (0 Bft) W-NW 292 ° 0 min 0 W/m² 11,3 °C 17,0 °C 0,0 km/h (0 Bft)
25.08.2024 21:29 23,7 °C 17,0 °C 50 % 69 % 1021,8 hPa 0,0 l/m² 0,0 km/h (0 Bft) W-NW 292 ° 0 min 0 W/m² 11,3 °C 17,0 °C 0,0 km/h (0 Bft)
25.08.2024 21:31 23,7 °C 17,1 °C 50 % 70 % 1021,9 hPa 0,0 l/m² 0,0 km/h (0 Bft) W-NW 292 ° 0 min 0 W/m² 11,6 °C 17,1 °C 0,0 km/h (0 Bft)
25.08.2024 21:32 23,7 °C 17,0 °C 50 % 70 % 1021,9 hPa 0,0 l/m² 0,0 km/h (0 Bft) W-NW 292 ° 0 min 0 W/m² 11,5 °C 17,0 °C 0,0 km/h (0 Bft)
25.08.2024 21:33 23,7 °C 16,9 °C 50 % 69 % 1021,9 hPa 0,0 l/m² 0,0 km/h (0 Bft) W-NW 292 ° 0 min 0 W/m² 11,2 °C 16,9 °C 0,0 km/h (0 Bft)
25.08.2024 21:34 23,7 °C 16,9 °C 50 % 69 % 1021,9 hPa 0,0 l/m² 0,0 km/h (0 Bft) W-NW 292 ° 0 min 0 W/m² 11,2 °C 16,9 °C 0,0 km/h (0 Bft)
25.08.2024 21:35 23,7 °C 16,9 °C 50 % 68 % 1021,9 hPa 0,0 l/m² 0,0 km/h (0 Bft) W-NW 292 ° 0 min 0 W/m² 11,0 °C 16,9 °C 0,0 km/h (0 Bft)
25.08.2024 21:36 23,7 °C 16,9 °C 50 % 68 % 1021,9 hPa 0,0 l/m² 0,0 km/h (0 Bft) W-NW 292 ° 0 min 0 W/m² 11,0 °C 16,9 °C 0,0 km/h (0 Bft)
25.08.2024 21:37 23,7 °C 16,9 °C 50 % 67 % 1021,9 hPa 0,0 l/m² 0,0 km/h (0 Bft) W-NW 292 ° 0 min 0 W/m² 10,7 °C 16,9 °C 0,0 km/h (0 Bft)
25.08.2024 21:38 23,7 °C 16,9 °C 50 % 67 % 1022,0 hPa 0,0 l/m² 0,0 km/h (0 Bft) W-NW 292 ° 0 min 0 W/m² 10,7 °C 16,9 °C 0,0 km/h (0 Bft)
25.08.2024 21:39 23,7 °C 16,9 °C 50 % 67 % 1021,9 hPa 0,0 l/m² 0,0 km/h (0 Bft) W-NW 292 ° 0 min 0 W/m² 10,7 °C 16,9 °C 0,0 km/h (0 Bft)
25.08.2024 21:41 23,7 °C 16,9 °C 50 % 67 % 1021,9 hPa 0,0 l/m² 0,0 km/h (0 Bft) W-NW 292 ° 0 min 0 W/m² 10,7 °C 16,9 °C 0,0 km/h (0 Bft)
25.08.2024 21:43 23,7 °C 16,9 °C 50 % 66 % 1022,0 hPa 0,0 l/m² 0,0 km/h (0 Bft) W-NW 292 ° 0 min 0 W/m² 10,5 °C 16,9 °C 0,0 km/h (0 Bft)
25.08.2024 21:44 23,7 °C 16,9 °C 50 % 67 % 1021,9 hPa 0,0 l/m² 0,0 km/h (0 Bft) W-NW 292 ° 0 min 0 W/m² 10,7 °C 16,9 °C 0,0 km/h (0 Bft)
25.08.2024 21:46 23,7 °C 16,8 °C 50 % 68 % 1022,0 hPa 0,0 l/m² 0,0 km/h (0 Bft) W-NW 292 ° 0 min 0 W/m² 10,9 °C 16,8 °C 0,0 km/h (0 Bft)
25.08.2024 21:47 23,7 °C 16,7 °C 50 % 68 % 1021,9 hPa 0,0 l/m² 0,0 km/h (0 Bft) W-NW 292 ° 0 min 0 W/m² 10,8 °C 16,7 °C 0,0 km/h (0 Bft)
25.08.2024 21:48 23,7 °C 16,7 °C 50 % 68 % 1022,0 hPa 0,0 l/m² 0,0 km/h (0 Bft) W-NW 292 ° 0 min 0 W/m² 10,8 °C 16,7 °C 0,0 km/h (0 Bft)
25.08.2024 21:49 23,7 °C 16,7 °C 50 % 69 % 1022,0 hPa 0,0 l/m² 0,0 km/h (0 Bft) W-NW 292 ° 0 min 0 W/m² 11,0 °C 16,7 °C 0,0 km/h (0 Bft)
25.08.2024 21:51 23,7 °C 16,5 °C 50 % 71 % 1021,9 hPa 0,0 l/m² 0,0 km/h (0 Bft) W-NW 292 ° 0 min 0 W/m² 11,2 °C 16,5 °C 0,0 km/h (0 Bft)
25.08.2024 21:52 23,7 °C 16,4 °C 50 % 72 % 1022,0 hPa 0,0 l/m² 0,0 km/h (0 Bft) W-NW 292 ° 0 min 0 W/m² 11,3 °C 16,4 °C 0,0 km/h (0 Bft)
25.08.2024 21:53 23,7 °C 16,3 °C 50 % 73 % 1022,0 hPa 0,0 l/m² 0,5 km/h (0 Bft) W 280 ° 0 min 0 W/m² 11,4 °C 16,3 °C 1,6 km/h (1 Bft)
25.08.2024 21:54 23,6 °C 16,3 °C 50 % 74 % 1022,0 hPa 0,0 l/m² 0,3 km/h (0 Bft) W 280 ° 0 min 0 W/m² 11,7 °C 16,3 °C 1,6 km/h (1 Bft)
25.08.2024 21:55 23,6 °C 16,3 °C 50 % 74 % 1022,0 hPa 0,0 l/m² 0,0 km/h (0 Bft) W 280 ° 0 min 0 W/m² 11,7 °C 16,3 °C 0,0 km/h (0 Bft)
25.08.2024 21:56 23,7 °C 16,2 °C 50 % 75 % 1022,0 hPa 0,0 l/m² 0,0 km/h (0 Bft) W 280 ° 0 min 0 W/m² 11,8 °C 16,2 °C 0,0 km/h (0 Bft)
25.08.2024 21:57 23,6 °C 16,2 °C 50 % 75 % 1022,0 hPa 0,0 l/m² 0,0 km/h (0 Bft) W 280 ° 0 min 0 W/m² 11,8 °C 16,2 °C 0,0 km/h (0 Bft)
25.08.2024 21:58 23,6 °C 16,1 °C 50 % 75 % 1022,1 hPa 0,0 l/m² 0,0 km/h (0 Bft) W 280 ° 0 min 0 W/m² 11,7 °C 16,1 °C 0,0 km/h (0 Bft)
25.08.2024 21:59 23,6 °C 16,1 °C 50 % 75 % 1022,1 hPa 0,0 l/m² 0,0 km/h (0 Bft) W 280 ° 0 min 0 W/m² 11,7 °C 16,1 °C 0,0 km/h (0 Bft)
25.08.2024 22:01 23,6 °C 16,0 °C 50 % 75 % 1022,0 hPa 0,0 l/m² 0,0 km/h (0 Bft) W 280 ° 0 min 0 W/m² 11,6 °C 16,0 °C 0,0 km/h (0 Bft)
25.08.2024 22:03 23,6 °C 16,0 °C 50 % 75 % 1022,0 hPa 0,0 l/m² 0,0 km/h (0 Bft) W 280 ° 0 min 0 W/m² 11,6 °C 16,0 °C 0,0 km/h (0 Bft)
25.08.2024 22:04 23,6 °C 15,9 °C 50 % 74 % 1022,0 hPa 0,0 l/m² 0,0 km/h (0 Bft) W 280 ° 0 min 0 W/m² 11,3 °C 15,9 °C 0,0 km/h (0 Bft)
25.08.2024 22:05 23,6 °C 16,0 °C 50 % 75 % 1022,0 hPa 0,0 l/m² 0,0 km/h (0 Bft) W 280 ° 0 min 0 W/m² 11,6 °C 16,0 °C 0,0 km/h (0 Bft)
25.08.2024 22:06 23,6 °C 16,0 °C 50 % 74 % 1022,0 hPa 0,0 l/m² 0,0 km/h (0 Bft) W 280 ° 0 min 0 W/m² 11,4 °C 16,0 °C 0,0 km/h (0 Bft)
25.08.2024 22:07 23,6 °C 15,9 °C 50 % 74 % 1022,0 hPa 0,0 l/m² 0,0 km/h (0 Bft) W 280 ° 0 min 0 W/m² 11,3 °C 15,9 °C 0,0 km/h (0 Bft)
25.08.2024 22:08 23,6 °C 15,9 °C 50 % 74 % 1022,0 hPa 0,0 l/m² 0,0 km/h (0 Bft) W 280 ° 0 min 0 W/m² 11,3 °C 15,9 °C 0,0 km/h (0 Bft)
25.08.2024 22:09 23,6 °C 15,9 °C 50 % 74 % 1022,0 hPa 0,0 l/m² 0,0 km/h (0 Bft) W 280 ° 0 min 0 W/m² 11,3 °C 15,9 °C 0,0 km/h (0 Bft)
25.08.2024 22:11 23,6 °C 15,9 °C 50 % 74 % 1022,1 hPa 0,0 l/m² 0,0 km/h (0 Bft) W 280 ° 0 min 0 W/m² 11,3 °C 15,9 °C 0,0 km/h (0 Bft)
25.08.2024 22:12 23,6 °C 15,8 °C 50 % 74 % 1022,1 hPa 0,0 l/m² 0,0 km/h (0 Bft) W 280 ° 0 min 0 W/m² 11,2 °C 15,8 °C 0,0 km/h (0 Bft)
25.08.2024 22:13 23,6 °C 15,8 °C 50 % 75 % 1022,1 hPa 0,0 l/m² 0,0 km/h (0 Bft) W 280 ° 0 min 0 W/m² 11,4 °C 15,8 °C 0,0 km/h (0 Bft)
25.08.2024 22:14 23,6 °C 15,7 °C 50 % 75 % 1022,0 hPa 0,0 l/m² 0,0 km/h (0 Bft) W 280 ° 0 min 0 W/m² 11,3 °C 15,7 °C 0,0 km/h (0 Bft)
25.08.2024 22:15 23,6 °C 15,7 °C 50 % 75 % 1022,1 hPa 0,0 l/m² 0,1 km/h (0 Bft) W 280 ° 0 min 0 W/m² 11,3 °C 15,7 °C 1,6 km/h (1 Bft)
25.08.2024 22:16 23,6 °C 15,7 °C 50 % 75 % 1022,0 hPa 0,0 l/m² 0,2 km/h (0 Bft) W 280 ° 0 min 0 W/m² 11,3 °C 15,7 °C 1,6 km/h (1 Bft)
25.08.2024 22:17 23,6 °C 15,6 °C 50 % 74 % 1022,1 hPa 0,0 l/m² 0,6 km/h (0 Bft) W 280 ° 0 min 0 W/m² 11,0 °C 15,6 °C 1,6 km/h (1 Bft)
25.08.2024 22:18 23,6 °C 15,6 °C 50 % 74 % 1022,0 hPa 0,0 l/m² 1,3 km/h (1 Bft) W 280 ° 0 min 0 W/m² 11,0 °C 15,6 °C 1,6 km/h (1 Bft)
25.08.2024 22:19 23,6 °C 15,6 °C 50 % 73 % 1022,1 hPa 0,0 l/m² 0,1 km/h (0 Bft) W 280 ° 0 min 0 W/m² 10,8 °C 15,6 °C 1,6 km/h (1 Bft)
25.08.2024 22:21 23,6 °C 15,5 °C 50 % 70 % 1022,1 hPa 0,0 l/m² 0,0 km/h (0 Bft) W 280 ° 0 min 0 W/m² 10,1 °C 15,5 °C 0,0 km/h (0 Bft)
25.08.2024 22:23 23,6 °C 15,6 °C 50 % 71 % 1022,0 hPa 0,0 l/m² 0,0 km/h (0 Bft) W 280 ° 0 min 0 W/m² 10,4 °C 15,6 °C 0,0 km/h (0 Bft)
25.08.2024 22:24 23,6 °C 15,6 °C 50 % 72 % 1022,0 hPa 0,0 l/m² 0,0 km/h (0 Bft) W 280 ° 0 min 0 W/m² 10,6 °C 15,6 °C 0,0 km/h (0 Bft)
25.08.2024 22:25 23,6 °C 15,5 °C 50 % 72 % 1022,0 hPa 0,0 l/m² 0,0 km/h (0 Bft) W 280 ° 0 min 0 W/m² 10,5 °C 15,5 °C 0,0 km/h (0 Bft)
25.08.2024 22:26 23,6 °C 15,5 °C 50 % 71 % 1022,1 hPa 0,0 l/m² 0,0 km/h (0 Bft) W 280 ° 0 min 0 W/m² 10,3 °C 15,5 °C 0,0 km/h (0 Bft)
25.08.2024 22:27 23,6 °C 15,4 °C 50 % 71 % 1022,0 hPa 0,0 l/m² 0,0 km/h (0 Bft) W 280 ° 0 min 0 W/m² 10,2 °C 15,4 °C 0,0 km/h (0 Bft)
25.08.2024 22:28 23,6 °C 15,4 °C 50 % 71 % 1022,2 hPa 0,0 l/m² 0,0 km/h (0 Bft) W 280 ° 0 min 0 W/m² 10,2 °C 15,4 °C 0,0 km/h (0 Bft)
25.08.2024 22:29 23,6 °C 15,3 °C 50 % 72 % 1022,2 hPa 0,0 l/m² 0,0 km/h (0 Bft) W 280 ° 0 min 0 W/m² 10,3 °C 15,3 °C 0,0 km/h (0 Bft)
25.08.2024 22:31 23,6 °C 15,3 °C 50 % 74 % 1022,1 hPa 0,0 l/m² 0,4 km/h (0 Bft) W 280 ° 0 min 0 W/m² 10,7 °C 15,3 °C 3,2 km/h (1 Bft)
25.08.2024 22:32 23,6 °C 15,2 °C 50 % 75 % 1022,1 hPa 0,0 l/m² 2,1 km/h (1 Bft) W 280 ° 0 min 0 W/m² 10,8 °C 15,2 °C 3,2 km/h (1 Bft)
25.08.2024 22:33 23,6 °C 15,2 °C 50 % 76 % 1022,1 hPa 0,0 l/m² 2,5 km/h (1 Bft) W 281 ° 0 min 0 W/m² 11,0 °C 15,2 °C 3,2 km/h (1 Bft)
25.08.2024 22:34 23,6 °C 15,2 °C 50 % 76 % 1022,1 hPa 0,0 l/m² 2,2 km/h (1 Bft) W 281 ° 0 min 0 W/m² 11,0 °C 15,2 °C 3,2 km/h (1 Bft)
25.08.2024 22:35 23,5 °C 15,1 °C 50 % 77 % 1022,2 hPa 0,0 l/m² 1,9 km/h (1 Bft) W 281 ° 0 min 0 W/m² 11,1 °C 15,1 °C 3,2 km/h (1 Bft)
25.08.2024 22:36 23,6 °C 15,1 °C 50 % 77 % 1022,2 hPa 0,0 l/m² 1,6 km/h (1 Bft) W 281 ° 0 min 0 W/m² 11,1 °C 15,1 °C 1,6 km/h (1 Bft)
25.08.2024 22:37 23,6 °C 15,1 °C 50 % 77 % 1022,2 hPa 0,0 l/m² 0,5 km/h (0 Bft) W 281 ° 0 min 0 W/m² 11,1 °C 15,1 °C 1,6 km/h (1 Bft)
25.08.2024 22:38 23,6 °C 15,1 °C 50 % 78 % 1022,3 hPa 0,0 l/m² 0,0 km/h (0 Bft) W 281 ° 0 min 0 W/m² 11,3 °C 15,1 °C 0,0 km/h (0 Bft)
25.08.2024 22:39 23,5 °C 15,0 °C 50 % 77 % 1022,2 hPa 0,0 l/m² 0,0 km/h (0 Bft) W 281 ° 0 min 0 W/m² 11,0 °C 15,0 °C 0,0 km/h (0 Bft)
25.08.2024 22:41 23,5 °C 14,9 °C 50 % 77 % 1022,2 hPa 0,0 l/m² 0,0 km/h (0 Bft) W 281 ° 0 min 0 W/m² 10,9 °C 14,9 °C 0,0 km/h (0 Bft)
25.08.2024 22:43 23,5 °C 14,9 °C 50 % 76 % 1022,2 hPa 0,0 l/m² 0,0 km/h (0 Bft) W 281 ° 0 min 0 W/m² 10,7 °C 14,9 °C 0,0 km/h (0 Bft)
25.08.2024 22:44 23,5 °C 14,9 °C 50 % 75 % 1022,2 hPa 0,0 l/m² 0,0 km/h (0 Bft) W 281 ° 0 min 0 W/m² 10,5 °C 14,9 °C 0,0 km/h (0 Bft)
25.08.2024 22:45 23,5 °C 14,9 °C 50 % 74 % 1022,2 hPa 0,0 l/m² 0,8 km/h (0 Bft) W-NW 284 ° 0 min 0 W/m² 10,3 °C 14,9 °C 3,2 km/h (1 Bft)
25.08.2024 22:46 23,5 °C 14,9 °C 50 % 75 % 1022,2 hPa 0,0 l/m² 0,9 km/h (0 Bft) W-NW 284 ° 0 min 0 W/m² 10,5 °C 14,9 °C 1,6 km/h (1 Bft)
25.08.2024 22:47 23,5 °C 15,0 °C 50 % 74 % 1022,3 hPa 0,0 l/m² 0,1 km/h (0 Bft) W-NW 284 ° 0 min 0 W/m² 10,4 °C 15,0 °C 1,6 km/h (1 Bft)
25.08.2024 22:48 23,5 °C 14,9 °C 50 % 74 % 1022,2 hPa 0,0 l/m² 0,9 km/h (0 Bft) W-NW 284 ° 0 min 0 W/m² 10,3 °C 14,9 °C 3,2 km/h (1 Bft)
25.08.2024 22:49 23,5 °C 15,0 °C 50 % 74 % 1022,2 hPa 0,0 l/m² 0,0 km/h (0 Bft) W-NW 284 ° 0 min 0 W/m² 10,4 °C 15,0 °C 0,0 km/h (0 Bft)
25.08.2024 22:51 23,5 °C 14,9 °C 51 % 73 % 1022,2 hPa 0,0 l/m² 1,5 km/h (1 Bft) W-NW 286 ° 0 min 0 W/m² 10,1 °C 14,9 °C 4,8 km/h (1 Bft)
25.08.2024 22:53 23,4 °C 14,8 °C 51 % 73 % 1022,3 hPa 0,0 l/m² 0,8 km/h (0 Bft) W-NW 286 ° 0 min 0 W/m² 10,0 °C 14,8 °C 3,2 km/h (1 Bft)
25.08.2024 22:54 23,4 °C 14,7 °C 51 % 73 % 1022,4 hPa 0,0 l/m² 1,1 km/h (1 Bft) W-NW 287 ° 0 min 0 W/m² 9,9 °C 14,7 °C 3,2 km/h (1 Bft)
25.08.2024 22:55 23,5 °C 14,7 °C 51 % 71 % 1022,3 hPa 0,0 l/m² 0,2 km/h (0 Bft) W-NW 287 ° 0 min 0 W/m² 9,5 °C 14,7 °C 1,6 km/h (1 Bft)
25.08.2024 22:56 23,4 °C 14,7 °C 51 % 71 % 1022,3 hPa 0,0 l/m² 0,0 km/h (0 Bft) W-NW 287 ° 0 min 0 W/m² 9,5 °C 14,7 °C 0,0 km/h (0 Bft)
25.08.2024 22:57 23,4 °C 14,7 °C 51 % 71 % 1022,3 hPa 0,0 l/m² 0,0 km/h (0 Bft) W-NW 287 ° 0 min 0 W/m² 9,5 °C 14,7 °C 0,0 km/h (0 Bft)
25.08.2024 22:58 23,4 °C 14,6 °C 51 % 71 % 1022,4 hPa 0,0 l/m² 0,0 km/h (0 Bft) W-NW 287 ° 0 min 0 W/m² 9,4 °C 14,6 °C 0,0 km/h (0 Bft)
25.08.2024 22:59 23,4 °C 14,6 °C 51 % 71 % 1022,3 hPa 0,0 l/m² 0,0 km/h (0 Bft) W-NW 287 ° 0 min 0 W/m² 9,4 °C 14,6 °C 0,0 km/h (0 Bft)
25.08.2024 23:01 23,4 °C 14,5 °C 51 % 71 % 1022,4 hPa 0,0 l/m² 0,0 km/h (0 Bft) W-NW 287 ° 0 min 0 W/m² 9,3 °C 14,5 °C 0,0 km/h (0 Bft)
25.08.2024 23:03 23,4 °C 14,5 °C 51 % 73 % 1022,3 hPa 0,0 l/m² 0,0 km/h (0 Bft) W-NW 287 ° 0 min 0 W/m² 9,7 °C 14,5 °C 0,0 km/h (0 Bft)
25.08.2024 23:04 23,4 °C 14,4 °C 50 % 74 % 1022,3 hPa 0,0 l/m² 0,0 km/h (0 Bft) W-NW 287 ° 0 min 0 W/m² 9,8 °C 14,4 °C 0,0 km/h (0 Bft)
25.08.2024 23:05 23,4 °C 14,4 °C 51 % 74 % 1022,3 hPa 0,0 l/m² 0,0 km/h (0 Bft) W-NW 287 ° 0 min 0 W/m² 9,8 °C 14,4 °C 0,0 km/h (0 Bft)
25.08.2024 23:07 23,4 °C 14,3 °C 51 % 73 % 1022,4 hPa 0,0 l/m² 0,0 km/h (0 Bft) W-NW 287 ° 0 min 0 W/m² 9,5 °C 14,3 °C 0,0 km/h (0 Bft)
25.08.2024 23:08 23,4 °C 14,3 °C 51 % 75 % 1022,4 hPa 0,0 l/m² 0,0 km/h (0 Bft) W-NW 287 ° 0 min 0 W/m² 9,9 °C 14,3 °C 0,0 km/h (0 Bft)
25.08.2024 23:09 23,4 °C 14,3 °C 50 % 76 % 1022,4 hPa 0,0 l/m² 0,0 km/h (0 Bft) W-NW 287 ° 0 min 0 W/m² 10,1 °C 14,3 °C 0,0 km/h (0 Bft)
25.08.2024 23:11 23,4 °C 14,3 °C 51 % 78 % 1022,4 hPa 0,0 l/m² 0,0 km/h (0 Bft) W-NW 287 ° 0 min 0 W/m² 10,5 °C 14,3 °C 0,0 km/h (0 Bft)
25.08.2024 23:13 23,4 °C 14,2 °C 51 % 79 % 1022,4 hPa 0,0 l/m² 0,0 km/h (0 Bft) W-NW 287 ° 0 min 0 W/m² 10,6 °C 14,2 °C 0,0 km/h (0 Bft)
25.08.2024 23:14 23,4 °C 14,2 °C 51 % 79 % 1022,4 hPa 0,0 l/m² 0,0 km/h (0 Bft) W-NW 287 ° 0 min 0 W/m² 10,6 °C 14,2 °C 0,0 km/h (0 Bft)
25.08.2024 23:15 23,4 °C 14,1 °C 51 % 79 % 1022,4 hPa 0,0 l/m² 0,0 km/h (0 Bft) W-NW 287 ° 0 min 0 W/m² 10,5 °C 14,1 °C 0,0 km/h (0 Bft)
25.08.2024 23:16 23,4 °C 14,0 °C 51 % 79 % 1022,3 hPa 0,0 l/m² 0,0 km/h (0 Bft) N 0 ° 0 min 0 W/m² 10,4 °C 14,0 °C 0,0 km/h (0 Bft)
25.08.2024 23:17 23,4 °C 13,9 °C 51 % 80 % 1022,3 hPa 0,0 l/m² 0,0 km/h (0 Bft) N 0 ° 0 min 0 W/m² 10,5 °C 13,9 °C 0,0 km/h (0 Bft)
25.08.2024 23:18 23,4 °C 13,9 °C 51 % 80 % 1022,3 hPa 0,0 l/m² 0,0 km/h (0 Bft) N 0 ° 0 min 0 W/m² 10,5 °C 13,9 °C 0,0 km/h (0 Bft)
25.08.2024 23:24 23,4 °C 13,9 °C 51 % 75 % 1022,4 hPa 0,0 l/m² 0,0 km/h (0 Bft) W-NW 287 ° 0 min 0 W/m² 9,5 °C 13,9 °C 0,0 km/h (0 Bft)
25.08.2024 23:26 23,4 °C 13,8 °C 51 % 74 % 1022,4 hPa 0,0 l/m² 0,0 km/h (0 Bft) W-NW 287 ° 0 min 0 W/m² 9,2 °C 13,8 °C 0,0 km/h (0 Bft)
25.08.2024 23:27 23,4 °C 13,8 °C 51 % 74 % 1022,4 hPa 0,0 l/m² 0,0 km/h (0 Bft) W-NW 287 ° 0 min 0 W/m² 9,2 °C 13,8 °C 0,0 km/h (0 Bft)
25.08.2024 23:28 23,4 °C 13,9 °C 51 % 74 % 1022,3 hPa 0,0 l/m² 0,0 km/h (0 Bft) W-NW 287 ° 0 min 0 W/m² 9,3 °C 13,9 °C 0,0 km/h (0 Bft)
25.08.2024 23:30 23,4 °C 13,9 °C 51 % 74 % 1022,4 hPa 0,0 l/m² 0,0 km/h (0 Bft) W-NW 287 ° 0 min 0 W/m² 9,3 °C 13,9 °C 0,0 km/h (0 Bft)
25.08.2024 23:31 23,4 °C 13,9 °C 51 % 75 % 1022,4 hPa 0,0 l/m² 0,0 km/h (0 Bft) W-NW 287 ° 0 min 0 W/m² 9,5 °C 13,9 °C 0,0 km/h (0 Bft)
25.08.2024 23:32 23,4 °C 13,9 °C 51 % 76 % 1022,4 hPa 0,0 l/m² 0,0 km/h (0 Bft) W-NW 287 ° 0 min 0 W/m² 9,7 °C 13,9 °C 0,0 km/h (0 Bft)
25.08.2024 23:35 23,4 °C 13,9 °C 50 % 77 % 1022,3 hPa 0,0 l/m² 0,0 km/h (0 Bft) W-NW 287 ° 0 min 0 W/m² 9,9 °C 13,9 °C 0,0 km/h (0 Bft)
25.08.2024 23:37 23,4 °C 13,9 °C 50 % 77 % 1022,5 hPa 0,0 l/m² 0,0 km/h (0 Bft) W-NW 287 ° 0 min 0 W/m² 9,9 °C 13,9 °C 0,0 km/h (0 Bft)
25.08.2024 23:39 23,4 °C 13,9 °C 50 % 78 % 1022,4 hPa 0,0 l/m² 0,0 km/h (0 Bft) W-NW 287 ° 0 min 0 W/m² 10,1 °C 13,9 °C 0,0 km/h (0 Bft)
25.08.2024 23:40 23,3 °C 13,8 °C 50 % 79 % 1022,5 hPa 0,0 l/m² 0,0 km/h (0 Bft) W-NW 287 ° 0 min 0 W/m² 10,2 °C 13,8 °C 0,0 km/h (0 Bft)
25.08.2024 23:41 23,4 °C 13,8 °C 50 % 79 % 1022,5 hPa 0,0 l/m² 0,0 km/h (0 Bft) W-NW 287 ° 0 min 0 W/m² 10,2 °C 13,8 °C 0,0 km/h (0 Bft)
25.08.2024 23:42 23,4 °C 13,8 °C 50 % 79 % 1022,5 hPa 0,0 l/m² 0,0 km/h (0 Bft) W-NW 287 ° 0 min 0 W/m² 10,2 °C 13,8 °C 0,0 km/h (0 Bft)
25.08.2024 23:45 23,4 °C 13,7 °C 50 % 79 % 1022,5 hPa 0,0 l/m² 0,0 km/h (0 Bft) W-NW 287 ° 0 min 0 W/m² 10,1 °C 13,7 °C 0,0 km/h (0 Bft)
25.08.2024 23:47 23,3 °C 13,7 °C 50 % 78 % 1022,5 hPa 0,0 l/m² 0,0 km/h (0 Bft) W-NW 287 ° 0 min 0 W/m² 9,9 °C 13,7 °C 0,0 km/h (0 Bft)
25.08.2024 23:49 23,4 °C 13,6 °C 50 % 78 % 1022,6 hPa 0,0 l/m² 0,0 km/h (0 Bft) W-NW 287 ° 0 min 0 W/m² 9,8 °C 13,6 °C 0,0 km/h (0 Bft)
25.08.2024 23:50 23,4 °C 13,7 °C 50 % 77 % 1022,5 hPa 0,0 l/m² 0,0 km/h (0 Bft) W-NW 287 ° 0 min 0 W/m² 9,7 °C 13,7 °C 0,0 km/h (0 Bft)
25.08.2024 23:51 23,4 °C 13,7 °C 50 % 76 % 1022,5 hPa 0,0 l/m² 0,0 km/h (0 Bft) W-NW 287 ° 0 min 0 W/m² 9,5 °C 13,7 °C 0,0 km/h (0 Bft)
25.08.2024 23:52 23,4 °C 13,7 °C 50 % 76 % 1022,5 hPa 0,0 l/m² 0,0 km/h (0 Bft) W-NW 287 ° 0 min 0 W/m² 9,5 °C 13,7 °C 0,0 km/h (0 Bft)
25.08.2024 23:54 23,3 °C 13,7 °C 50 % 75 % 1022,5 hPa 0,0 l/m² 0,0 km/h (0 Bft) W-NW 287 ° 0 min 0 W/m² 9,3 °C 13,7 °C 0,0 km/h (0 Bft)
25.08.2024 23:56 23,3 °C 13,7 °C 50 % 74 % 1022,4 hPa 0,0 l/m² 0,0 km/h (0 Bft) W-NW 287 ° 0 min 0 W/m² 9,2 °C 13,7 °C 0,0 km/h (0 Bft)
25.08.2024 23:58 23,4 °C 13,6 °C 50 % 75 % 1022,5 hPa 0,0 l/m² 0,0 km/h (0 Bft) W-NW 287 ° 0 min 0 W/m² 9,3 °C 13,6 °C 0,0 km/h (0 Bft)
_ Min-Zeit 08:36 23:58 18:24 17:53 00:05 - 23:58 - - - - 23:56 23:58 23:58
Minimum _ 23,1 °C 13,6 °C 45 % 41 % 1006,2 hPa - 0,0 km/h (0 Bft) - - - - 9,2 °C 13,6 °C 0,0 km/h (0 Bft)
_ Max-Zeit 02:06 01:33 06:26 06:18 23:49 23:58 01:44 - - 19:21 12:46 06:13 00:03 01:42
Maximum _ 23,8 °C 27,4 °C 64 % 84 % 1022,6 hPa 0,0 l/m² 38,5 km/h
SW (6 Bft)
- - 2 min 986 W/m² 18,6 °C 27,1 °C 59,5 km/h
W (7 Bft)
Durchschnitt _ 23,5 °C 21,2 °C 54 % 63 % 1016,8 hPa #0,0 l/m² 10,3 km/h (2 Bft) W-SW - #10:37 h 159 W/m² 13,5 °C 19,9 °C 15,5 km/h (3 Bft)
© 2009 Mathias Hoßbach